<?xml version='1.0' encoding='UTF-8'?><gpx version="1.1" creator="JPX - https://github.com/jenetics/jpx" xmlns="http://www.topografix.com/GPX/1/1"><trk><trkseg><trkpt lat="43.3758624" lon="11.7879772"><ele>271.99999999999994</ele><time>2026-04-16T15:03:04.011Z</time></trkpt><trkpt lat="43.3759271" lon="11.7879441"><ele>272.0</ele><time>2026-04-16T15:03:10.108Z</time></trkpt><trkpt lat="43.3759828" lon="11.7878961"><ele>272.0</ele><time>2026-04-16T15:03:15.001Z</time></trkpt><trkpt lat="43.375975" lon="11.787795"><ele>272.0</ele><time>2026-04-16T15:03:23.993Z</time></trkpt><trkpt lat="43.375915" lon="11.7877433"><ele>272.0</ele><time>2026-04-16T15:03:29.996Z</time></trkpt><trkpt lat="43.3758467" lon="11.7877433"><ele>271.99999999999994</ele><time>2026-04-16T15:03:33.993Z</time></trkpt><trkpt lat="43.3757767" lon="11.7877233"><ele>272.0</ele><time>2026-04-16T15:03:38.99Z</time></trkpt><trkpt lat="43.375705" lon="11.78771"><ele>272.1666666666667</ele><time>2026-04-16T15:03:43.994Z</time></trkpt><trkpt lat="43.37565" lon="11.787665"><ele>272.33333333333337</ele><time>2026-04-16T15:03:47.991Z</time></trkpt><trkpt lat="43.37559" lon="11.7876233"><ele>272.5</ele><time>2026-04-16T15:03:51.99Z</time></trkpt><trkpt lat="43.37548" lon="11.7875983"><ele>272.6666666666667</ele><time>2026-04-16T15:04:11.991Z</time></trkpt><trkpt lat="43.37544" lon="11.787675"><ele>272.8333333333333</ele><time>2026-04-16T15:04:16.991Z</time></trkpt><trkpt lat="43.3754367" lon="11.787775"><ele>273.0</ele><time>2026-04-16T15:04:21.992Z</time></trkpt><trkpt lat="43.375435" lon="11.7878783"><ele>272.8333333333333</ele><time>2026-04-16T15:04:25.991Z</time></trkpt><trkpt lat="43.3754483" lon="11.7879817"><ele>272.6666666666667</ele><time>2026-04-16T15:04:29.992Z</time></trkpt><trkpt lat="43.3754717" lon="11.7880817"><ele>272.5</ele><time>2026-04-16T15:04:33.993Z</time></trkpt><trkpt lat="43.3754833" lon="11.7881883"><ele>272.33333333333337</ele><time>2026-04-16T15:04:37.99Z</time></trkpt><trkpt lat="43.3754983" lon="11.7883"><ele>272.1666666666667</ele><time>2026-04-16T15:04:40.99Z</time></trkpt><trkpt lat="43.3755217" lon="11.7883967"><ele>272.0</ele><time>2026-04-16T15:04:43.991Z</time></trkpt><trkpt lat="43.37553" lon="11.7884983"><ele>272.0</ele><time>2026-04-16T15:04:46.996Z</time></trkpt><trkpt lat="43.3755433" lon="11.7885833"><ele>272.0</ele><time>2026-04-16T15:04:48.99Z</time></trkpt><trkpt lat="43.3755483" lon="11.7886833"><ele>272.0</ele><time>2026-04-16T15:04:50.993Z</time></trkpt><trkpt lat="43.3755417" lon="11.7887967"><ele>272.0</ele><time>2026-04-16T15:04:52.989Z</time></trkpt><trkpt lat="43.375535" lon="11.78893"><ele>272.0</ele><time>2026-04-16T15:04:54.992Z</time></trkpt><trkpt lat="43.37553" lon="11.78909"><ele>272.0</ele><time>2026-04-16T15:04:56.994Z</time></trkpt><trkpt lat="43.37552" lon="11.7891783"><ele>272.0</ele><time>2026-04-16T15:04:57.99Z</time></trkpt><trkpt lat="43.3755167" lon="11.7892717"><ele>272.0</ele><time>2026-04-16T15:04:58.994Z</time></trkpt><trkpt lat="43.375535" lon="11.7893833"><ele>272.0</ele><time>2026-04-16T15:04:59.991Z</time></trkpt><trkpt lat="43.37554" lon="11.7894883"><ele>272.0</ele><time>2026-04-16T15:05:00.991Z</time></trkpt><trkpt lat="43.3755333" lon="11.7896"><ele>272.0</ele><time>2026-04-16T15:05:01.991Z</time></trkpt><trkpt lat="43.37552" lon="11.7897033"><ele>272.0</ele><time>2026-04-16T15:05:02.99Z</time></trkpt><trkpt lat="43.3755017" lon="11.789805"><ele>271.71428571428567</ele><time>2026-04-16T15:05:03.995Z</time></trkpt><trkpt lat="43.3754833" lon="11.789905"><ele>271.42857142857144</ele><time>2026-04-16T15:05:04.992Z</time></trkpt><trkpt lat="43.37546" lon="11.79"><ele>271.1428571428571</ele><time>2026-04-16T15:05:05.992Z</time></trkpt><trkpt lat="43.3754333" lon="11.7900917"><ele>270.85714285714283</ele><time>2026-04-16T15:05:06.991Z</time></trkpt><trkpt lat="43.375405" lon="11.790185"><ele>270.57142857142856</ele><time>2026-04-16T15:05:07.99Z</time></trkpt><trkpt lat="43.3753717" lon="11.7902683"><ele>270.2857142857143</ele><time>2026-04-16T15:05:08.994Z</time></trkpt><trkpt lat="43.3753383" lon="11.79035"><ele>270.0</ele><time>2026-04-16T15:05:09.993Z</time></trkpt><trkpt lat="43.375305" lon="11.7904267"><ele>270.0</ele><time>2026-04-16T15:05:10.991Z</time></trkpt><trkpt lat="43.3752317" lon="11.7905583"><ele>270.0</ele><time>2026-04-16T15:05:12.99Z</time></trkpt><trkpt lat="43.3751567" lon="11.790675"><ele>270.0</ele><time>2026-04-16T15:05:14.995Z</time></trkpt><trkpt lat="43.3750867" lon="11.7907833"><ele>270.0</ele><time>2026-04-16T15:05:16.993Z</time></trkpt><trkpt lat="43.37503" lon="11.7908783"><ele>270.0</ele><time>2026-04-16T15:05:18.99Z</time></trkpt><trkpt lat="43.3749717" lon="11.7909617"><ele>270.2857142857143</ele><time>2026-04-16T15:05:20.993Z</time></trkpt><trkpt lat="43.37492" lon="11.7910367"><ele>270.57142857142856</ele><time>2026-04-16T15:05:22.99Z</time></trkpt><trkpt lat="43.3748733" lon="11.79111"><ele>270.85714285714283</ele><time>2026-04-16T15:05:24.994Z</time></trkpt><trkpt lat="43.37483" lon="11.791195"><ele>271.1428571428571</ele><time>2026-04-16T15:05:26.993Z</time></trkpt><trkpt lat="43.374785" lon="11.79128"><ele>271.42857142857144</ele><time>2026-04-16T15:05:28.993Z</time></trkpt><trkpt lat="43.37474" lon="11.7913617"><ele>271.71428571428567</ele><time>2026-04-16T15:05:30.992Z</time></trkpt><trkpt lat="43.374695" lon="11.7914383"><ele>272.0</ele><time>2026-04-16T15:05:32.996Z</time></trkpt><trkpt lat="43.3746517" lon="11.7915067"><ele>272.1428571428571</ele><time>2026-04-16T15:05:34.994Z</time></trkpt><trkpt lat="43.374605" lon="11.7916117"><ele>272.2857142857143</ele><time>2026-04-16T15:05:37.993Z</time></trkpt><trkpt lat="43.3745483" lon="11.7917017"><ele>272.42857142857144</ele><time>2026-04-16T15:05:40.994Z</time></trkpt><trkpt lat="43.3745033" lon="11.7917633"><ele>272.57142857142856</ele><time>2026-04-16T15:05:42.992Z</time></trkpt><trkpt lat="43.3744617" lon="11.7918317"><ele>272.7142857142857</ele><time>2026-04-16T15:05:44.993Z</time></trkpt><trkpt lat="43.3744183" lon="11.791895"><ele>272.85714285714283</ele><time>2026-04-16T15:05:46.991Z</time></trkpt><trkpt lat="43.3743783" lon="11.791965"><ele>273.0</ele><time>2026-04-16T15:05:48.991Z</time></trkpt><trkpt lat="43.3743383" lon="11.7920383"><ele>273.1666666666667</ele><time>2026-04-16T15:05:50.995Z</time></trkpt><trkpt lat="43.3743017" lon="11.7921117"><ele>273.3333333333333</ele><time>2026-04-16T15:05:52.991Z</time></trkpt><trkpt lat="43.374255" lon="11.7922183"><ele>273.5</ele><time>2026-04-16T15:05:55.992Z</time></trkpt><trkpt lat="43.3742233" lon="11.7922933"><ele>273.66666666666663</ele><time>2026-04-16T15:05:57.993Z</time></trkpt><trkpt lat="43.3741783" lon="11.7923933"><ele>273.8333333333333</ele><time>2026-04-16T15:06:00.994Z</time></trkpt><trkpt lat="43.37415" lon="11.7925"><ele>274.0</ele><time>2026-04-16T15:06:03.993Z</time></trkpt><trkpt lat="43.37413" lon="11.792625"><ele>274.0</ele><time>2026-04-16T15:06:06.992Z</time></trkpt><trkpt lat="43.3741167" lon="11.7927517"><ele>274.0</ele><time>2026-04-16T15:06:09.992Z</time></trkpt><trkpt lat="43.3741183" lon="11.7928383"><ele>274.0</ele><time>2026-04-16T15:06:11.994Z</time></trkpt><trkpt lat="43.3741533" lon="11.7929567"><ele>274.0</ele><time>2026-04-16T15:06:14.992Z</time></trkpt><trkpt lat="43.374195" lon="11.7930283"><ele>274.0</ele><time>2026-04-16T15:06:16.995Z</time></trkpt><trkpt lat="43.3742367" lon="11.7931067"><ele>274.0</ele><time>2026-04-16T15:06:18.995Z</time></trkpt><trkpt lat="43.3742833" lon="11.7931817"><ele>274.0</ele><time>2026-04-16T15:06:20.991Z</time></trkpt><trkpt lat="43.3743467" lon="11.7932633"><ele>274.0</ele><time>2026-04-16T15:06:22.991Z</time></trkpt><trkpt lat="43.3744067" lon="11.7933467"><ele>274.0</ele><time>2026-04-16T15:06:24.996Z</time></trkpt><trkpt lat="43.3744633" lon="11.7934333"><ele>274.0</ele><time>2026-04-16T15:06:26.996Z</time></trkpt><trkpt lat="43.3745267" lon="11.7935217"><ele>274.0</ele><time>2026-04-16T15:06:28.993Z</time></trkpt><trkpt lat="43.3745883" lon="11.7936017"><ele>274.0</ele><time>2026-04-16T15:06:30.993Z</time></trkpt><trkpt lat="43.3746483" lon="11.7936867"><ele>273.8333333333333</ele><time>2026-04-16T15:06:32.993Z</time></trkpt><trkpt lat="43.3746967" lon="11.79377"><ele>273.66666666666663</ele><time>2026-04-16T15:06:34.99Z</time></trkpt><trkpt lat="43.3747333" lon="11.7938567"><ele>273.5</ele><time>2026-04-16T15:06:36.994Z</time></trkpt><trkpt lat="43.374745" lon="11.7939517"><ele>273.3333333333333</ele><time>2026-04-16T15:06:38.994Z</time></trkpt><trkpt lat="43.3747283" lon="11.7940467"><ele>273.1666666666667</ele><time>2026-04-16T15:06:40.992Z</time></trkpt><trkpt lat="43.37468" lon="11.7941367"><ele>273.0</ele><time>2026-04-16T15:06:42.995Z</time></trkpt><trkpt lat="43.3746117" lon="11.79421"><ele>273.0</ele><time>2026-04-16T15:06:44.993Z</time></trkpt><trkpt lat="43.3745317" lon="11.794275"><ele>273.0</ele><time>2026-04-16T15:06:46.994Z</time></trkpt><trkpt lat="43.3744583" lon="11.7943317"><ele>273.0</ele><time>2026-04-16T15:06:48.991Z</time></trkpt><trkpt lat="43.3743917" lon="11.7943883"><ele>273.0</ele><time>2026-04-16T15:06:50.995Z</time></trkpt><trkpt lat="43.374325" lon="11.7944517"><ele>273.0</ele><time>2026-04-16T15:06:52.991Z</time></trkpt><trkpt lat="43.3742567" lon="11.794525"><ele>273.0</ele><time>2026-04-16T15:06:54.993Z</time></trkpt><trkpt lat="43.374185" lon="11.7946167"><ele>272.6</ele><time>2026-04-16T15:06:56.993Z</time></trkpt><trkpt lat="43.37411" lon="11.794715"><ele>272.20000000000005</ele><time>2026-04-16T15:06:58.99Z</time></trkpt><trkpt lat="43.3740267" lon="11.7948167"><ele>271.8</ele><time>2026-04-16T15:07:00.994Z</time></trkpt><trkpt lat="43.373925" lon="11.7948933"><ele>271.40000000000003</ele><time>2026-04-16T15:07:02.997Z</time></trkpt><trkpt lat="43.373825" lon="11.7949617"><ele>271.0</ele><time>2026-04-16T15:07:04.993Z</time></trkpt><trkpt lat="43.373725" lon="11.79502"><ele>271.0</ele><time>2026-04-16T15:07:06.991Z</time></trkpt><trkpt lat="43.3736233" lon="11.7950783"><ele>271.0</ele><time>2026-04-16T15:07:08.993Z</time></trkpt><trkpt lat="43.3735217" lon="11.7951383"><ele>271.0</ele><time>2026-04-16T15:07:10.991Z</time></trkpt><trkpt lat="43.37342" lon="11.7951717"><ele>271.0</ele><time>2026-04-16T15:07:12.988Z</time></trkpt><trkpt lat="43.3733267" lon="11.7951767"><ele>271.0</ele><time>2026-04-16T15:07:14.991Z</time></trkpt><trkpt lat="43.3732417" lon="11.7951683"><ele>271.0</ele><time>2026-04-16T15:07:16.99Z</time></trkpt><trkpt lat="43.3731583" lon="11.7951567"><ele>271.0</ele><time>2026-04-16T15:07:18.991Z</time></trkpt><trkpt lat="43.37308" lon="11.7951517"><ele>271.0</ele><time>2026-04-16T15:07:20.993Z</time></trkpt><trkpt lat="43.37299" lon="11.7951583"><ele>271.0</ele><time>2026-04-16T15:07:22.991Z</time></trkpt><trkpt lat="43.3728883" lon="11.7951983"><ele>271.0</ele><time>2026-04-16T15:07:24.99Z</time></trkpt><trkpt lat="43.3727767" lon="11.7952583"><ele>270.7142857142857</ele><time>2026-04-16T15:07:26.993Z</time></trkpt><trkpt lat="43.3727167" lon="11.7952967"><ele>270.42857142857144</ele><time>2026-04-16T15:07:27.99Z</time></trkpt><trkpt lat="43.372655" lon="11.7953383"><ele>270.14285714285717</ele><time>2026-04-16T15:07:28.991Z</time></trkpt><trkpt lat="43.37259" lon="11.79538"><ele>269.8571428571429</ele><time>2026-04-16T15:07:29.994Z</time></trkpt><trkpt lat="43.3725167" lon="11.7954183"><ele>269.5714285714286</ele><time>2026-04-16T15:07:30.989Z</time></trkpt><trkpt lat="43.372445" lon="11.79546"><ele>269.2857142857143</ele><time>2026-04-16T15:07:31.99Z</time></trkpt><trkpt lat="43.3723717" lon="11.7955017"><ele>269.0</ele><time>2026-04-16T15:07:32.992Z</time></trkpt><trkpt lat="43.3722933" lon="11.7955483"><ele>269.0</ele><time>2026-04-16T15:07:33.992Z</time></trkpt><trkpt lat="43.3722133" lon="11.7955967"><ele>269.0</ele><time>2026-04-16T15:07:34.994Z</time></trkpt><trkpt lat="43.3721317" lon="11.7956517"><ele>269.0</ele><time>2026-04-16T15:07:35.989Z</time></trkpt><trkpt lat="43.3720483" lon="11.7957083"><ele>269.0</ele><time>2026-04-16T15:07:36.988Z</time></trkpt><trkpt lat="43.3719617" lon="11.7957617"><ele>269.0</ele><time>2026-04-16T15:07:37.99Z</time></trkpt><trkpt lat="43.371875" lon="11.7958133"><ele>268.4</ele><time>2026-04-16T15:07:38.991Z</time></trkpt><trkpt lat="43.3717833" lon="11.7958617"><ele>267.79999999999995</ele><time>2026-04-16T15:07:39.99Z</time></trkpt><trkpt lat="43.371695" lon="11.7959083"><ele>267.20000000000005</ele><time>2026-04-16T15:07:40.99Z</time></trkpt><trkpt lat="43.3716" lon="11.7959533"><ele>266.6</ele><time>2026-04-16T15:07:41.993Z</time></trkpt><trkpt lat="43.37151" lon="11.79599"><ele>266.0</ele><time>2026-04-16T15:07:42.992Z</time></trkpt><trkpt lat="43.3714217" lon="11.796025"><ele>266.5</ele><time>2026-04-16T15:07:43.992Z</time></trkpt><trkpt lat="43.3713367" lon="11.796055"><ele>267.0</ele><time>2026-04-16T15:07:44.994Z</time></trkpt><trkpt lat="43.37126" lon="11.79608"><ele>267.5</ele><time>2026-04-16T15:07:45.995Z</time></trkpt><trkpt lat="43.371195" lon="11.7961067"><ele>268.0</ele><time>2026-04-16T15:07:46.99Z</time></trkpt><trkpt lat="43.3710883" lon="11.7961633"><ele>268.5</ele><time>2026-04-16T15:07:48.992Z</time></trkpt><trkpt lat="43.371" lon="11.7962117"><ele>269.0</ele><time>2026-04-16T15:07:50.992Z</time></trkpt><trkpt lat="43.37092" lon="11.7962433"><ele>269.0</ele><time>2026-04-16T15:07:52.992Z</time></trkpt><trkpt lat="43.3708417" lon="11.7962883"><ele>269.0</ele><time>2026-04-16T15:07:55.993Z</time></trkpt><trkpt lat="43.3707733" lon="11.79634"><ele>269.0</ele><time>2026-04-16T15:07:58.992Z</time></trkpt><trkpt lat="43.37072" lon="11.79639"><ele>269.0</ele><time>2026-04-16T15:08:01.992Z</time></trkpt><trkpt lat="43.3706333" lon="11.7964383"><ele>269.0</ele><time>2026-04-16T15:08:04.993Z</time></trkpt><trkpt lat="43.3705517" lon="11.7964817"><ele>269.0</ele><time>2026-04-16T15:08:07.989Z</time></trkpt><trkpt lat="43.3704617" lon="11.7965267"><ele>269.83333333333337</ele><time>2026-04-16T15:08:10.99Z</time></trkpt><trkpt lat="43.3703767" lon="11.7965667"><ele>270.6666666666667</ele><time>2026-04-16T15:08:13.992Z</time></trkpt><trkpt lat="43.3703133" lon="11.7966"><ele>271.5</ele><time>2026-04-16T15:08:15.992Z</time></trkpt><trkpt lat="43.3702083" lon="11.7966483"><ele>272.3333333333333</ele><time>2026-04-16T15:08:18.994Z</time></trkpt><trkpt lat="43.3701367" lon="11.79668"><ele>273.16666666666663</ele><time>2026-04-16T15:08:20.992Z</time></trkpt><trkpt lat="43.37007" lon="11.79671"><ele>274.0</ele><time>2026-04-16T15:08:22.991Z</time></trkpt><trkpt lat="43.369985" lon="11.7967667"><ele>274.0</ele><time>2026-04-16T15:08:25.991Z</time></trkpt><trkpt lat="43.3699283" lon="11.7968133"><ele>274.0</ele><time>2026-04-16T15:08:27.991Z</time></trkpt><trkpt lat="43.36984" lon="11.796855"><ele>274.0</ele><time>2026-04-16T15:08:30.992Z</time></trkpt><trkpt lat="43.3697517" lon="11.79688"><ele>274.0</ele><time>2026-04-16T15:08:33.994Z</time></trkpt><trkpt lat="43.3696333" lon="11.7969783"><ele>274.0</ele><time>2026-04-16T15:08:58.995Z</time></trkpt><trkpt lat="43.3695367" lon="11.7970067"><ele>273.0</ele><time>2026-04-16T15:09:01.991Z</time></trkpt><trkpt lat="43.3694583" lon="11.7970517"><ele>272.0</ele><time>2026-04-16T15:09:03.989Z</time></trkpt><trkpt lat="43.3693667" lon="11.7971233"><ele>271.0</ele><time>2026-04-16T15:09:05.99Z</time></trkpt><trkpt lat="43.3693117" lon="11.7971683"><ele>270.0</ele><time>2026-04-16T15:09:06.988Z</time></trkpt><trkpt lat="43.3692533" lon="11.797215"><ele>269.0</ele><time>2026-04-16T15:09:07.991Z</time></trkpt><trkpt lat="43.36919" lon="11.797265"><ele>268.0</ele><time>2026-04-16T15:09:08.994Z</time></trkpt><trkpt lat="43.3691167" lon="11.7973117"><ele>268.0</ele><time>2026-04-16T15:09:09.996Z</time></trkpt><trkpt lat="43.36904" lon="11.7973717"><ele>268.0</ele><time>2026-04-16T15:09:10.989Z</time></trkpt><trkpt lat="43.36896" lon="11.7974333"><ele>268.0</ele><time>2026-04-16T15:09:11.994Z</time></trkpt><trkpt lat="43.3688783" lon="11.7975033"><ele>268.0</ele><time>2026-04-16T15:09:12.991Z</time></trkpt><trkpt lat="43.3687967" lon="11.7975717"><ele>268.0</ele><time>2026-04-16T15:09:13.993Z</time></trkpt><trkpt lat="43.3687133" lon="11.7976483"><ele>266.2</ele><time>2026-04-16T15:09:14.991Z</time></trkpt><trkpt lat="43.3686283" lon="11.7977367"><ele>264.4</ele><time>2026-04-16T15:09:15.991Z</time></trkpt><trkpt lat="43.3685533" lon="11.797845"><ele>262.59999999999997</ele><time>2026-04-16T15:09:16.992Z</time></trkpt><trkpt lat="43.3684883" lon="11.797965"><ele>260.8</ele><time>2026-04-16T15:09:17.99Z</time></trkpt><trkpt lat="43.3684217" lon="11.7980983"><ele>259.0</ele><time>2026-04-16T15:09:18.989Z</time></trkpt><trkpt lat="43.3683567" lon="11.7982317"><ele>259.0</ele><time>2026-04-16T15:09:19.989Z</time></trkpt><trkpt lat="43.368285" lon="11.79836"><ele>259.0</ele><time>2026-04-16T15:09:20.992Z</time></trkpt><trkpt lat="43.3681967" lon="11.7984783"><ele>259.0</ele><time>2026-04-16T15:09:21.993Z</time></trkpt><trkpt lat="43.3681" lon="11.7985683"><ele>259.0</ele><time>2026-04-16T15:09:22.989Z</time></trkpt><trkpt lat="43.367995" lon="11.7986533"><ele>257.75</ele><time>2026-04-16T15:09:23.992Z</time></trkpt><trkpt lat="43.3678883" lon="11.7987217"><ele>256.5</ele><time>2026-04-16T15:09:24.996Z</time></trkpt><trkpt lat="43.36778" lon="11.798775"><ele>255.25</ele><time>2026-04-16T15:09:25.991Z</time></trkpt><trkpt lat="43.367675" lon="11.7988233"><ele>254.0</ele><time>2026-04-16T15:09:26.99Z</time></trkpt><trkpt lat="43.3675683" lon="11.798875"><ele>254.0</ele><time>2026-04-16T15:09:27.989Z</time></trkpt><trkpt lat="43.3674767" lon="11.7989433"><ele>253.99999999999997</ele><time>2026-04-16T15:09:28.988Z</time></trkpt><trkpt lat="43.3674017" lon="11.7990333"><ele>253.99999999999997</ele><time>2026-04-16T15:09:29.991Z</time></trkpt><trkpt lat="43.3673467" lon="11.79915"><ele>254.0</ele><time>2026-04-16T15:09:30.99Z</time></trkpt><trkpt lat="43.36732" lon="11.79928"><ele>254.0</ele><time>2026-04-16T15:09:31.992Z</time></trkpt><trkpt lat="43.367315" lon="11.79941"><ele>254.33333333333334</ele><time>2026-04-16T15:09:32.99Z</time></trkpt><trkpt lat="43.3673267" lon="11.7995383"><ele>254.66666666666669</ele><time>2026-04-16T15:09:33.994Z</time></trkpt><trkpt lat="43.3673433" lon="11.7996583"><ele>255.0</ele><time>2026-04-16T15:09:34.991Z</time></trkpt><trkpt lat="43.3673617" lon="11.7997767"><ele>255.33333333333331</ele><time>2026-04-16T15:09:35.992Z</time></trkpt><trkpt lat="43.3673733" lon="11.7998917"><ele>255.66666666666666</ele><time>2026-04-16T15:09:36.994Z</time></trkpt><trkpt lat="43.3673833" lon="11.8000033"><ele>256.0</ele><time>2026-04-16T15:09:37.994Z</time></trkpt><trkpt lat="43.3673883" lon="11.8001117"><ele>255.83333333333331</ele><time>2026-04-16T15:09:38.997Z</time></trkpt><trkpt lat="43.367395" lon="11.8002217"><ele>255.66666666666666</ele><time>2026-04-16T15:09:39.989Z</time></trkpt><trkpt lat="43.3674" lon="11.8003333"><ele>255.5</ele><time>2026-04-16T15:09:40.988Z</time></trkpt><trkpt lat="43.3674017" lon="11.8004383"><ele>255.33333333333331</ele><time>2026-04-16T15:09:41.991Z</time></trkpt><trkpt lat="43.3674067" lon="11.800545"><ele>255.16666666666666</ele><time>2026-04-16T15:09:42.989Z</time></trkpt><trkpt lat="43.3674117" lon="11.8006467"><ele>255.0</ele><time>2026-04-16T15:09:43.994Z</time></trkpt><trkpt lat="43.367415" lon="11.800745"><ele>255.0</ele><time>2026-04-16T15:09:44.993Z</time></trkpt><trkpt lat="43.367415" lon="11.800845"><ele>255.00000000000003</ele><time>2026-04-16T15:09:45.989Z</time></trkpt><trkpt lat="43.367415" lon="11.8009433"><ele>255.0</ele><time>2026-04-16T15:09:46.99Z</time></trkpt><trkpt lat="43.3674167" lon="11.8010417"><ele>255.0</ele><time>2026-04-16T15:09:47.992Z</time></trkpt><trkpt lat="43.3674167" lon="11.8011367"><ele>255.00000000000003</ele><time>2026-04-16T15:09:48.991Z</time></trkpt><trkpt lat="43.3674183" lon="11.8012317"><ele>255.0</ele><time>2026-04-16T15:09:49.994Z</time></trkpt><trkpt lat="43.3674183" lon="11.801325"><ele>255.0</ele><time>2026-04-16T15:09:50.99Z</time></trkpt><trkpt lat="43.3674183" lon="11.801415"><ele>254.85714285714286</ele><time>2026-04-16T15:09:51.994Z</time></trkpt><trkpt lat="43.3674167" lon="11.8015067"><ele>254.71428571428572</ele><time>2026-04-16T15:09:52.993Z</time></trkpt><trkpt lat="43.3674167" lon="11.8016"><ele>254.57142857142858</ele><time>2026-04-16T15:09:53.993Z</time></trkpt><trkpt lat="43.3674117" lon="11.8016917"><ele>254.42857142857144</ele><time>2026-04-16T15:09:54.991Z</time></trkpt><trkpt lat="43.367405" lon="11.801785"><ele>254.28571428571428</ele><time>2026-04-16T15:09:55.997Z</time></trkpt><trkpt lat="43.3673917" lon="11.8018767"><ele>254.14285714285717</ele><time>2026-04-16T15:09:56.993Z</time></trkpt><trkpt lat="43.367375" lon="11.8019633"><ele>254.0</ele><time>2026-04-16T15:09:57.99Z</time></trkpt><trkpt lat="43.3673517" lon="11.802045"><ele>254.42857142857144</ele><time>2026-04-16T15:09:58.992Z</time></trkpt><trkpt lat="43.3673233" lon="11.8021267"><ele>254.85714285714283</ele><time>2026-04-16T15:09:59.991Z</time></trkpt><trkpt lat="43.3672917" lon="11.802205"><ele>255.28571428571428</ele><time>2026-04-16T15:10:00.993Z</time></trkpt><trkpt lat="43.3672567" lon="11.8022817"><ele>255.71428571428572</ele><time>2026-04-16T15:10:01.991Z</time></trkpt><trkpt lat="43.36722" lon="11.8023567"><ele>256.14285714285717</ele><time>2026-04-16T15:10:02.994Z</time></trkpt><trkpt lat="43.36718" lon="11.8024317"><ele>256.57142857142856</ele><time>2026-04-16T15:10:03.992Z</time></trkpt><trkpt lat="43.36714" lon="11.8025083"><ele>257.0</ele><time>2026-04-16T15:10:04.991Z</time></trkpt><trkpt lat="43.3671033" lon="11.8025883"><ele>256.57142857142856</ele><time>2026-04-16T15:10:05.992Z</time></trkpt><trkpt lat="43.367065" lon="11.8026667"><ele>256.14285714285717</ele><time>2026-04-16T15:10:06.993Z</time></trkpt><trkpt lat="43.3670267" lon="11.8027433"><ele>255.71428571428572</ele><time>2026-04-16T15:10:07.99Z</time></trkpt><trkpt lat="43.366985" lon="11.8028217"><ele>255.28571428571428</ele><time>2026-04-16T15:10:08.996Z</time></trkpt><trkpt lat="43.36695" lon="11.8028983"><ele>254.85714285714283</ele><time>2026-04-16T15:10:09.992Z</time></trkpt><trkpt lat="43.3669133" lon="11.8029783"><ele>254.42857142857144</ele><time>2026-04-16T15:10:10.991Z</time></trkpt><trkpt lat="43.36688" lon="11.8030633"><ele>254.0</ele><time>2026-04-16T15:10:11.99Z</time></trkpt><trkpt lat="43.3668467" lon="11.8031467"><ele>254.0</ele><time>2026-04-16T15:10:12.994Z</time></trkpt><trkpt lat="43.3668167" lon="11.8032267"><ele>254.0</ele><time>2026-04-16T15:10:13.992Z</time></trkpt><trkpt lat="43.36679" lon="11.80331"><ele>254.0</ele><time>2026-04-16T15:10:14.993Z</time></trkpt><trkpt lat="43.36677" lon="11.8033933"><ele>254.0</ele><time>2026-04-16T15:10:15.99Z</time></trkpt><trkpt lat="43.366755" lon="11.8034783"><ele>254.0</ele><time>2026-04-16T15:10:16.99Z</time></trkpt><trkpt lat="43.3667417" lon="11.80357"><ele>254.0</ele><time>2026-04-16T15:10:17.989Z</time></trkpt><trkpt lat="43.366735" lon="11.8036633"><ele>254.0</ele><time>2026-04-16T15:10:18.993Z</time></trkpt><trkpt lat="43.3667333" lon="11.8037533"><ele>253.85714285714286</ele><time>2026-04-16T15:10:19.992Z</time></trkpt><trkpt lat="43.366735" lon="11.8038467"><ele>253.71428571428572</ele><time>2026-04-16T15:10:20.995Z</time></trkpt><trkpt lat="43.3667367" lon="11.8039433"><ele>253.57142857142858</ele><time>2026-04-16T15:10:21.99Z</time></trkpt><trkpt lat="43.3667383" lon="11.8040417"><ele>253.42857142857144</ele><time>2026-04-16T15:10:22.99Z</time></trkpt><trkpt lat="43.366735" lon="11.8041383"><ele>253.28571428571428</ele><time>2026-04-16T15:10:23.992Z</time></trkpt><trkpt lat="43.3667333" lon="11.80423"><ele>253.14285714285717</ele><time>2026-04-16T15:10:24.989Z</time></trkpt><trkpt lat="43.3667233" lon="11.80432"><ele>253.00000000000003</ele><time>2026-04-16T15:10:25.992Z</time></trkpt><trkpt lat="43.3666933" lon="11.8044033"><ele>252.83333333333331</ele><time>2026-04-16T15:10:26.995Z</time></trkpt><trkpt lat="43.36666" lon="11.804485"><ele>252.66666666666666</ele><time>2026-04-16T15:10:27.99Z</time></trkpt><trkpt lat="43.36663" lon="11.8045717"><ele>252.5</ele><time>2026-04-16T15:10:28.99Z</time></trkpt><trkpt lat="43.3666067" lon="11.8046583"><ele>252.33333333333331</ele><time>2026-04-16T15:10:29.994Z</time></trkpt><trkpt lat="43.3665883" lon="11.8047433"><ele>252.16666666666666</ele><time>2026-04-16T15:10:30.994Z</time></trkpt><trkpt lat="43.3665733" lon="11.8048283"><ele>252.0</ele><time>2026-04-16T15:10:31.991Z</time></trkpt><trkpt lat="43.3665633" lon="11.804995"><ele>252.0</ele><time>2026-04-16T15:10:33.99Z</time></trkpt><trkpt lat="43.36656" lon="11.8050817"><ele>252.0</ele><time>2026-04-16T15:10:34.993Z</time></trkpt><trkpt lat="43.3665567" lon="11.80517"><ele>252.0</ele><time>2026-04-16T15:10:35.993Z</time></trkpt><trkpt lat="43.366555" lon="11.8052617"><ele>252.0</ele><time>2026-04-16T15:10:36.997Z</time></trkpt><trkpt lat="43.3665517" lon="11.80535"><ele>252.0</ele><time>2026-04-16T15:10:37.995Z</time></trkpt><trkpt lat="43.3665467" lon="11.8055233"><ele>252.0</ele><time>2026-04-16T15:10:39.99Z</time></trkpt><trkpt lat="43.3665417" lon="11.8056933"><ele>252.0</ele><time>2026-04-16T15:10:41.989Z</time></trkpt><trkpt lat="43.3665417" lon="11.80578"><ele>252.0</ele><time>2026-04-16T15:10:42.993Z</time></trkpt><trkpt lat="43.3665433" lon="11.80595"><ele>252.0</ele><time>2026-04-16T15:10:44.993Z</time></trkpt><trkpt lat="43.3665483" lon="11.80604"><ele>252.0</ele><time>2026-04-16T15:10:45.991Z</time></trkpt><trkpt lat="43.3665567" lon="11.8062033"><ele>252.0</ele><time>2026-04-16T15:10:47.989Z</time></trkpt><trkpt lat="43.3665633" lon="11.8063567"><ele>252.0</ele><time>2026-04-16T15:10:49.99Z</time></trkpt><trkpt lat="43.3665783" lon="11.8065033"><ele>252.0</ele><time>2026-04-16T15:10:51.992Z</time></trkpt><trkpt lat="43.36659" lon="11.806645"><ele>252.0</ele><time>2026-04-16T15:10:53.991Z</time></trkpt><trkpt lat="43.3665983" lon="11.8067767"><ele>252.0</ele><time>2026-04-16T15:10:55.993Z</time></trkpt><trkpt lat="43.3666067" lon="11.8069133"><ele>252.0</ele><time>2026-04-16T15:10:57.992Z</time></trkpt><trkpt lat="43.3665967" lon="11.8070333"><ele>251.83333333333334</ele><time>2026-04-16T15:10:59.992Z</time></trkpt><trkpt lat="43.366585" lon="11.8071583"><ele>251.66666666666669</ele><time>2026-04-16T15:11:01.992Z</time></trkpt><trkpt lat="43.3665517" lon="11.807275"><ele>251.5</ele><time>2026-04-16T15:11:03.989Z</time></trkpt><trkpt lat="43.36649" lon="11.8073383"><ele>251.33333333333334</ele><time>2026-04-16T15:11:05.993Z</time></trkpt><trkpt lat="43.3664183" lon="11.8073283"><ele>251.16666666666669</ele><time>2026-04-16T15:11:06.991Z</time></trkpt><trkpt lat="43.36632" lon="11.8073083"><ele>251.0</ele><time>2026-04-16T15:11:08.992Z</time></trkpt><trkpt lat="43.366205" lon="11.8072817"><ele>251.0</ele><time>2026-04-16T15:11:10.994Z</time></trkpt><trkpt lat="43.3660917" lon="11.8072583"><ele>251.00000000000003</ele><time>2026-04-16T15:11:12.992Z</time></trkpt><trkpt lat="43.36599" lon="11.80724"><ele>251.00000000000003</ele><time>2026-04-16T15:11:14.993Z</time></trkpt><trkpt lat="43.36589" lon="11.8072117"><ele>251.0</ele><time>2026-04-16T15:11:16.994Z</time></trkpt><trkpt lat="43.3657933" lon="11.8072017"><ele>251.0</ele><time>2026-04-16T15:11:18.991Z</time></trkpt><trkpt lat="43.3656833" lon="11.8071783"><ele>251.0</ele><time>2026-04-16T15:11:20.993Z</time></trkpt><trkpt lat="43.3655667" lon="11.8071517"><ele>251.0</ele><time>2026-04-16T15:11:22.993Z</time></trkpt><trkpt lat="43.36545" lon="11.807125"><ele>251.0</ele><time>2026-04-16T15:11:24.991Z</time></trkpt><trkpt lat="43.3653167" lon="11.807095"><ele>251.0</ele><time>2026-04-16T15:11:26.993Z</time></trkpt><trkpt lat="43.3651933" lon="11.8070717"><ele>251.0</ele><time>2026-04-16T15:11:28.993Z</time></trkpt><trkpt lat="43.3650917" lon="11.8070483"><ele>251.00000000000003</ele><time>2026-04-16T15:11:30.991Z</time></trkpt><trkpt lat="43.3649817" lon="11.8070333"><ele>251.00000000000003</ele><time>2026-04-16T15:11:32.992Z</time></trkpt><trkpt lat="43.3648683" lon="11.80702"><ele>251.0</ele><time>2026-04-16T15:11:34.992Z</time></trkpt><trkpt lat="43.3647683" lon="11.8070083"><ele>251.0</ele><time>2026-04-16T15:11:36.995Z</time></trkpt><trkpt lat="43.3646617" lon="11.80699"><ele>251.0</ele><time>2026-04-16T15:11:38.992Z</time></trkpt><trkpt lat="43.36456" lon="11.8069833"><ele>251.00000000000003</ele><time>2026-04-16T15:11:40.993Z</time></trkpt><trkpt lat="43.36445" lon="11.8069833"><ele>251.00000000000003</ele><time>2026-04-16T15:11:42.99Z</time></trkpt><trkpt lat="43.3643417" lon="11.8069917"><ele>251.0</ele><time>2026-04-16T15:11:44.996Z</time></trkpt><trkpt lat="43.3642333" lon="11.807"><ele>251.0</ele><time>2026-04-16T15:11:46.994Z</time></trkpt><trkpt lat="43.3641233" lon="11.8070167"><ele>251.0</ele><time>2026-04-16T15:11:48.991Z</time></trkpt><trkpt lat="43.3640083" lon="11.8070367"><ele>251.0</ele><time>2026-04-16T15:11:50.996Z</time></trkpt><trkpt lat="43.3638983" lon="11.80706"><ele>251.0</ele><time>2026-04-16T15:11:52.989Z</time></trkpt><trkpt lat="43.3637833" lon="11.80707"><ele>251.0</ele><time>2026-04-16T15:11:54.994Z</time></trkpt><trkpt lat="43.363665" lon="11.8070933"><ele>250.60000000000002</ele><time>2026-04-16T15:11:56.992Z</time></trkpt><trkpt lat="43.3635483" lon="11.8071067"><ele>250.20000000000002</ele><time>2026-04-16T15:11:58.994Z</time></trkpt><trkpt lat="43.3634283" lon="11.807125"><ele>249.79999999999998</ele><time>2026-04-16T15:12:00.991Z</time></trkpt><trkpt lat="43.363365" lon="11.8071333"><ele>249.39999999999998</ele><time>2026-04-16T15:12:01.991Z</time></trkpt><trkpt lat="43.3633017" lon="11.8071367"><ele>249.0</ele><time>2026-04-16T15:12:02.994Z</time></trkpt><trkpt lat="43.3631783" lon="11.8071567"><ele>249.0</ele><time>2026-04-16T15:12:04.991Z</time></trkpt><trkpt lat="43.3630617" lon="11.8071683"><ele>248.99999999999997</ele><time>2026-04-16T15:12:06.994Z</time></trkpt><trkpt lat="43.36294" lon="11.80719"><ele>248.99999999999997</ele><time>2026-04-16T15:12:08.996Z</time></trkpt><trkpt lat="43.3628717" lon="11.8071983"><ele>249.0</ele><time>2026-04-16T15:12:09.994Z</time></trkpt><trkpt lat="43.3628067" lon="11.8072083"><ele>249.0</ele><time>2026-04-16T15:12:10.99Z</time></trkpt><trkpt lat="43.3626883" lon="11.8072267"><ele>248.75</ele><time>2026-04-16T15:12:12.995Z</time></trkpt><trkpt lat="43.362575" lon="11.8072417"><ele>248.5</ele><time>2026-04-16T15:12:14.991Z</time></trkpt><trkpt lat="43.362455" lon="11.807255"><ele>248.25</ele><time>2026-04-16T15:12:16.993Z</time></trkpt><trkpt lat="43.3623383" lon="11.8072717"><ele>248.0</ele><time>2026-04-16T15:12:18.993Z</time></trkpt><trkpt lat="43.3622217" lon="11.80728"><ele>248.4</ele><time>2026-04-16T15:12:20.993Z</time></trkpt><trkpt lat="43.362115" lon="11.807295"><ele>248.8</ele><time>2026-04-16T15:12:22.989Z</time></trkpt><trkpt lat="43.36201" lon="11.807305"><ele>249.2</ele><time>2026-04-16T15:12:24.994Z</time></trkpt><trkpt lat="43.3619383" lon="11.80731"><ele>249.6</ele><time>2026-04-16T15:12:26.991Z</time></trkpt><trkpt lat="43.361785" lon="11.8073617"><ele>250.0</ele><time>2026-04-16T15:12:57.991Z</time></trkpt><trkpt lat="43.3617183" lon="11.8074117"><ele>249.99999999999997</ele><time>2026-04-16T15:13:00.991Z</time></trkpt><trkpt lat="43.3616583" lon="11.8074667"><ele>250.0</ele><time>2026-04-16T15:13:02.992Z</time></trkpt><trkpt lat="43.36158" lon="11.8075"><ele>250.0</ele><time>2026-04-16T15:13:04.991Z</time></trkpt><trkpt lat="43.361495" lon="11.8075217"><ele>250.0</ele><time>2026-04-16T15:13:06.989Z</time></trkpt><trkpt lat="43.3613933" lon="11.807535"><ele>249.99999999999997</ele><time>2026-04-16T15:13:08.993Z</time></trkpt><trkpt lat="43.3613" lon="11.8075433"><ele>250.0</ele><time>2026-04-16T15:13:10.991Z</time></trkpt><trkpt lat="43.3612017" lon="11.8075517"><ele>249.4</ele><time>2026-04-16T15:13:12.994Z</time></trkpt><trkpt lat="43.3611083" lon="11.8075617"><ele>248.8</ele><time>2026-04-16T15:13:14.992Z</time></trkpt><trkpt lat="43.3610167" lon="11.807575"><ele>248.2</ele><time>2026-04-16T15:13:16.993Z</time></trkpt><trkpt lat="43.3609117" lon="11.8075833"><ele>247.6</ele><time>2026-04-16T15:13:18.993Z</time></trkpt><trkpt lat="43.3608067" lon="11.8075917"><ele>247.0</ele><time>2026-04-16T15:13:20.99Z</time></trkpt><trkpt lat="43.3607067" lon="11.8076033"><ele>247.0</ele><time>2026-04-16T15:13:22.991Z</time></trkpt><trkpt lat="43.3606267" lon="11.8076617"><ele>247.0</ele><time>2026-04-16T15:13:24.989Z</time></trkpt><trkpt lat="43.3606133" lon="11.8077767"><ele>247.0</ele><time>2026-04-16T15:13:26.991Z</time></trkpt><trkpt lat="43.3606333" lon="11.8078983"><ele>247.0</ele><time>2026-04-16T15:13:28.994Z</time></trkpt><trkpt lat="43.3606467" lon="11.8080283"><ele>247.0</ele><time>2026-04-16T15:13:30.995Z</time></trkpt><trkpt lat="43.3606617" lon="11.8081567"><ele>247.0</ele><time>2026-04-16T15:13:32.994Z</time></trkpt><trkpt lat="43.3606783" lon="11.80829"><ele>247.0</ele><time>2026-04-16T15:13:34.993Z</time></trkpt><trkpt lat="43.3607017" lon="11.80843"><ele>247.0</ele><time>2026-04-16T15:13:36.995Z</time></trkpt><trkpt lat="43.3607167" lon="11.80856"><ele>247.0</ele><time>2026-04-16T15:13:38.991Z</time></trkpt><trkpt lat="43.36074" lon="11.80876"><ele>247.0</ele><time>2026-04-16T15:13:41.993Z</time></trkpt><trkpt lat="43.360755" lon="11.8088917"><ele>246.8</ele><time>2026-04-16T15:13:43.993Z</time></trkpt><trkpt lat="43.3607733" lon="11.80902"><ele>246.6</ele><time>2026-04-16T15:13:45.992Z</time></trkpt><trkpt lat="43.3607883" lon="11.8091433"><ele>246.40000000000003</ele><time>2026-04-16T15:13:47.997Z</time></trkpt><trkpt lat="43.3608167" lon="11.8092733"><ele>246.20000000000002</ele><time>2026-04-16T15:13:49.994Z</time></trkpt><trkpt lat="43.3608367" lon="11.8093983"><ele>246.0</ele><time>2026-04-16T15:13:51.991Z</time></trkpt><trkpt lat="43.3608583" lon="11.8095367"><ele>246.0</ele><time>2026-04-16T15:13:53.992Z</time></trkpt><trkpt lat="43.36087" lon="11.809675"><ele>246.00000000000003</ele><time>2026-04-16T15:13:55.994Z</time></trkpt><trkpt lat="43.36089" lon="11.8098083"><ele>246.00000000000003</ele><time>2026-04-16T15:13:57.996Z</time></trkpt><trkpt lat="43.3609067" lon="11.8099433"><ele>246.0</ele><time>2026-04-16T15:13:59.99Z</time></trkpt><trkpt lat="43.3609267" lon="11.8100733"><ele>246.0</ele><time>2026-04-16T15:14:01.994Z</time></trkpt><trkpt lat="43.3609517" lon="11.81021"><ele>245.8</ele><time>2026-04-16T15:14:03.994Z</time></trkpt><trkpt lat="43.36098" lon="11.81034"><ele>245.60000000000002</ele><time>2026-04-16T15:14:05.996Z</time></trkpt><trkpt lat="43.361" lon="11.810465"><ele>245.4</ele><time>2026-04-16T15:14:07.993Z</time></trkpt><trkpt lat="43.3610217" lon="11.8105867"><ele>245.2</ele><time>2026-04-16T15:14:09.993Z</time></trkpt><trkpt lat="43.3610433" lon="11.8107167"><ele>245.0</ele><time>2026-04-16T15:14:11.99Z</time></trkpt><trkpt lat="43.3610567" lon="11.8108433"><ele>245.0</ele><time>2026-04-16T15:14:13.992Z</time></trkpt><trkpt lat="43.36107" lon="11.8109733"><ele>245.0</ele><time>2026-04-16T15:14:15.99Z</time></trkpt><trkpt lat="43.3610867" lon="11.8110967"><ele>245.0</ele><time>2026-04-16T15:14:17.992Z</time></trkpt><trkpt lat="43.3611083" lon="11.8112183"><ele>245.0</ele><time>2026-04-16T15:14:19.993Z</time></trkpt><trkpt lat="43.3611317" lon="11.8113367"><ele>245.0</ele><time>2026-04-16T15:14:21.991Z</time></trkpt><trkpt lat="43.3611517" lon="11.8114817"><ele>245.2</ele><time>2026-04-16T15:14:23.994Z</time></trkpt><trkpt lat="43.3611633" lon="11.8115967"><ele>245.4</ele><time>2026-04-16T15:14:25.992Z</time></trkpt><trkpt lat="43.361185" lon="11.8117167"><ele>245.60000000000002</ele><time>2026-04-16T15:14:27.99Z</time></trkpt><trkpt lat="43.3612017" lon="11.8118433"><ele>245.8</ele><time>2026-04-16T15:14:29.991Z</time></trkpt><trkpt lat="43.3612183" lon="11.8119667"><ele>246.0</ele><time>2026-04-16T15:14:31.995Z</time></trkpt><trkpt lat="43.3612317" lon="11.8120933"><ele>246.0</ele><time>2026-04-16T15:14:33.99Z</time></trkpt><trkpt lat="43.361245" lon="11.8122133"><ele>246.00000000000003</ele><time>2026-04-16T15:14:35.992Z</time></trkpt><trkpt lat="43.3612567" lon="11.8123433"><ele>246.00000000000003</ele><time>2026-04-16T15:14:37.993Z</time></trkpt><trkpt lat="43.36127" lon="11.8124733"><ele>246.0</ele><time>2026-04-16T15:14:39.993Z</time></trkpt><trkpt lat="43.3612767" lon="11.8125967"><ele>246.0</ele><time>2026-04-16T15:14:41.994Z</time></trkpt><trkpt lat="43.36129" lon="11.8127317"><ele>245.60000000000002</ele><time>2026-04-16T15:14:43.993Z</time></trkpt><trkpt lat="43.36131" lon="11.8128633"><ele>245.20000000000002</ele><time>2026-04-16T15:14:45.99Z</time></trkpt><trkpt lat="43.361335" lon="11.8129967"><ele>244.79999999999998</ele><time>2026-04-16T15:14:47.993Z</time></trkpt><trkpt lat="43.361355" lon="11.8131283"><ele>244.39999999999998</ele><time>2026-04-16T15:14:49.991Z</time></trkpt><trkpt lat="43.3613733" lon="11.81326"><ele>244.0</ele><time>2026-04-16T15:14:51.992Z</time></trkpt><trkpt lat="43.3613917" lon="11.81339"><ele>244.0</ele><time>2026-04-16T15:14:53.991Z</time></trkpt><trkpt lat="43.36141" lon="11.81352"><ele>243.99999999999997</ele><time>2026-04-16T15:14:55.988Z</time></trkpt><trkpt lat="43.36143" lon="11.8136533"><ele>243.99999999999997</ele><time>2026-04-16T15:14:57.988Z</time></trkpt><trkpt lat="43.361445" lon="11.8137917"><ele>244.0</ele><time>2026-04-16T15:14:59.988Z</time></trkpt><trkpt lat="43.361465" lon="11.813935"><ele>244.0</ele><time>2026-04-16T15:15:01.987Z</time></trkpt><trkpt lat="43.36149" lon="11.8140733"><ele>244.0</ele><time>2026-04-16T15:15:03.992Z</time></trkpt><trkpt lat="43.3615117" lon="11.81422"><ele>243.99999999999997</ele><time>2026-04-16T15:15:05.992Z</time></trkpt><trkpt lat="43.3615317" lon="11.8143617"><ele>243.99999999999997</ele><time>2026-04-16T15:15:07.989Z</time></trkpt><trkpt lat="43.3615483" lon="11.81449"><ele>244.0</ele><time>2026-04-16T15:15:09.992Z</time></trkpt><trkpt lat="43.361565" lon="11.81461"><ele>244.0</ele><time>2026-04-16T15:15:11.989Z</time></trkpt><trkpt lat="43.36158" lon="11.8147233"><ele>244.16666666666666</ele><time>2026-04-16T15:15:13.99Z</time></trkpt><trkpt lat="43.3615883" lon="11.814815"><ele>244.33333333333331</ele><time>2026-04-16T15:15:15.992Z</time></trkpt><trkpt lat="43.3616317" lon="11.81489"><ele>244.5</ele><time>2026-04-16T15:15:19.995Z</time></trkpt><trkpt lat="43.36164" lon="11.8149983"><ele>244.66666666666669</ele><time>2026-04-16T15:15:24.991Z</time></trkpt><trkpt lat="43.3616333" lon="11.81509"><ele>244.83333333333334</ele><time>2026-04-16T15:15:27.995Z</time></trkpt><trkpt lat="43.361645" lon="11.8152083"><ele>245.0</ele><time>2026-04-16T15:15:30.99Z</time></trkpt><trkpt lat="43.3616683" lon="11.8153333"><ele>245.0</ele><time>2026-04-16T15:15:33.991Z</time></trkpt><trkpt lat="43.361685" lon="11.8154267"><ele>245.0</ele><time>2026-04-16T15:15:35.991Z</time></trkpt><trkpt lat="43.3617" lon="11.8155567"><ele>245.0</ele><time>2026-04-16T15:15:38.994Z</time></trkpt><trkpt lat="43.3617117" lon="11.815645"><ele>245.0</ele><time>2026-04-16T15:15:40.99Z</time></trkpt><trkpt lat="43.3617183" lon="11.81574"><ele>245.0</ele><time>2026-04-16T15:15:42.995Z</time></trkpt><trkpt lat="43.361725" lon="11.8158317"><ele>245.0</ele><time>2026-04-16T15:15:44.993Z</time></trkpt><trkpt lat="43.3617417" lon="11.81594"><ele>245.0</ele><time>2026-04-16T15:15:46.994Z</time></trkpt><trkpt lat="43.3617517" lon="11.816055"><ele>244.83333333333334</ele><time>2026-04-16T15:15:48.991Z</time></trkpt><trkpt lat="43.3617617" lon="11.8161717"><ele>244.66666666666669</ele><time>2026-04-16T15:15:50.992Z</time></trkpt><trkpt lat="43.3617733" lon="11.81629"><ele>244.5</ele><time>2026-04-16T15:15:52.991Z</time></trkpt><trkpt lat="43.3618083" lon="11.8163983"><ele>244.33333333333331</ele><time>2026-04-16T15:15:54.991Z</time></trkpt><trkpt lat="43.3618233" lon="11.816515"><ele>244.16666666666666</ele><time>2026-04-16T15:15:56.993Z</time></trkpt><trkpt lat="43.3618367" lon="11.816635"><ele>244.0</ele><time>2026-04-16T15:15:58.99Z</time></trkpt><trkpt lat="43.361855" lon="11.8167367"><ele>243.83333333333331</ele><time>2026-04-16T15:16:00.991Z</time></trkpt><trkpt lat="43.3618733" lon="11.8168417"><ele>243.66666666666666</ele><time>2026-04-16T15:16:02.993Z</time></trkpt><trkpt lat="43.361885" lon="11.816945"><ele>243.5</ele><time>2026-04-16T15:16:04.993Z</time></trkpt><trkpt lat="43.3618917" lon="11.8170633"><ele>243.33333333333331</ele><time>2026-04-16T15:16:06.993Z</time></trkpt><trkpt lat="43.3619" lon="11.8171783"><ele>243.16666666666666</ele><time>2026-04-16T15:16:08.991Z</time></trkpt><trkpt lat="43.3619167" lon="11.8172867"><ele>243.0</ele><time>2026-04-16T15:16:10.993Z</time></trkpt><trkpt lat="43.3619317" lon="11.8173983"><ele>243.0</ele><time>2026-04-16T15:16:12.993Z</time></trkpt><trkpt lat="43.3619567" lon="11.8175083"><ele>243.0</ele><time>2026-04-16T15:16:14.992Z</time></trkpt><trkpt lat="43.36197" lon="11.8176183"><ele>243.0</ele><time>2026-04-16T15:16:16.989Z</time></trkpt><trkpt lat="43.361985" lon="11.817735"><ele>243.0</ele><time>2026-04-16T15:16:18.995Z</time></trkpt><trkpt lat="43.3619967" lon="11.8178483"><ele>243.0</ele><time>2026-04-16T15:16:20.992Z</time></trkpt><trkpt lat="43.3620083" lon="11.8179633"><ele>243.0</ele><time>2026-04-16T15:16:22.991Z</time></trkpt><trkpt lat="43.36202" lon="11.8180733"><ele>243.33333333333334</ele><time>2026-04-16T15:16:24.993Z</time></trkpt><trkpt lat="43.3620467" lon="11.8181817"><ele>243.66666666666669</ele><time>2026-04-16T15:16:26.992Z</time></trkpt><trkpt lat="43.3620683" lon="11.8182967"><ele>244.0</ele><time>2026-04-16T15:16:28.996Z</time></trkpt><trkpt lat="43.362085" lon="11.8184167"><ele>244.33333333333334</ele><time>2026-04-16T15:16:30.993Z</time></trkpt><trkpt lat="43.3621033" lon="11.8185383"><ele>244.66666666666669</ele><time>2026-04-16T15:16:32.991Z</time></trkpt><trkpt lat="43.362125" lon="11.81866"><ele>245.0</ele><time>2026-04-16T15:16:34.993Z</time></trkpt><trkpt lat="43.362145" lon="11.818775"><ele>245.00000000000003</ele><time>2026-04-16T15:16:36.992Z</time></trkpt><trkpt lat="43.362165" lon="11.8188983"><ele>245.0</ele><time>2026-04-16T15:16:38.991Z</time></trkpt><trkpt lat="43.3621817" lon="11.8190133"><ele>245.0</ele><time>2026-04-16T15:16:40.991Z</time></trkpt><trkpt lat="43.3621967" lon="11.8191183"><ele>245.0</ele><time>2026-04-16T15:16:42.994Z</time></trkpt><trkpt lat="43.3622033" lon="11.819225"><ele>245.00000000000003</ele><time>2026-04-16T15:16:44.993Z</time></trkpt><trkpt lat="43.36222" lon="11.8193367"><ele>245.0</ele><time>2026-04-16T15:16:46.996Z</time></trkpt><trkpt lat="43.362235" lon="11.8194517"><ele>244.66666666666669</ele><time>2026-04-16T15:16:48.992Z</time></trkpt><trkpt lat="43.3622533" lon="11.8195667"><ele>244.33333333333334</ele><time>2026-04-16T15:16:50.993Z</time></trkpt><trkpt lat="43.362265" lon="11.81968"><ele>244.0</ele><time>2026-04-16T15:16:52.994Z</time></trkpt><trkpt lat="43.3622783" lon="11.8197767"><ele>243.66666666666669</ele><time>2026-04-16T15:16:54.992Z</time></trkpt><trkpt lat="43.3622883" lon="11.8198783"><ele>243.33333333333334</ele><time>2026-04-16T15:16:56.995Z</time></trkpt><trkpt lat="43.3623" lon="11.8199867"><ele>243.0</ele><time>2026-04-16T15:16:58.993Z</time></trkpt><trkpt lat="43.3623117" lon="11.8201017"><ele>242.83333333333334</ele><time>2026-04-16T15:17:00.991Z</time></trkpt><trkpt lat="43.3623267" lon="11.8202217"><ele>242.66666666666669</ele><time>2026-04-16T15:17:02.993Z</time></trkpt><trkpt lat="43.362335" lon="11.8203367"><ele>242.5</ele><time>2026-04-16T15:17:04.99Z</time></trkpt><trkpt lat="43.36235" lon="11.8204517"><ele>242.33333333333334</ele><time>2026-04-16T15:17:06.992Z</time></trkpt><trkpt lat="43.3623683" lon="11.8205583"><ele>242.16666666666669</ele><time>2026-04-16T15:17:08.996Z</time></trkpt><trkpt lat="43.3623783" lon="11.8206683"><ele>242.0</ele><time>2026-04-16T15:17:10.991Z</time></trkpt><trkpt lat="43.36239" lon="11.8207767"><ele>242.00000000000003</ele><time>2026-04-16T15:17:12.992Z</time></trkpt><trkpt lat="43.3624083" lon="11.820885"><ele>242.0</ele><time>2026-04-16T15:17:14.994Z</time></trkpt><trkpt lat="43.3624233" lon="11.8209933"><ele>242.0</ele><time>2026-04-16T15:17:16.993Z</time></trkpt><trkpt lat="43.3624367" lon="11.8211017"><ele>242.0</ele><time>2026-04-16T15:17:18.992Z</time></trkpt><trkpt lat="43.36245" lon="11.8212117"><ele>242.00000000000003</ele><time>2026-04-16T15:17:20.999Z</time></trkpt><trkpt lat="43.3624667" lon="11.8213183"><ele>242.0</ele><time>2026-04-16T15:17:22.993Z</time></trkpt><trkpt lat="43.36248" lon="11.8214283"><ele>242.00000000000003</ele><time>2026-04-16T15:17:24.993Z</time></trkpt><trkpt lat="43.362495" lon="11.8215383"><ele>242.0</ele><time>2026-04-16T15:17:26.991Z</time></trkpt><trkpt lat="43.3625067" lon="11.8216517"><ele>242.0</ele><time>2026-04-16T15:17:28.99Z</time></trkpt><trkpt lat="43.3625267" lon="11.8217683"><ele>242.0</ele><time>2026-04-16T15:17:30.997Z</time></trkpt><trkpt lat="43.3625483" lon="11.8218817"><ele>242.00000000000003</ele><time>2026-04-16T15:17:32.991Z</time></trkpt><trkpt lat="43.3625633" lon="11.8219917"><ele>242.0</ele><time>2026-04-16T15:17:34.992Z</time></trkpt><trkpt lat="43.362575" lon="11.822105"><ele>242.16666666666669</ele><time>2026-04-16T15:17:36.992Z</time></trkpt><trkpt lat="43.3625867" lon="11.8222267"><ele>242.33333333333334</ele><time>2026-04-16T15:17:38.993Z</time></trkpt><trkpt lat="43.3626083" lon="11.822345"><ele>242.5</ele><time>2026-04-16T15:17:40.99Z</time></trkpt><trkpt lat="43.3626217" lon="11.8224683"><ele>242.66666666666669</ele><time>2026-04-16T15:17:42.989Z</time></trkpt><trkpt lat="43.362635" lon="11.8225717"><ele>242.83333333333334</ele><time>2026-04-16T15:17:44.989Z</time></trkpt><trkpt lat="43.3626483" lon="11.8226567"><ele>243.0</ele><time>2026-04-16T15:17:46.992Z</time></trkpt><trkpt lat="43.3626948" lon="11.8228179"><ele>243.0</ele><time>2026-04-16T15:18:26.135Z</time></trkpt><trkpt lat="43.3627" lon="11.8229117"><ele>243.0</ele><time>2026-04-16T15:18:27.993Z</time></trkpt><trkpt lat="43.3627033" lon="11.8230183"><ele>243.0</ele><time>2026-04-16T15:18:32.991Z</time></trkpt><trkpt lat="43.3627167" lon="11.8231233"><ele>243.0</ele><time>2026-04-16T15:18:35.992Z</time></trkpt><trkpt lat="43.3627267" lon="11.823245"><ele>243.0</ele><time>2026-04-16T15:18:38.993Z</time></trkpt><trkpt lat="43.36274" lon="11.82336"><ele>243.0</ele><time>2026-04-16T15:18:41.994Z</time></trkpt><trkpt lat="43.3627533" lon="11.82347"><ele>242.71428571428572</ele><time>2026-04-16T15:18:44.991Z</time></trkpt><trkpt lat="43.36277" lon="11.8235683"><ele>242.42857142857144</ele><time>2026-04-16T15:18:47.994Z</time></trkpt><trkpt lat="43.3627883" lon="11.8236717"><ele>242.14285714285717</ele><time>2026-04-16T15:18:51.997Z</time></trkpt><trkpt lat="43.3627933" lon="11.8237667"><ele>241.85714285714286</ele><time>2026-04-16T15:18:55.991Z</time></trkpt><trkpt lat="43.362805" lon="11.8238633"><ele>241.5714285714286</ele><time>2026-04-16T15:19:01.993Z</time></trkpt><trkpt lat="43.3628367" lon="11.8239467"><ele>241.2857142857143</ele><time>2026-04-16T15:19:05.992Z</time></trkpt><trkpt lat="43.3628517" lon="11.824035"><ele>241.0</ele><time>2026-04-16T15:19:08.995Z</time></trkpt><trkpt lat="43.3628617" lon="11.8241217"><ele>241.0</ele><time>2026-04-16T15:19:11.993Z</time></trkpt><trkpt lat="43.36287" lon="11.8242133"><ele>241.00000000000003</ele><time>2026-04-16T15:19:14.994Z</time></trkpt><trkpt lat="43.3628733" lon="11.8243033"><ele>241.0</ele><time>2026-04-16T15:19:17.992Z</time></trkpt><trkpt lat="43.3628867" lon="11.824395"><ele>241.0</ele><time>2026-04-16T15:19:20.993Z</time></trkpt><trkpt lat="43.362905" lon="11.8244933"><ele>241.00000000000003</ele><time>2026-04-16T15:19:24.992Z</time></trkpt><trkpt lat="43.3629183" lon="11.8245883"><ele>241.0</ele><time>2026-04-16T15:19:28.995Z</time></trkpt><trkpt lat="43.3629283" lon="11.8246783"><ele>241.0</ele><time>2026-04-16T15:19:31.995Z</time></trkpt><trkpt lat="43.36294" lon="11.8247733"><ele>241.0</ele><time>2026-04-16T15:19:34.993Z</time></trkpt><trkpt lat="43.3629533" lon="11.8248683"><ele>241.00000000000003</ele><time>2026-04-16T15:19:37.993Z</time></trkpt><trkpt lat="43.3629633" lon="11.824965"><ele>241.0</ele><time>2026-04-16T15:19:40.992Z</time></trkpt><trkpt lat="43.3629783" lon="11.8250583"><ele>241.0</ele><time>2026-04-16T15:19:43.993Z</time></trkpt><trkpt lat="43.3629933" lon="11.8251533"><ele>241.00000000000003</ele><time>2026-04-16T15:19:46.991Z</time></trkpt><trkpt lat="43.3629983" lon="11.82526"><ele>241.0</ele><time>2026-04-16T15:19:50.991Z</time></trkpt><trkpt lat="43.3630083" lon="11.8253733"><ele>241.0</ele><time>2026-04-16T15:19:54.993Z</time></trkpt><trkpt lat="43.363015" lon="11.82547"><ele>241.0</ele><time>2026-04-16T15:19:57.992Z</time></trkpt><trkpt lat="43.3630233" lon="11.8255833"><ele>241.00000000000003</ele><time>2026-04-16T15:20:01.991Z</time></trkpt><trkpt lat="43.3630333" lon="11.82567"><ele>241.0</ele><time>2026-04-16T15:20:04.994Z</time></trkpt><trkpt lat="43.36305" lon="11.825775"><ele>241.0</ele><time>2026-04-16T15:20:08.994Z</time></trkpt><trkpt lat="43.3630633" lon="11.8258833"><ele>241.00000000000003</ele><time>2026-04-16T15:20:12.995Z</time></trkpt><trkpt lat="43.3630783" lon="11.825975"><ele>241.0</ele><time>2026-04-16T15:20:16.992Z</time></trkpt><trkpt lat="43.3630967" lon="11.8260667"><ele>241.0</ele><time>2026-04-16T15:20:20.994Z</time></trkpt><trkpt lat="43.3631367" lon="11.8261583"><ele>240.71428571428572</ele><time>2026-04-16T15:20:24.992Z</time></trkpt><trkpt lat="43.36316" lon="11.8262433"><ele>240.42857142857144</ele><time>2026-04-16T15:20:28.991Z</time></trkpt><trkpt lat="43.3630967" lon="11.82626"><ele>240.14285714285717</ele><time>2026-04-16T15:20:32.992Z</time></trkpt><trkpt lat="43.3630183" lon="11.8262517"><ele>239.8571428571429</ele><time>2026-04-16T15:20:35.993Z</time></trkpt><trkpt lat="43.362935" lon="11.826265"><ele>239.57142857142858</ele><time>2026-04-16T15:20:38.992Z</time></trkpt><trkpt lat="43.36287" lon="11.8262733"><ele>239.28571428571433</ele><time>2026-04-16T15:20:40.992Z</time></trkpt><trkpt lat="43.3628" lon="11.8262767"><ele>239.00000000000003</ele><time>2026-04-16T15:20:42.994Z</time></trkpt><trkpt lat="43.36273" lon="11.8262883"><ele>239.00000000000003</ele><time>2026-04-16T15:20:44.992Z</time></trkpt><trkpt lat="43.3626533" lon="11.8262967"><ele>239.0</ele><time>2026-04-16T15:20:46.991Z</time></trkpt><trkpt lat="43.36257" lon="11.8263033"><ele>239.0</ele><time>2026-04-16T15:20:48.993Z</time></trkpt><trkpt lat="43.3624817" lon="11.8263117"><ele>239.0</ele><time>2026-04-16T15:20:50.99Z</time></trkpt><trkpt lat="43.3623883" lon="11.8263217"><ele>239.00000000000003</ele><time>2026-04-16T15:20:52.993Z</time></trkpt><trkpt lat="43.36229" lon="11.8263267"><ele>239.0</ele><time>2026-04-16T15:20:54.992Z</time></trkpt><trkpt lat="43.3621967" lon="11.8263317"><ele>238.75</ele><time>2026-04-16T15:20:56.992Z</time></trkpt><trkpt lat="43.3620917" lon="11.82634"><ele>238.5</ele><time>2026-04-16T15:20:58.992Z</time></trkpt><trkpt lat="43.36198" lon="11.826345"><ele>238.25</ele><time>2026-04-16T15:21:00.994Z</time></trkpt><trkpt lat="43.36186" lon="11.8263483"><ele>238.0</ele><time>2026-04-16T15:21:02.992Z</time></trkpt><trkpt lat="43.3617383" lon="11.82636"><ele>237.99999999999997</ele><time>2026-04-16T15:21:04.992Z</time></trkpt><trkpt lat="43.3616033" lon="11.826365"><ele>238.0</ele><time>2026-04-16T15:21:06.994Z</time></trkpt><trkpt lat="43.3615383" lon="11.8263667"><ele>238.0</ele><time>2026-04-16T15:21:07.993Z</time></trkpt><trkpt lat="43.361475" lon="11.82637"><ele>238.0</ele><time>2026-04-16T15:21:08.995Z</time></trkpt><trkpt lat="43.3614117" lon="11.826375"><ele>237.99999999999997</ele><time>2026-04-16T15:21:09.994Z</time></trkpt><trkpt lat="43.3613467" lon="11.82638"><ele>238.0</ele><time>2026-04-16T15:21:10.994Z</time></trkpt><trkpt lat="43.3612233" lon="11.82639"><ele>238.2</ele><time>2026-04-16T15:21:12.994Z</time></trkpt><trkpt lat="43.3611567" lon="11.8263933"><ele>238.4</ele><time>2026-04-16T15:21:13.992Z</time></trkpt><trkpt lat="43.3610867" lon="11.8264017"><ele>238.59999999999997</ele><time>2026-04-16T15:21:14.998Z</time></trkpt><trkpt lat="43.36097" lon="11.8264133"><ele>238.79999999999998</ele><time>2026-04-16T15:21:16.99Z</time></trkpt><trkpt lat="43.3608517" lon="11.8264283"><ele>239.0</ele><time>2026-04-16T15:21:18.993Z</time></trkpt><trkpt lat="43.3607333" lon="11.8264383"><ele>239.0</ele><time>2026-04-16T15:21:20.994Z</time></trkpt><trkpt lat="43.3606133" lon="11.8264467"><ele>239.0</ele><time>2026-04-16T15:21:22.99Z</time></trkpt><trkpt lat="43.3604917" lon="11.8264567"><ele>239.0</ele><time>2026-04-16T15:21:24.992Z</time></trkpt><trkpt lat="43.3603717" lon="11.826465"><ele>239.0</ele><time>2026-04-16T15:21:26.995Z</time></trkpt><trkpt lat="43.3602467" lon="11.826475"><ele>239.0</ele><time>2026-04-16T15:21:28.992Z</time></trkpt><trkpt lat="43.3601267" lon="11.826485"><ele>239.0</ele><time>2026-04-16T15:21:30.994Z</time></trkpt><trkpt lat="43.360005" lon="11.826495"><ele>239.0</ele><time>2026-04-16T15:21:32.99Z</time></trkpt><trkpt lat="43.35988" lon="11.8264983"><ele>239.0</ele><time>2026-04-16T15:21:34.993Z</time></trkpt><trkpt lat="43.3597567" lon="11.8265017"><ele>239.2</ele><time>2026-04-16T15:21:36.994Z</time></trkpt><trkpt lat="43.3596933" lon="11.826505"><ele>239.39999999999998</ele><time>2026-04-16T15:21:37.991Z</time></trkpt><trkpt lat="43.3595767" lon="11.8265167"><ele>239.6</ele><time>2026-04-16T15:21:39.993Z</time></trkpt><trkpt lat="43.3594633" lon="11.826525"><ele>239.8</ele><time>2026-04-16T15:21:41.995Z</time></trkpt><trkpt lat="43.3593483" lon="11.8265367"><ele>240.0</ele><time>2026-04-16T15:21:43.995Z</time></trkpt><trkpt lat="43.3592333" lon="11.8265483"><ele>240.0</ele><time>2026-04-16T15:21:45.996Z</time></trkpt><trkpt lat="43.3591167" lon="11.8265633"><ele>240.0</ele><time>2026-04-16T15:21:47.99Z</time></trkpt><trkpt lat="43.3589967" lon="11.8265717"><ele>240.0</ele><time>2026-04-16T15:21:49.993Z</time></trkpt><trkpt lat="43.3588767" lon="11.8265817"><ele>240.0</ele><time>2026-04-16T15:21:51.99Z</time></trkpt><trkpt lat="43.3587567" lon="11.8265917"><ele>240.25</ele><time>2026-04-16T15:21:53.994Z</time></trkpt><trkpt lat="43.3586383" lon="11.8266017"><ele>240.5</ele><time>2026-04-16T15:21:55.992Z</time></trkpt><trkpt lat="43.3585183" lon="11.8266083"><ele>240.75</ele><time>2026-04-16T15:21:57.994Z</time></trkpt><trkpt lat="43.358405" lon="11.82662"><ele>241.0</ele><time>2026-04-16T15:21:59.991Z</time></trkpt><trkpt lat="43.358295" lon="11.82663"><ele>241.0</ele><time>2026-04-16T15:22:01.994Z</time></trkpt><trkpt lat="43.3581867" lon="11.82664"><ele>241.00000000000003</ele><time>2026-04-16T15:22:03.99Z</time></trkpt><trkpt lat="43.35808" lon="11.8266467"><ele>241.00000000000003</ele><time>2026-04-16T15:22:05.991Z</time></trkpt><trkpt lat="43.3579717" lon="11.82665"><ele>241.0</ele><time>2026-04-16T15:22:07.992Z</time></trkpt><trkpt lat="43.357855" lon="11.82665"><ele>241.0</ele><time>2026-04-16T15:22:09.992Z</time></trkpt><trkpt lat="43.3577317" lon="11.8266533"><ele>241.25</ele><time>2026-04-16T15:22:11.992Z</time></trkpt><trkpt lat="43.3576117" lon="11.826655"><ele>241.5</ele><time>2026-04-16T15:22:13.991Z</time></trkpt><trkpt lat="43.3574933" lon="11.8266483"><ele>241.75</ele><time>2026-04-16T15:22:15.993Z</time></trkpt><trkpt lat="43.3573717" lon="11.8266433"><ele>242.0</ele><time>2026-04-16T15:22:17.992Z</time></trkpt><trkpt lat="43.35725" lon="11.8266383"><ele>241.66666666666669</ele><time>2026-04-16T15:22:19.993Z</time></trkpt><trkpt lat="43.3571817" lon="11.8266383"><ele>241.33333333333334</ele><time>2026-04-16T15:22:20.994Z</time></trkpt><trkpt lat="43.3571133" lon="11.826635"><ele>241.0</ele><time>2026-04-16T15:22:21.99Z</time></trkpt><trkpt lat="43.357045" lon="11.8266367"><ele>240.66666666666669</ele><time>2026-04-16T15:22:22.99Z</time></trkpt><trkpt lat="43.3569317" lon="11.8266367"><ele>240.33333333333334</ele><time>2026-04-16T15:22:24.993Z</time></trkpt><trkpt lat="43.356825" lon="11.8266433"><ele>240.0</ele><time>2026-04-16T15:22:26.991Z</time></trkpt><trkpt lat="43.356715" lon="11.8266383"><ele>240.0</ele><time>2026-04-16T15:22:28.994Z</time></trkpt><trkpt lat="43.3566017" lon="11.8266317"><ele>240.0</ele><time>2026-04-16T15:22:30.991Z</time></trkpt><trkpt lat="43.3564867" lon="11.8266267"><ele>240.0</ele><time>2026-04-16T15:22:32.993Z</time></trkpt><trkpt lat="43.3563717" lon="11.826615"><ele>240.0</ele><time>2026-04-16T15:22:34.992Z</time></trkpt><trkpt lat="43.356255" lon="11.826605"><ele>240.0</ele><time>2026-04-16T15:22:36.995Z</time></trkpt><trkpt lat="43.3561383" lon="11.8265933"><ele>240.0</ele><time>2026-04-16T15:22:38.991Z</time></trkpt><trkpt lat="43.3560233" lon="11.8265883"><ele>240.0</ele><time>2026-04-16T15:22:40.99Z</time></trkpt><trkpt lat="43.3559117" lon="11.8265883"><ele>240.0</ele><time>2026-04-16T15:22:42.993Z</time></trkpt><trkpt lat="43.3558067" lon="11.82659"><ele>240.0</ele><time>2026-04-16T15:22:44.992Z</time></trkpt><trkpt lat="43.3556883" lon="11.826585"><ele>240.0</ele><time>2026-04-16T15:22:46.99Z</time></trkpt><trkpt lat="43.3555683" lon="11.82658"><ele>240.0</ele><time>2026-04-16T15:22:48.996Z</time></trkpt><trkpt lat="43.3555033" lon="11.826575"><ele>240.0</ele><time>2026-04-16T15:22:49.993Z</time></trkpt><trkpt lat="43.3554383" lon="11.8265733"><ele>240.0</ele><time>2026-04-16T15:22:50.994Z</time></trkpt><trkpt lat="43.3553183" lon="11.8265633"><ele>240.0</ele><time>2026-04-16T15:22:52.992Z</time></trkpt><trkpt lat="43.3551967" lon="11.826555"><ele>240.0</ele><time>2026-04-16T15:22:54.992Z</time></trkpt><trkpt lat="43.3550717" lon="11.8265433"><ele>240.0</ele><time>2026-04-16T15:22:56.991Z</time></trkpt><trkpt lat="43.3549467" lon="11.82653"><ele>240.0</ele><time>2026-04-16T15:22:58.993Z</time></trkpt><trkpt lat="43.3548817" lon="11.8265317"><ele>240.0</ele><time>2026-04-16T15:22:59.993Z</time></trkpt><trkpt lat="43.3548183" lon="11.8265317"><ele>240.0</ele><time>2026-04-16T15:23:00.996Z</time></trkpt><trkpt lat="43.35475" lon="11.82653"><ele>240.0</ele><time>2026-04-16T15:23:01.992Z</time></trkpt><trkpt lat="43.3546383" lon="11.826525"><ele>239.6</ele><time>2026-04-16T15:23:03.992Z</time></trkpt><trkpt lat="43.3545367" lon="11.8265233"><ele>239.2</ele><time>2026-04-16T15:23:05.993Z</time></trkpt><trkpt lat="43.3544317" lon="11.8265233"><ele>238.8</ele><time>2026-04-16T15:23:07.995Z</time></trkpt><trkpt lat="43.354315" lon="11.82651"><ele>238.4</ele><time>2026-04-16T15:23:09.992Z</time></trkpt><trkpt lat="43.3542017" lon="11.826505"><ele>238.0</ele><time>2026-04-16T15:23:11.992Z</time></trkpt><trkpt lat="43.3540933" lon="11.8264967"><ele>238.0</ele><time>2026-04-16T15:23:13.992Z</time></trkpt><trkpt lat="43.3539783" lon="11.8264883"><ele>238.0</ele><time>2026-04-16T15:23:15.993Z</time></trkpt><trkpt lat="43.3538633" lon="11.8264833"><ele>238.0</ele><time>2026-04-16T15:23:17.993Z</time></trkpt><trkpt lat="43.35374" lon="11.82648"><ele>238.0</ele><time>2026-04-16T15:23:19.993Z</time></trkpt><trkpt lat="43.3536333" lon="11.8264783"><ele>238.4</ele><time>2026-04-16T15:23:21.996Z</time></trkpt><trkpt lat="43.353515" lon="11.826485"><ele>238.8</ele><time>2026-04-16T15:23:23.992Z</time></trkpt><trkpt lat="43.3534067" lon="11.8264833"><ele>239.2</ele><time>2026-04-16T15:23:25.988Z</time></trkpt><trkpt lat="43.3532983" lon="11.8264783"><ele>239.6</ele><time>2026-04-16T15:23:27.99Z</time></trkpt><trkpt lat="43.3531867" lon="11.8264717"><ele>240.0</ele><time>2026-04-16T15:23:29.995Z</time></trkpt><trkpt lat="43.3530783" lon="11.8264583"><ele>240.0</ele><time>2026-04-16T15:23:31.991Z</time></trkpt><trkpt lat="43.3529783" lon="11.82645"><ele>240.0</ele><time>2026-04-16T15:23:33.993Z</time></trkpt><trkpt lat="43.35289" lon="11.82644"><ele>240.0</ele><time>2026-04-16T15:23:35.993Z</time></trkpt><trkpt lat="43.3528067" lon="11.826445"><ele>240.0</ele><time>2026-04-16T15:23:37.994Z</time></trkpt><trkpt lat="43.352725" lon="11.82645"><ele>240.0</ele><time>2026-04-16T15:23:39.993Z</time></trkpt><trkpt lat="43.35265" lon="11.8264517"><ele>240.0</ele><time>2026-04-16T15:23:41.993Z</time></trkpt><trkpt lat="43.3525767" lon="11.826445"><ele>240.0</ele><time>2026-04-16T15:23:43.996Z</time></trkpt><trkpt lat="43.35251" lon="11.82645"><ele>240.0</ele><time>2026-04-16T15:23:45.993Z</time></trkpt><trkpt lat="43.352425" lon="11.82644"><ele>240.0</ele><time>2026-04-16T15:23:48.994Z</time></trkpt><trkpt lat="43.35235" lon="11.8264267"><ele>240.0</ele><time>2026-04-16T15:23:51.991Z</time></trkpt><trkpt lat="43.3522833" lon="11.82642"><ele>240.0</ele><time>2026-04-16T15:23:54.991Z</time></trkpt><trkpt lat="43.35221" lon="11.826445"><ele>240.0</ele><time>2026-04-16T15:23:59.994Z</time></trkpt><trkpt lat="43.3522017" lon="11.826565"><ele>240.0</ele><time>2026-04-16T15:24:02.995Z</time></trkpt><trkpt lat="43.35221" lon="11.8266667"><ele>240.0</ele><time>2026-04-16T15:24:04.992Z</time></trkpt><trkpt lat="43.3522217" lon="11.8267783"><ele>240.0</ele><time>2026-04-16T15:24:06.992Z</time></trkpt><trkpt lat="43.3522317" lon="11.8269"><ele>240.0</ele><time>2026-04-16T15:24:08.994Z</time></trkpt><trkpt lat="43.3522433" lon="11.82703"><ele>240.0</ele><time>2026-04-16T15:24:10.991Z</time></trkpt><trkpt lat="43.3522583" lon="11.8271583"><ele>240.0</ele><time>2026-04-16T15:24:12.993Z</time></trkpt><trkpt lat="43.35227" lon="11.8272833"><ele>240.4</ele><time>2026-04-16T15:24:14.999Z</time></trkpt><trkpt lat="43.3522883" lon="11.8274083"><ele>240.8</ele><time>2026-04-16T15:24:16.992Z</time></trkpt><trkpt lat="43.3523017" lon="11.8275333"><ele>241.2</ele><time>2026-04-16T15:24:18.993Z</time></trkpt><trkpt lat="43.35231" lon="11.8276567"><ele>241.6</ele><time>2026-04-16T15:24:20.994Z</time></trkpt><trkpt lat="43.3523233" lon="11.827785"><ele>242.0</ele><time>2026-04-16T15:24:22.99Z</time></trkpt><trkpt lat="43.3523317" lon="11.827915"><ele>242.0</ele><time>2026-04-16T15:24:24.994Z</time></trkpt><trkpt lat="43.3523467" lon="11.8280467"><ele>242.0</ele><time>2026-04-16T15:24:26.992Z</time></trkpt><trkpt lat="43.35236" lon="11.8281833"><ele>242.0</ele><time>2026-04-16T15:24:28.994Z</time></trkpt><trkpt lat="43.3523683" lon="11.8283233"><ele>242.0</ele><time>2026-04-16T15:24:30.994Z</time></trkpt><trkpt lat="43.3523817" lon="11.8284683"><ele>242.0</ele><time>2026-04-16T15:24:32.994Z</time></trkpt><trkpt lat="43.3523967" lon="11.8286067"><ele>242.0</ele><time>2026-04-16T15:24:34.993Z</time></trkpt><trkpt lat="43.3524117" lon="11.82875"><ele>242.0</ele><time>2026-04-16T15:24:36.991Z</time></trkpt><trkpt lat="43.352425" lon="11.8288917"><ele>242.0</ele><time>2026-04-16T15:24:38.998Z</time></trkpt><trkpt lat="43.352445" lon="11.829045"><ele>242.0</ele><time>2026-04-16T15:24:40.991Z</time></trkpt><trkpt lat="43.35246" lon="11.8291817"><ele>242.0</ele><time>2026-04-16T15:24:42.994Z</time></trkpt><trkpt lat="43.3524733" lon="11.82932"><ele>242.2</ele><time>2026-04-16T15:24:44.996Z</time></trkpt><trkpt lat="43.35249" lon="11.8294617"><ele>242.39999999999998</ele><time>2026-04-16T15:24:46.994Z</time></trkpt><trkpt lat="43.352505" lon="11.8295983"><ele>242.60000000000002</ele><time>2026-04-16T15:24:48.992Z</time></trkpt><trkpt lat="43.352515" lon="11.8297317"><ele>242.8</ele><time>2026-04-16T15:24:50.996Z</time></trkpt><trkpt lat="43.3525283" lon="11.829865"><ele>243.0</ele><time>2026-04-16T15:24:52.991Z</time></trkpt><trkpt lat="43.3525417" lon="11.8299933"><ele>243.0</ele><time>2026-04-16T15:24:54.994Z</time></trkpt><trkpt lat="43.352555" lon="11.8301267"><ele>243.0</ele><time>2026-04-16T15:24:56.991Z</time></trkpt><trkpt lat="43.352565" lon="11.8302617"><ele>243.0</ele><time>2026-04-16T15:24:58.99Z</time></trkpt><trkpt lat="43.352575" lon="11.8304117"><ele>243.0</ele><time>2026-04-16T15:25:00.993Z</time></trkpt><trkpt lat="43.35259" lon="11.83055"><ele>243.0</ele><time>2026-04-16T15:25:02.992Z</time></trkpt><trkpt lat="43.3526033" lon="11.8306917"><ele>242.8</ele><time>2026-04-16T15:25:04.996Z</time></trkpt><trkpt lat="43.352615" lon="11.8308383"><ele>242.60000000000002</ele><time>2026-04-16T15:25:06.995Z</time></trkpt><trkpt lat="43.35263" lon="11.830985"><ele>242.39999999999998</ele><time>2026-04-16T15:25:08.994Z</time></trkpt><trkpt lat="43.352645" lon="11.8311283"><ele>242.2</ele><time>2026-04-16T15:25:10.989Z</time></trkpt><trkpt lat="43.35266" lon="11.8312733"><ele>242.0</ele><time>2026-04-16T15:25:12.994Z</time></trkpt><trkpt lat="43.3526733" lon="11.8314183"><ele>242.0</ele><time>2026-04-16T15:25:14.991Z</time></trkpt><trkpt lat="43.3526867" lon="11.8315667"><ele>242.0</ele><time>2026-04-16T15:25:16.992Z</time></trkpt><trkpt lat="43.3527017" lon="11.831715"><ele>242.0</ele><time>2026-04-16T15:25:18.991Z</time></trkpt><trkpt lat="43.3527133" lon="11.8318617"><ele>242.0</ele><time>2026-04-16T15:25:20.992Z</time></trkpt><trkpt lat="43.3527267" lon="11.832005"><ele>242.0</ele><time>2026-04-16T15:25:22.993Z</time></trkpt><trkpt lat="43.35274" lon="11.832155"><ele>242.0</ele><time>2026-04-16T15:25:24.995Z</time></trkpt><trkpt lat="43.3527533" lon="11.832295"><ele>242.0</ele><time>2026-04-16T15:25:26.992Z</time></trkpt><trkpt lat="43.3527667" lon="11.8324317"><ele>242.0</ele><time>2026-04-16T15:25:28.995Z</time></trkpt><trkpt lat="43.352785" lon="11.832575"><ele>242.0</ele><time>2026-04-16T15:25:30.993Z</time></trkpt><trkpt lat="43.3528" lon="11.8327183"><ele>242.0</ele><time>2026-04-16T15:25:32.996Z</time></trkpt><trkpt lat="43.3528083" lon="11.8328617"><ele>242.2</ele><time>2026-04-16T15:25:34.991Z</time></trkpt><trkpt lat="43.35282" lon="11.833005"><ele>242.39999999999998</ele><time>2026-04-16T15:25:36.991Z</time></trkpt><trkpt lat="43.3528383" lon="11.8331483"><ele>242.60000000000002</ele><time>2026-04-16T15:25:38.99Z</time></trkpt><trkpt lat="43.352855" lon="11.8332917"><ele>242.8</ele><time>2026-04-16T15:25:40.995Z</time></trkpt><trkpt lat="43.3528683" lon="11.8334367"><ele>243.0</ele><time>2026-04-16T15:25:42.993Z</time></trkpt><trkpt lat="43.35288" lon="11.8335833"><ele>243.0</ele><time>2026-04-16T15:25:44.994Z</time></trkpt><trkpt lat="43.3528933" lon="11.83373"><ele>243.0</ele><time>2026-04-16T15:25:46.992Z</time></trkpt><trkpt lat="43.3529067" lon="11.8338783"><ele>243.0</ele><time>2026-04-16T15:25:48.995Z</time></trkpt><trkpt lat="43.35292" lon="11.834025"><ele>243.0</ele><time>2026-04-16T15:25:50.993Z</time></trkpt><trkpt lat="43.352935" lon="11.834175"><ele>243.0</ele><time>2026-04-16T15:25:52.992Z</time></trkpt><trkpt lat="43.35295" lon="11.8343367"><ele>243.2</ele><time>2026-04-16T15:25:54.996Z</time></trkpt><trkpt lat="43.3529633" lon="11.834485"><ele>243.4</ele><time>2026-04-16T15:25:56.99Z</time></trkpt><trkpt lat="43.3529767" lon="11.834635"><ele>243.59999999999997</ele><time>2026-04-16T15:25:58.993Z</time></trkpt><trkpt lat="43.3529867" lon="11.8347833"><ele>243.79999999999998</ele><time>2026-04-16T15:26:00.993Z</time></trkpt><trkpt lat="43.353" lon="11.83493"><ele>244.0</ele><time>2026-04-16T15:26:02.995Z</time></trkpt><trkpt lat="43.353015" lon="11.8350817"><ele>244.0</ele><time>2026-04-16T15:26:04.991Z</time></trkpt><trkpt lat="43.3530283" lon="11.8352333"><ele>243.99999999999997</ele><time>2026-04-16T15:26:07Z</time></trkpt><trkpt lat="43.3530467" lon="11.8353867"><ele>243.99999999999997</ele><time>2026-04-16T15:26:08.993Z</time></trkpt><trkpt lat="43.3530633" lon="11.83554"><ele>244.0</ele><time>2026-04-16T15:26:10.996Z</time></trkpt><trkpt lat="43.3530767" lon="11.835685"><ele>244.0</ele><time>2026-04-16T15:26:12.993Z</time></trkpt><trkpt lat="43.353095" lon="11.8358417"><ele>244.0</ele><time>2026-04-16T15:26:14.992Z</time></trkpt><trkpt lat="43.3531117" lon="11.8359783"><ele>243.99999999999997</ele><time>2026-04-16T15:26:16.994Z</time></trkpt><trkpt lat="43.3531233" lon="11.8361233"><ele>243.99999999999997</ele><time>2026-04-16T15:26:18.993Z</time></trkpt><trkpt lat="43.3531367" lon="11.8362683"><ele>244.0</ele><time>2026-04-16T15:26:20.99Z</time></trkpt><trkpt lat="43.35315" lon="11.836405"><ele>244.0</ele><time>2026-04-16T15:26:22.992Z</time></trkpt><trkpt lat="43.3531667" lon="11.8365433"><ele>244.0</ele><time>2026-04-16T15:26:24.995Z</time></trkpt><trkpt lat="43.3531783" lon="11.8366867"><ele>243.99999999999997</ele><time>2026-04-16T15:26:26.995Z</time></trkpt><trkpt lat="43.353195" lon="11.8368333"><ele>243.99999999999997</ele><time>2026-04-16T15:26:28.993Z</time></trkpt><trkpt lat="43.3532067" lon="11.83698"><ele>244.0</ele><time>2026-04-16T15:26:30.991Z</time></trkpt><trkpt lat="43.3532233" lon="11.8371267"><ele>244.0</ele><time>2026-04-16T15:26:32.991Z</time></trkpt><trkpt lat="43.35324" lon="11.8372217"><ele>244.2</ele><time>2026-04-16T15:26:33.99Z</time></trkpt><trkpt lat="43.3532517" lon="11.8373633"><ele>244.39999999999998</ele><time>2026-04-16T15:26:35.99Z</time></trkpt><trkpt lat="43.3532617" lon="11.8375033"><ele>244.6</ele><time>2026-04-16T15:26:37.993Z</time></trkpt><trkpt lat="43.35327" lon="11.8376517"><ele>244.8</ele><time>2026-04-16T15:26:39.989Z</time></trkpt><trkpt lat="43.35328" lon="11.8377917"><ele>245.0</ele><time>2026-04-16T15:26:41.996Z</time></trkpt><trkpt lat="43.3532917" lon="11.8379333"><ele>245.2</ele><time>2026-04-16T15:26:43.994Z</time></trkpt><trkpt lat="43.3533067" lon="11.838075"><ele>245.4</ele><time>2026-04-16T15:26:45.992Z</time></trkpt><trkpt lat="43.3533217" lon="11.8382133"><ele>245.60000000000002</ele><time>2026-04-16T15:26:47.992Z</time></trkpt><trkpt lat="43.3533367" lon="11.83835"><ele>245.8</ele><time>2026-04-16T15:26:49.994Z</time></trkpt><trkpt lat="43.3533567" lon="11.83849"><ele>246.0</ele><time>2026-04-16T15:26:51.993Z</time></trkpt><trkpt lat="43.3533817" lon="11.838625"><ele>246.60000000000002</ele><time>2026-04-16T15:26:53.991Z</time></trkpt><trkpt lat="43.35342" lon="11.8387567"><ele>247.20000000000002</ele><time>2026-04-16T15:26:55.993Z</time></trkpt><trkpt lat="43.35347" lon="11.8388833"><ele>247.79999999999998</ele><time>2026-04-16T15:26:57.991Z</time></trkpt><trkpt lat="43.3535333" lon="11.8390233"><ele>248.39999999999998</ele><time>2026-04-16T15:26:59.993Z</time></trkpt><trkpt lat="43.3535967" lon="11.83913"><ele>249.0</ele><time>2026-04-16T15:27:01.991Z</time></trkpt><trkpt lat="43.353665" lon="11.8392317"><ele>249.39999999999998</ele><time>2026-04-16T15:27:03.992Z</time></trkpt><trkpt lat="43.3537433" lon="11.8393283"><ele>249.79999999999998</ele><time>2026-04-16T15:27:05.99Z</time></trkpt><trkpt lat="43.3538283" lon="11.8394233"><ele>250.20000000000002</ele><time>2026-04-16T15:27:07.995Z</time></trkpt><trkpt lat="43.3538783" lon="11.8394767"><ele>250.60000000000002</ele><time>2026-04-16T15:27:08.994Z</time></trkpt><trkpt lat="43.35397" lon="11.8395533"><ele>251.0</ele><time>2026-04-16T15:27:10.995Z</time></trkpt><trkpt lat="43.35407" lon="11.8396117"><ele>251.0</ele><time>2026-04-16T15:27:12.996Z</time></trkpt><trkpt lat="43.3541733" lon="11.8396533"><ele>251.0</ele><time>2026-04-16T15:27:14.991Z</time></trkpt><trkpt lat="43.3542783" lon="11.8396967"><ele>251.0</ele><time>2026-04-16T15:27:16.993Z</time></trkpt><trkpt lat="43.3543933" lon="11.83974"><ele>251.0</ele><time>2026-04-16T15:27:18.99Z</time></trkpt><trkpt lat="43.3545083" lon="11.8397667"><ele>251.0</ele><time>2026-04-16T15:27:20.991Z</time></trkpt><trkpt lat="43.354615" lon="11.8397867"><ele>251.00000000000003</ele><time>2026-04-16T15:27:22.99Z</time></trkpt><trkpt lat="43.354725" lon="11.8398117"><ele>251.00000000000003</ele><time>2026-04-16T15:27:24.995Z</time></trkpt><trkpt lat="43.354835" lon="11.8398433"><ele>251.0</ele><time>2026-04-16T15:27:26.993Z</time></trkpt><trkpt lat="43.3549433" lon="11.839875"><ele>251.0</ele><time>2026-04-16T15:27:28.995Z</time></trkpt><trkpt lat="43.3550567" lon="11.8399033"><ele>251.0</ele><time>2026-04-16T15:27:30.995Z</time></trkpt><trkpt lat="43.355165" lon="11.83994"><ele>251.00000000000003</ele><time>2026-04-16T15:27:32.995Z</time></trkpt><trkpt lat="43.3552683" lon="11.8399767"><ele>251.00000000000003</ele><time>2026-04-16T15:27:34.992Z</time></trkpt><trkpt lat="43.3553733" lon="11.8400167"><ele>251.0</ele><time>2026-04-16T15:27:36.989Z</time></trkpt><trkpt lat="43.3554817" lon="11.8400617"><ele>251.0</ele><time>2026-04-16T15:27:38.992Z</time></trkpt><trkpt lat="43.3555517" lon="11.840155"><ele>251.0</ele><time>2026-04-16T15:27:40.994Z</time></trkpt><trkpt lat="43.3555733" lon="11.8403133"><ele>251.00000000000003</ele><time>2026-04-16T15:27:42.993Z</time></trkpt><trkpt lat="43.3555917" lon="11.8404483"><ele>251.00000000000003</ele><time>2026-04-16T15:27:44.994Z</time></trkpt><trkpt lat="43.35562" lon="11.84056"><ele>251.0</ele><time>2026-04-16T15:27:46.995Z</time></trkpt><trkpt lat="43.3556667" lon="11.8406617"><ele>251.0</ele><time>2026-04-16T15:27:48.995Z</time></trkpt><trkpt lat="43.3557133" lon="11.840755"><ele>251.00000000000003</ele><time>2026-04-16T15:27:50.992Z</time></trkpt><trkpt lat="43.3557583" lon="11.84083"><ele>251.0</ele><time>2026-04-16T15:27:52.989Z</time></trkpt><trkpt lat="43.355805" lon="11.8408967"><ele>251.0</ele><time>2026-04-16T15:27:54.991Z</time></trkpt><trkpt lat="43.3558867" lon="11.8409633"><ele>251.0</ele><time>2026-04-16T15:27:57.992Z</time></trkpt><trkpt lat="43.3559333" lon="11.8410283"><ele>251.00000000000003</ele><time>2026-04-16T15:27:59.99Z</time></trkpt><trkpt lat="43.3560033" lon="11.841105"><ele>251.0</ele><time>2026-04-16T15:28:02.994Z</time></trkpt><trkpt lat="43.3560683" lon="11.8411867"><ele>251.83333333333334</ele><time>2026-04-16T15:28:05.991Z</time></trkpt><trkpt lat="43.3561283" lon="11.8412717"><ele>252.66666666666669</ele><time>2026-04-16T15:28:08.994Z</time></trkpt><trkpt lat="43.3561883" lon="11.8413583"><ele>253.5</ele><time>2026-04-16T15:28:11.991Z</time></trkpt><trkpt lat="43.3562233" lon="11.8414583"><ele>254.33333333333331</ele><time>2026-04-16T15:28:14.995Z</time></trkpt><trkpt lat="43.3562233" lon="11.841565"><ele>255.16666666666666</ele><time>2026-04-16T15:28:18.994Z</time></trkpt><trkpt lat="43.3562017" lon="11.8416517"><ele>256.0</ele><time>2026-04-16T15:28:21.994Z</time></trkpt><trkpt lat="43.356205" lon="11.8417483"><ele>255.99999999999997</ele><time>2026-04-16T15:28:24.993Z</time></trkpt><trkpt lat="43.356205" lon="11.8418517"><ele>256.0</ele><time>2026-04-16T15:28:27.996Z</time></trkpt><trkpt lat="43.356215" lon="11.8419633"><ele>256.0</ele><time>2026-04-16T15:28:30.992Z</time></trkpt><trkpt lat="43.3562117" lon="11.8420767"><ele>256.0</ele><time>2026-04-16T15:28:33.993Z</time></trkpt><trkpt lat="43.35621" lon="11.842195"><ele>255.99999999999997</ele><time>2026-04-16T15:28:36.991Z</time></trkpt><trkpt lat="43.356215" lon="11.8422933"><ele>256.0</ele><time>2026-04-16T15:28:38.996Z</time></trkpt><trkpt lat="43.356225" lon="11.8424"><ele>255.99999999999997</ele><time>2026-04-16T15:28:40.992Z</time></trkpt><trkpt lat="43.3562367" lon="11.8425033"><ele>256.0</ele><time>2026-04-16T15:28:42.996Z</time></trkpt><trkpt lat="43.3562467" lon="11.8426117"><ele>256.0</ele><time>2026-04-16T15:28:44.998Z</time></trkpt><trkpt lat="43.3562483" lon="11.8427117"><ele>256.0</ele><time>2026-04-16T15:28:46.99Z</time></trkpt><trkpt lat="43.3562483" lon="11.8428133"><ele>255.99999999999997</ele><time>2026-04-16T15:28:48.993Z</time></trkpt><trkpt lat="43.3562533" lon="11.8429167"><ele>256.0</ele><time>2026-04-16T15:28:50.991Z</time></trkpt><trkpt lat="43.3562567" lon="11.843025"><ele>255.85714285714283</ele><time>2026-04-16T15:28:52.99Z</time></trkpt><trkpt lat="43.35626" lon="11.8431317"><ele>255.7142857142857</ele><time>2026-04-16T15:28:54.993Z</time></trkpt><trkpt lat="43.3562667" lon="11.843225"><ele>255.57142857142856</ele><time>2026-04-16T15:28:56.993Z</time></trkpt><trkpt lat="43.3562733" lon="11.8433183"><ele>255.42857142857144</ele><time>2026-04-16T15:28:58.991Z</time></trkpt><trkpt lat="43.35629" lon="11.8434133"><ele>255.2857142857143</ele><time>2026-04-16T15:29:00.992Z</time></trkpt><trkpt lat="43.356305" lon="11.8435233"><ele>255.14285714285717</ele><time>2026-04-16T15:29:02.993Z</time></trkpt><trkpt lat="43.3563183" lon="11.8436317"><ele>255.0</ele><time>2026-04-16T15:29:04.993Z</time></trkpt><trkpt lat="43.3563333" lon="11.8437417"><ele>255.0</ele><time>2026-04-16T15:29:06.992Z</time></trkpt><trkpt lat="43.3563467" lon="11.8438367"><ele>255.0</ele><time>2026-04-16T15:29:08.991Z</time></trkpt><trkpt lat="43.3563683" lon="11.8439567"><ele>255.0</ele><time>2026-04-16T15:29:11.99Z</time></trkpt><trkpt lat="43.3563683" lon="11.844065"><ele>255.0</ele><time>2026-04-16T15:29:14.993Z</time></trkpt><trkpt lat="43.356345" lon="11.8441617"><ele>255.0</ele><time>2026-04-16T15:29:18.994Z</time></trkpt><trkpt lat="43.3562717" lon="11.844195"><ele>255.0</ele><time>2026-04-16T15:29:22.996Z</time></trkpt><trkpt lat="43.3561833" lon="11.844205"><ele>255.0</ele><time>2026-04-16T15:29:25.99Z</time></trkpt><trkpt lat="43.3561117" lon="11.8442167"><ele>255.00000000000003</ele><time>2026-04-16T15:29:27.992Z</time></trkpt><trkpt lat="43.3560367" lon="11.844235"><ele>255.0</ele><time>2026-04-16T15:29:29.992Z</time></trkpt><trkpt lat="43.3559617" lon="11.8442467"><ele>255.0</ele><time>2026-04-16T15:29:31.993Z</time></trkpt><trkpt lat="43.355885" lon="11.844265"><ele>255.00000000000003</ele><time>2026-04-16T15:29:33.993Z</time></trkpt><trkpt lat="43.35584" lon="11.8443267"><ele>255.0</ele><time>2026-04-16T15:29:35.994Z</time></trkpt><trkpt lat="43.3558283" lon="11.8444167"><ele>255.0</ele><time>2026-04-16T15:29:37.99Z</time></trkpt><trkpt lat="43.3558383" lon="11.8445083"><ele>254.83333333333334</ele><time>2026-04-16T15:29:39.995Z</time></trkpt><trkpt lat="43.3558367" lon="11.8446433"><ele>254.66666666666669</ele><time>2026-04-16T15:29:42.99Z</time></trkpt><trkpt lat="43.3558383" lon="11.8447317"><ele>254.5</ele><time>2026-04-16T15:29:44.994Z</time></trkpt><trkpt lat="43.3558417" lon="11.84483"><ele>254.33333333333334</ele><time>2026-04-16T15:29:46.992Z</time></trkpt><trkpt lat="43.3558583" lon="11.8449383"><ele>254.16666666666669</ele><time>2026-04-16T15:29:48.995Z</time></trkpt><trkpt lat="43.3558767" lon="11.8450433"><ele>254.0</ele><time>2026-04-16T15:29:50.993Z</time></trkpt><trkpt lat="43.3558917" lon="11.84515"><ele>254.00000000000003</ele><time>2026-04-16T15:29:52.992Z</time></trkpt><trkpt lat="43.355895" lon="11.84526"><ele>254.0</ele><time>2026-04-16T15:29:54.991Z</time></trkpt><trkpt lat="43.3558917" lon="11.8453717"><ele>254.0</ele><time>2026-04-16T15:29:56.996Z</time></trkpt><trkpt lat="43.355895" lon="11.845485"><ele>254.0</ele><time>2026-04-16T15:29:58.994Z</time></trkpt><trkpt lat="43.355895" lon="11.8455983"><ele>254.00000000000003</ele><time>2026-04-16T15:30:00.99Z</time></trkpt><trkpt lat="43.3558967" lon="11.845715"><ele>254.0</ele><time>2026-04-16T15:30:02.991Z</time></trkpt><trkpt lat="43.3559117" lon="11.84583"><ele>254.00000000000003</ele><time>2026-04-16T15:30:04.997Z</time></trkpt><trkpt lat="43.355925" lon="11.84595"><ele>254.0</ele><time>2026-04-16T15:30:06.994Z</time></trkpt><trkpt lat="43.35594" lon="11.846065"><ele>254.0</ele><time>2026-04-16T15:30:08.997Z</time></trkpt><trkpt lat="43.3559483" lon="11.846175"><ele>254.0</ele><time>2026-04-16T15:30:10.992Z</time></trkpt><trkpt lat="43.3559633" lon="11.8462833"><ele>254.00000000000003</ele><time>2026-04-16T15:30:12.994Z</time></trkpt><trkpt lat="43.3559683" lon="11.8463983"><ele>254.0</ele><time>2026-04-16T15:30:14.997Z</time></trkpt><trkpt lat="43.3559717" lon="11.8465117"><ele>254.00000000000003</ele><time>2026-04-16T15:30:16.993Z</time></trkpt><trkpt lat="43.355975" lon="11.84662"><ele>254.0</ele><time>2026-04-16T15:30:18.994Z</time></trkpt><trkpt lat="43.3559933" lon="11.8467317"><ele>254.0</ele><time>2026-04-16T15:30:20.993Z</time></trkpt><trkpt lat="43.3560467" lon="11.8468267"><ele>254.0</ele><time>2026-04-16T15:30:22.993Z</time></trkpt><trkpt lat="43.3561267" lon="11.8468533"><ele>254.00000000000003</ele><time>2026-04-16T15:30:24.994Z</time></trkpt><trkpt lat="43.35622" lon="11.8468467"><ele>254.0</ele><time>2026-04-16T15:30:26.995Z</time></trkpt><trkpt lat="43.356315" lon="11.8468283"><ele>254.00000000000003</ele><time>2026-04-16T15:30:28.993Z</time></trkpt><trkpt lat="43.3564033" lon="11.846805"><ele>254.0</ele><time>2026-04-16T15:30:30.993Z</time></trkpt><trkpt lat="43.356485" lon="11.8467867"><ele>254.0</ele><time>2026-04-16T15:30:32.994Z</time></trkpt><trkpt lat="43.35656" lon="11.8467767"><ele>254.0</ele><time>2026-04-16T15:30:34.991Z</time></trkpt><trkpt lat="43.3566367" lon="11.8467467"><ele>254.00000000000003</ele><time>2026-04-16T15:30:36.989Z</time></trkpt><trkpt lat="43.356715" lon="11.8467033"><ele>254.0</ele><time>2026-04-16T15:30:38.991Z</time></trkpt><trkpt lat="43.3568" lon="11.84665"><ele>254.0</ele><time>2026-04-16T15:30:40.99Z</time></trkpt><trkpt lat="43.3568933" lon="11.8466117"><ele>253.99999999999997</ele><time>2026-04-16T15:30:42.99Z</time></trkpt><trkpt lat="43.3569967" lon="11.8465633"><ele>253.99999999999997</ele><time>2026-04-16T15:30:44.991Z</time></trkpt><trkpt lat="43.35711" lon="11.8465183"><ele>254.0</ele><time>2026-04-16T15:30:46.992Z</time></trkpt><trkpt lat="43.3572217" lon="11.8464717"><ele>254.0</ele><time>2026-04-16T15:30:48.991Z</time></trkpt><trkpt lat="43.3573317" lon="11.8464133"><ele>253.6</ele><time>2026-04-16T15:30:50.994Z</time></trkpt><trkpt lat="43.3574517" lon="11.8463717"><ele>253.2</ele><time>2026-04-16T15:30:52.989Z</time></trkpt><trkpt lat="43.35752" lon="11.846355"><ele>252.79999999999998</ele><time>2026-04-16T15:30:53.99Z</time></trkpt><trkpt lat="43.3575867" lon="11.84634"><ele>252.39999999999998</ele><time>2026-04-16T15:30:54.997Z</time></trkpt><trkpt lat="43.3576883" lon="11.8463167"><ele>252.0</ele><time>2026-04-16T15:30:56.994Z</time></trkpt><trkpt lat="43.3577683" lon="11.8463667"><ele>252.0</ele><time>2026-04-16T15:31:00.004Z</time></trkpt><trkpt lat="43.3577883" lon="11.846455"><ele>252.0</ele><time>2026-04-16T15:31:01.994Z</time></trkpt><trkpt lat="43.3578017" lon="11.8465583"><ele>252.0</ele><time>2026-04-16T15:31:03.992Z</time></trkpt><trkpt lat="43.3578217" lon="11.8466617"><ele>252.0</ele><time>2026-04-16T15:31:05.994Z</time></trkpt><trkpt lat="43.3578483" lon="11.8467717"><ele>252.0</ele><time>2026-04-16T15:31:07.993Z</time></trkpt><trkpt lat="43.3578783" lon="11.8468817"><ele>252.0</ele><time>2026-04-16T15:31:09.99Z</time></trkpt><trkpt lat="43.3578983" lon="11.8469933"><ele>252.0</ele><time>2026-04-16T15:31:11.994Z</time></trkpt><trkpt lat="43.357925" lon="11.8470967"><ele>252.0</ele><time>2026-04-16T15:31:13.991Z</time></trkpt><trkpt lat="43.3579517" lon="11.847205"><ele>252.0</ele><time>2026-04-16T15:31:15.99Z</time></trkpt><trkpt lat="43.3579883" lon="11.8473183"><ele>252.0</ele><time>2026-04-16T15:31:17.992Z</time></trkpt><trkpt lat="43.3580133" lon="11.847425"><ele>252.0</ele><time>2026-04-16T15:31:19.989Z</time></trkpt><trkpt lat="43.358045" lon="11.8475367"><ele>252.0</ele><time>2026-04-16T15:31:21.99Z</time></trkpt><trkpt lat="43.3580733" lon="11.84765"><ele>252.0</ele><time>2026-04-16T15:31:23.992Z</time></trkpt><trkpt lat="43.3581017" lon="11.8477567"><ele>252.0</ele><time>2026-04-16T15:31:25.993Z</time></trkpt><trkpt lat="43.35814" lon="11.847865"><ele>252.0</ele><time>2026-04-16T15:31:27.99Z</time></trkpt><trkpt lat="43.3581733" lon="11.8479767"><ele>252.0</ele><time>2026-04-16T15:31:29.993Z</time></trkpt><trkpt lat="43.3581967" lon="11.84809"><ele>252.0</ele><time>2026-04-16T15:31:31.994Z</time></trkpt><trkpt lat="43.3582233" lon="11.8482017"><ele>252.0</ele><time>2026-04-16T15:31:33.993Z</time></trkpt><trkpt lat="43.3582483" lon="11.8483167"><ele>252.0</ele><time>2026-04-16T15:31:35.992Z</time></trkpt><trkpt lat="43.3582717" lon="11.84843"><ele>252.0</ele><time>2026-04-16T15:31:37.991Z</time></trkpt><trkpt lat="43.3583" lon="11.8485383"><ele>252.0</ele><time>2026-04-16T15:31:39.993Z</time></trkpt><trkpt lat="43.35833" lon="11.8486417"><ele>252.0</ele><time>2026-04-16T15:31:41.993Z</time></trkpt><trkpt lat="43.358355" lon="11.8487383"><ele>252.0</ele><time>2026-04-16T15:31:43.994Z</time></trkpt><trkpt lat="43.3583767" lon="11.8488333"><ele>252.0</ele><time>2026-04-16T15:31:45.996Z</time></trkpt><trkpt lat="43.3583967" lon="11.8489233"><ele>251.83333333333334</ele><time>2026-04-16T15:31:47.992Z</time></trkpt><trkpt lat="43.358425" lon="11.8490383"><ele>251.66666666666669</ele><time>2026-04-16T15:31:50.994Z</time></trkpt><trkpt lat="43.35845" lon="11.8491183"><ele>251.5</ele><time>2026-04-16T15:31:52.992Z</time></trkpt><trkpt lat="43.3584917" lon="11.8492183"><ele>251.33333333333334</ele><time>2026-04-16T15:31:54.99Z</time></trkpt><trkpt lat="43.3585317" lon="11.84932"><ele>251.16666666666669</ele><time>2026-04-16T15:31:56.993Z</time></trkpt><trkpt lat="43.3585667" lon="11.8494233"><ele>251.0</ele><time>2026-04-16T15:31:58.994Z</time></trkpt><trkpt lat="43.3585833" lon="11.8495183"><ele>250.99999999999997</ele><time>2026-04-16T15:32:00.994Z</time></trkpt><trkpt lat="43.358615" lon="11.8495967"><ele>251.0</ele><time>2026-04-16T15:32:02.993Z</time></trkpt><trkpt lat="43.3586333" lon="11.8496967"><ele>250.99999999999997</ele><time>2026-04-16T15:32:04.993Z</time></trkpt><trkpt lat="43.3586583" lon="11.8497933"><ele>250.99999999999997</ele><time>2026-04-16T15:32:06.993Z</time></trkpt><trkpt lat="43.3586833" lon="11.8498933"><ele>251.0</ele><time>2026-04-16T15:32:08.994Z</time></trkpt><trkpt lat="43.3587017" lon="11.8499767"><ele>250.99999999999997</ele><time>2026-04-16T15:32:11Z</time></trkpt><trkpt lat="43.3587233" lon="11.8500667"><ele>250.99999999999997</ele><time>2026-04-16T15:32:12.992Z</time></trkpt><trkpt lat="43.3587483" lon="11.8501583"><ele>251.00000000000003</ele><time>2026-04-16T15:32:14.995Z</time></trkpt><trkpt lat="43.358775" lon="11.8502483"><ele>251.0</ele><time>2026-04-16T15:32:16.993Z</time></trkpt><trkpt lat="43.3588067" lon="11.8503333"><ele>251.0</ele><time>2026-04-16T15:32:18.991Z</time></trkpt><trkpt lat="43.35883" lon="11.85043"><ele>251.0</ele><time>2026-04-16T15:32:20.995Z</time></trkpt><trkpt lat="43.3588517" lon="11.8505117"><ele>251.00000000000003</ele><time>2026-04-16T15:32:22.991Z</time></trkpt><trkpt lat="43.35888" lon="11.8506333"><ele>251.0</ele><time>2026-04-16T15:32:25.995Z</time></trkpt><trkpt lat="43.3589017" lon="11.8507467"><ele>250.83333333333334</ele><time>2026-04-16T15:32:28.992Z</time></trkpt><trkpt lat="43.3589117" lon="11.8508467"><ele>250.66666666666669</ele><time>2026-04-16T15:32:30.992Z</time></trkpt><trkpt lat="43.35893" lon="11.850955"><ele>250.5</ele><time>2026-04-16T15:32:32.993Z</time></trkpt><trkpt lat="43.3589533" lon="11.8510751"><ele>250.33333333333331</ele><time>2026-04-16T15:32:36.129Z</time></trkpt><trkpt lat="43.3589773" lon="11.851191"><ele>250.16666666666666</ele><time>2026-04-16T15:32:39.06Z</time></trkpt><trkpt lat="43.3589874" lon="11.8512821"><ele>250.0</ele><time>2026-04-16T15:32:41.054Z</time></trkpt><trkpt lat="43.3590183" lon="11.851381"><ele>250.33333333333331</ele><time>2026-04-16T15:32:43.077Z</time></trkpt><trkpt lat="43.3590405" lon="11.8514757"><ele>250.66666666666666</ele><time>2026-04-16T15:32:45.041Z</time></trkpt><trkpt lat="43.3590674" lon="11.8515774"><ele>251.0</ele><time>2026-04-16T15:32:47.036Z</time></trkpt><trkpt lat="43.35908" lon="11.8517083"><ele>251.33333333333331</ele><time>2026-04-16T15:32:48.994Z</time></trkpt><trkpt lat="43.3591033" lon="11.8518317"><ele>251.66666666666666</ele><time>2026-04-16T15:32:50.993Z</time></trkpt><trkpt lat="43.359135" lon="11.851945"><ele>252.0</ele><time>2026-04-16T15:32:52.992Z</time></trkpt><trkpt lat="43.3591617" lon="11.8520533"><ele>252.0</ele><time>2026-04-16T15:32:54.991Z</time></trkpt><trkpt lat="43.3591917" lon="11.85216"><ele>252.0</ele><time>2026-04-16T15:32:56.994Z</time></trkpt><trkpt lat="43.35922" lon="11.8522683"><ele>252.0</ele><time>2026-04-16T15:32:58.994Z</time></trkpt><trkpt lat="43.3592533" lon="11.8523667"><ele>252.0</ele><time>2026-04-16T15:33:00.994Z</time></trkpt><trkpt lat="43.3592767" lon="11.8524733"><ele>252.0</ele><time>2026-04-16T15:33:02.995Z</time></trkpt><trkpt lat="43.359305" lon="11.8525783"><ele>252.0</ele><time>2026-04-16T15:33:04.993Z</time></trkpt><trkpt lat="43.3593283" lon="11.852685"><ele>252.0</ele><time>2026-04-16T15:33:06.994Z</time></trkpt><trkpt lat="43.359355" lon="11.8528017"><ele>252.0</ele><time>2026-04-16T15:33:08.994Z</time></trkpt><trkpt lat="43.3593817" lon="11.8529117"><ele>252.0</ele><time>2026-04-16T15:33:10.995Z</time></trkpt><trkpt lat="43.35941" lon="11.85301"><ele>252.0</ele><time>2026-04-16T15:33:12.993Z</time></trkpt><trkpt lat="43.3594433" lon="11.85312"><ele>252.0</ele><time>2026-04-16T15:33:14.994Z</time></trkpt><trkpt lat="43.3594804" lon="11.853242"><ele>252.0</ele><time>2026-04-16T15:33:18.112Z</time></trkpt><trkpt lat="43.3595163" lon="11.8533475"><ele>252.0</ele><time>2026-04-16T15:33:20.115Z</time></trkpt><trkpt lat="43.359545" lon="11.85345"><ele>252.0</ele><time>2026-04-16T15:33:21.991Z</time></trkpt><trkpt lat="43.359575" lon="11.8535617"><ele>252.0</ele><time>2026-04-16T15:33:24.992Z</time></trkpt><trkpt lat="43.3596017" lon="11.853645"><ele>252.0</ele><time>2026-04-16T15:33:26.994Z</time></trkpt><trkpt lat="43.3596283" lon="11.8537267"><ele>252.0</ele><time>2026-04-16T15:33:28.992Z</time></trkpt><trkpt lat="43.3596617" lon="11.8538317"><ele>252.0</ele><time>2026-04-16T15:33:31.996Z</time></trkpt><trkpt lat="43.359695" lon="11.8539567"><ele>252.33333333333334</ele><time>2026-04-16T15:33:34.991Z</time></trkpt><trkpt lat="43.3597217" lon="11.8540667"><ele>252.66666666666669</ele><time>2026-04-16T15:33:37.993Z</time></trkpt><trkpt lat="43.3597483" lon="11.8541817"><ele>253.0</ele><time>2026-04-16T15:33:40.992Z</time></trkpt><trkpt lat="43.3597783" lon="11.8542933"><ele>253.33333333333334</ele><time>2026-04-16T15:33:43.992Z</time></trkpt><trkpt lat="43.3598117" lon="11.85441"><ele>253.66666666666669</ele><time>2026-04-16T15:33:46.99Z</time></trkpt><trkpt lat="43.3598417" lon="11.8544867"><ele>254.0</ele><time>2026-04-16T15:33:48.994Z</time></trkpt><trkpt lat="43.359875" lon="11.854575"><ele>254.00000000000003</ele><time>2026-04-16T15:33:51.995Z</time></trkpt><trkpt lat="43.35991" lon="11.85467"><ele>254.0</ele><time>2026-04-16T15:33:55.995Z</time></trkpt><trkpt lat="43.3599267" lon="11.85476"><ele>254.0</ele><time>2026-04-16T15:33:57.996Z</time></trkpt><trkpt lat="43.3599467" lon="11.8548817"><ele>254.0</ele><time>2026-04-16T15:34:00.994Z</time></trkpt><trkpt lat="43.359975" lon="11.854985"><ele>254.00000000000003</ele><time>2026-04-16T15:34:03.993Z</time></trkpt><trkpt lat="43.360005" lon="11.8550683"><ele>254.0</ele><time>2026-04-16T15:34:06.994Z</time></trkpt><trkpt lat="43.3600417" lon="11.855155"><ele>253.83333333333334</ele><time>2026-04-16T15:34:09.994Z</time></trkpt><trkpt lat="43.36007" lon="11.8552517"><ele>253.66666666666669</ele><time>2026-04-16T15:34:13.991Z</time></trkpt><trkpt lat="43.3601033" lon="11.8553517"><ele>253.5</ele><time>2026-04-16T15:34:17.991Z</time></trkpt><trkpt lat="43.3601467" lon="11.8554383"><ele>253.33333333333331</ele><time>2026-04-16T15:34:21.992Z</time></trkpt><trkpt lat="43.3602" lon="11.855525"><ele>253.16666666666666</ele><time>2026-04-16T15:34:25.991Z</time></trkpt><trkpt lat="43.3602567" lon="11.8556"><ele>253.0</ele><time>2026-04-16T15:34:29.991Z</time></trkpt><trkpt lat="43.360305" lon="11.8556633"><ele>252.99999999999997</ele><time>2026-04-16T15:34:32.995Z</time></trkpt><trkpt lat="43.36037" lon="11.85573"><ele>253.0</ele><time>2026-04-16T15:34:36.991Z</time></trkpt><trkpt lat="43.3604217" lon="11.8558083"><ele>253.0</ele><time>2026-04-16T15:34:40.992Z</time></trkpt><trkpt lat="43.3604833" lon="11.8558717"><ele>253.0</ele><time>2026-04-16T15:34:43.992Z</time></trkpt><trkpt lat="43.36054" lon="11.8559217"><ele>252.99999999999997</ele><time>2026-04-16T15:34:46.992Z</time></trkpt><trkpt lat="43.3606017" lon="11.8559867"><ele>253.0</ele><time>2026-04-16T15:34:49.991Z</time></trkpt><trkpt lat="43.360665" lon="11.8560333"><ele>253.49999999999997</ele><time>2026-04-16T15:34:52.991Z</time></trkpt><trkpt lat="43.3607267" lon="11.8560867"><ele>254.0</ele><time>2026-04-16T15:34:55.991Z</time></trkpt><trkpt lat="43.3607917" lon="11.856135"><ele>254.5</ele><time>2026-04-16T15:34:58.991Z</time></trkpt><trkpt lat="43.360855" lon="11.856195"><ele>255.0</ele><time>2026-04-16T15:35:01.99Z</time></trkpt><trkpt lat="43.36093" lon="11.8562533"><ele>255.49999999999997</ele><time>2026-04-16T15:35:04.994Z</time></trkpt><trkpt lat="43.3609867" lon="11.8563183"><ele>256.0</ele><time>2026-04-16T15:35:07.993Z</time></trkpt><trkpt lat="43.3610483" lon="11.8563733"><ele>256.0</ele><time>2026-04-16T15:35:10.989Z</time></trkpt><trkpt lat="43.3611233" lon="11.856425"><ele>255.99999999999997</ele><time>2026-04-16T15:35:14.994Z</time></trkpt><trkpt lat="43.3611783" lon="11.856475"><ele>256.0</ele><time>2026-04-16T15:35:17.995Z</time></trkpt><trkpt lat="43.3612333" lon="11.8565217"><ele>256.0</ele><time>2026-04-16T15:35:20.993Z</time></trkpt><trkpt lat="43.3612883" lon="11.8565733"><ele>255.99999999999997</ele><time>2026-04-16T15:35:23.994Z</time></trkpt><trkpt lat="43.3613483" lon="11.8566367"><ele>256.0</ele><time>2026-04-16T15:35:26.991Z</time></trkpt><trkpt lat="43.3614033" lon="11.856695"><ele>256.0</ele><time>2026-04-16T15:35:29.996Z</time></trkpt><trkpt lat="43.361455" lon="11.8567467"><ele>255.99999999999997</ele><time>2026-04-16T15:35:32.993Z</time></trkpt><trkpt lat="43.3615133" lon="11.8568067"><ele>256.0</ele><time>2026-04-16T15:35:35.994Z</time></trkpt><trkpt lat="43.361575" lon="11.8568783"><ele>256.0</ele><time>2026-04-16T15:35:38.993Z</time></trkpt><trkpt lat="43.36165" lon="11.8569517"><ele>256.0</ele><time>2026-04-16T15:35:41.992Z</time></trkpt><trkpt lat="43.3617033" lon="11.8570017"><ele>255.99999999999997</ele><time>2026-04-16T15:35:43.997Z</time></trkpt><trkpt lat="43.361755" lon="11.857055"><ele>256.0</ele><time>2026-04-16T15:35:45.99Z</time></trkpt><trkpt lat="43.3618133" lon="11.8571233"><ele>256.0</ele><time>2026-04-16T15:35:48.992Z</time></trkpt><trkpt lat="43.36187" lon="11.857195"><ele>255.99999999999997</ele><time>2026-04-16T15:35:51.991Z</time></trkpt><trkpt lat="43.3619217" lon="11.857255"><ele>256.0</ele><time>2026-04-16T15:35:54.992Z</time></trkpt><trkpt lat="43.36198" lon="11.8573267"><ele>256.0</ele><time>2026-04-16T15:35:57.989Z</time></trkpt><trkpt lat="43.3620517" lon="11.857395"><ele>255.99999999999997</ele><time>2026-04-16T15:36:00.992Z</time></trkpt><trkpt lat="43.36211" lon="11.8574467"><ele>256.0</ele><time>2026-04-16T15:36:02.991Z</time></trkpt><trkpt lat="43.362165" lon="11.8575017"><ele>256.0</ele><time>2026-04-16T15:36:04.993Z</time></trkpt><trkpt lat="43.36222" lon="11.857545"><ele>256.0</ele><time>2026-04-16T15:36:06.993Z</time></trkpt><trkpt lat="43.3622917" lon="11.8576117"><ele>256.0</ele><time>2026-04-16T15:36:09.992Z</time></trkpt><trkpt lat="43.3623617" lon="11.8576733"><ele>256.0</ele><time>2026-04-16T15:36:12.991Z</time></trkpt><trkpt lat="43.362455" lon="11.85776"><ele>256.0</ele><time>2026-04-16T15:36:16.993Z</time></trkpt><trkpt lat="43.3625267" lon="11.8578183"><ele>256.0</ele><time>2026-04-16T15:36:19.996Z</time></trkpt><trkpt lat="43.3626" lon="11.857875"><ele>256.3333333333333</ele><time>2026-04-16T15:36:22.991Z</time></trkpt><trkpt lat="43.362655" lon="11.857925"><ele>256.66666666666663</ele><time>2026-04-16T15:36:24.996Z</time></trkpt><trkpt lat="43.3627367" lon="11.8579883"><ele>257.0</ele><time>2026-04-16T15:36:27.992Z</time></trkpt><trkpt lat="43.3628183" lon="11.858045"><ele>257.3333333333333</ele><time>2026-04-16T15:36:30.995Z</time></trkpt><trkpt lat="43.362895" lon="11.8581167"><ele>257.6666666666667</ele><time>2026-04-16T15:36:33.993Z</time></trkpt><trkpt lat="43.3629667" lon="11.8581867"><ele>258.0</ele><time>2026-04-16T15:36:36.993Z</time></trkpt><trkpt lat="43.3630267" lon="11.8582333"><ele>257.8333333333333</ele><time>2026-04-16T15:36:38.993Z</time></trkpt><trkpt lat="43.36309" lon="11.85829"><ele>257.6666666666667</ele><time>2026-04-16T15:36:40.994Z</time></trkpt><trkpt lat="43.363175" lon="11.8583517"><ele>257.5</ele><time>2026-04-16T15:36:43.997Z</time></trkpt><trkpt lat="43.363235" lon="11.85841"><ele>257.33333333333337</ele><time>2026-04-16T15:36:45.993Z</time></trkpt><trkpt lat="43.3632917" lon="11.8584833"><ele>257.1666666666667</ele><time>2026-04-16T15:36:47.992Z</time></trkpt><trkpt lat="43.3633433" lon="11.85857"><ele>257.0</ele><time>2026-04-16T15:36:49.991Z</time></trkpt><trkpt lat="43.3633867" lon="11.858655"><ele>257.0</ele><time>2026-04-16T15:36:51.993Z</time></trkpt><trkpt lat="43.3634267" lon="11.8587383"><ele>257.0</ele><time>2026-04-16T15:36:53.991Z</time></trkpt><trkpt lat="43.363465" lon="11.8588133"><ele>257.0</ele><time>2026-04-16T15:36:55.993Z</time></trkpt><trkpt lat="43.363505" lon="11.8588917"><ele>257.0</ele><time>2026-04-16T15:36:57.993Z</time></trkpt><trkpt lat="43.3635417" lon="11.8589667"><ele>257.0</ele><time>2026-04-16T15:36:59.992Z</time></trkpt><trkpt lat="43.36358" lon="11.8590783"><ele>257.0</ele><time>2026-04-16T15:37:01.992Z</time></trkpt><trkpt lat="43.363615" lon="11.8591733"><ele>257.0</ele><time>2026-04-16T15:37:03.996Z</time></trkpt><trkpt lat="43.3636517" lon="11.8592717"><ele>257.1666666666667</ele><time>2026-04-16T15:37:06.992Z</time></trkpt><trkpt lat="43.3636883" lon="11.8593817"><ele>257.33333333333337</ele><time>2026-04-16T15:37:09.991Z</time></trkpt><trkpt lat="43.3637233" lon="11.8595"><ele>257.5</ele><time>2026-04-16T15:37:12.996Z</time></trkpt><trkpt lat="43.36376" lon="11.8595967"><ele>257.6666666666667</ele><time>2026-04-16T15:37:14.998Z</time></trkpt><trkpt lat="43.3637967" lon="11.859685"><ele>257.8333333333333</ele><time>2026-04-16T15:37:16.992Z</time></trkpt><trkpt lat="43.36384" lon="11.8597883"><ele>258.0</ele><time>2026-04-16T15:37:18.993Z</time></trkpt><trkpt lat="43.3638833" lon="11.859885"><ele>258.0</ele><time>2026-04-16T15:37:20.993Z</time></trkpt><trkpt lat="43.3639233" lon="11.859975"><ele>258.0</ele><time>2026-04-16T15:37:22.991Z</time></trkpt><trkpt lat="43.3639683" lon="11.8600717"><ele>258.0</ele><time>2026-04-16T15:37:24.995Z</time></trkpt><trkpt lat="43.3640267" lon="11.8601567"><ele>258.0</ele><time>2026-04-16T15:37:26.994Z</time></trkpt><trkpt lat="43.3640833" lon="11.860235"><ele>258.0</ele><time>2026-04-16T15:37:28.992Z</time></trkpt><trkpt lat="43.3641383" lon="11.8603217"><ele>258.0</ele><time>2026-04-16T15:37:30.992Z</time></trkpt><trkpt lat="43.3641917" lon="11.8603933"><ele>258.4285714285714</ele><time>2026-04-16T15:37:32.992Z</time></trkpt><trkpt lat="43.3642467" lon="11.8604517"><ele>258.85714285714283</ele><time>2026-04-16T15:37:34.992Z</time></trkpt><trkpt lat="43.3643117" lon="11.8604933"><ele>259.2857142857143</ele><time>2026-04-16T15:37:36.994Z</time></trkpt><trkpt lat="43.3643733" lon="11.8605483"><ele>259.71428571428567</ele><time>2026-04-16T15:37:38.993Z</time></trkpt><trkpt lat="43.3644283" lon="11.8606017"><ele>260.1428571428571</ele><time>2026-04-16T15:37:40.993Z</time></trkpt><trkpt lat="43.364485" lon="11.860655"><ele>260.57142857142856</ele><time>2026-04-16T15:37:42.996Z</time></trkpt><trkpt lat="43.3645483" lon="11.8607"><ele>261.0</ele><time>2026-04-16T15:37:44.997Z</time></trkpt><trkpt lat="43.364615" lon="11.8607467"><ele>261.0</ele><time>2026-04-16T15:37:46.992Z</time></trkpt><trkpt lat="43.3646833" lon="11.860785"><ele>261.0</ele><time>2026-04-16T15:37:48.997Z</time></trkpt><trkpt lat="43.3647467" lon="11.8608233"><ele>261.0</ele><time>2026-04-16T15:37:50.992Z</time></trkpt><trkpt lat="43.3648133" lon="11.8608583"><ele>261.0</ele><time>2026-04-16T15:37:52.991Z</time></trkpt><trkpt lat="43.3648783" lon="11.86089"><ele>261.0</ele><time>2026-04-16T15:37:54.994Z</time></trkpt><trkpt lat="43.3649467" lon="11.8609333"><ele>261.0</ele><time>2026-04-16T15:37:57.002Z</time></trkpt><trkpt lat="43.3650167" lon="11.860965"><ele>261.0</ele><time>2026-04-16T15:37:58.991Z</time></trkpt><trkpt lat="43.3650867" lon="11.861005"><ele>261.0</ele><time>2026-04-16T15:38:00.995Z</time></trkpt><trkpt lat="43.3651533" lon="11.8610417"><ele>261.0</ele><time>2026-04-16T15:38:02.988Z</time></trkpt><trkpt lat="43.3652267" lon="11.8610833"><ele>261.0</ele><time>2026-04-16T15:38:04.986Z</time></trkpt><trkpt lat="43.3653083" lon="11.8611267"><ele>261.0</ele><time>2026-04-16T15:38:06.989Z</time></trkpt><trkpt lat="43.3653717" lon="11.861145"><ele>261.0</ele><time>2026-04-16T15:38:07.987Z</time></trkpt><trkpt lat="43.3654883" lon="11.86118"><ele>261.0</ele><time>2026-04-16T15:38:09.987Z</time></trkpt><trkpt lat="43.3655583" lon="11.861205"><ele>261.2</ele><time>2026-04-16T15:38:10.994Z</time></trkpt><trkpt lat="43.365665" lon="11.861265"><ele>261.40000000000003</ele><time>2026-04-16T15:38:12.992Z</time></trkpt><trkpt lat="43.36576" lon="11.8613283"><ele>261.6</ele><time>2026-04-16T15:38:14.996Z</time></trkpt><trkpt lat="43.3658233" lon="11.8614067"><ele>261.8</ele><time>2026-04-16T15:38:16.99Z</time></trkpt><trkpt lat="43.365885" lon="11.8614433"><ele>262.0</ele><time>2026-04-16T15:38:18.99Z</time></trkpt><trkpt lat="43.365965" lon="11.8614583"><ele>262.0</ele><time>2026-04-16T15:38:21.994Z</time></trkpt><trkpt lat="43.3660317" lon="11.86148"><ele>262.0</ele><time>2026-04-16T15:38:24.994Z</time></trkpt><trkpt lat="43.366105" lon="11.8615"><ele>262.0</ele><time>2026-04-16T15:38:27.993Z</time></trkpt><trkpt lat="43.36617" lon="11.86152"><ele>262.0</ele><time>2026-04-16T15:38:30.991Z</time></trkpt><trkpt lat="43.36624" lon="11.8615467"><ele>262.0</ele><time>2026-04-16T15:38:34.991Z</time></trkpt><trkpt lat="43.3662983" lon="11.8615917"><ele>262.0</ele><time>2026-04-16T15:38:39.989Z</time></trkpt><trkpt lat="43.3662333" lon="11.8616183"><ele>262.0</ele><time>2026-04-16T15:38:48.994Z</time></trkpt><trkpt lat="43.3661483" lon="11.86161"><ele>262.0</ele><time>2026-04-16T15:40:36.994Z</time></trkpt><trkpt lat="43.3662383" lon="11.861565"><ele>262.0</ele><time>2026-04-16T15:41:54.992Z</time></trkpt><trkpt lat="43.3663017" lon="11.86158"><ele>262.0</ele><time>2026-04-16T15:41:58.995Z</time></trkpt><trkpt lat="43.366365" lon="11.861635"><ele>262.0</ele><time>2026-04-16T15:42:02.994Z</time></trkpt><trkpt lat="43.36644" lon="11.8616917"><ele>262.0</ele><time>2026-04-16T15:42:05.993Z</time></trkpt><trkpt lat="43.366525" lon="11.861735"><ele>262.0</ele><time>2026-04-16T15:42:08.992Z</time></trkpt><trkpt lat="43.3666067" lon="11.8618117"><ele>262.14285714285717</ele><time>2026-04-16T15:42:11.994Z</time></trkpt><trkpt lat="43.3666617" lon="11.8618667"><ele>262.28571428571433</ele><time>2026-04-16T15:42:14Z</time></trkpt><trkpt lat="43.3667317" lon="11.8618933"><ele>262.42857142857144</ele><time>2026-04-16T15:42:15.993Z</time></trkpt><trkpt lat="43.366795" lon="11.8619317"><ele>262.57142857142856</ele><time>2026-04-16T15:42:17.993Z</time></trkpt><trkpt lat="43.3668583" lon="11.8619867"><ele>262.71428571428567</ele><time>2026-04-16T15:42:19.995Z</time></trkpt><trkpt lat="43.3669167" lon="11.862035"><ele>262.85714285714283</ele><time>2026-04-16T15:42:21.992Z</time></trkpt><trkpt lat="43.3669783" lon="11.862075"><ele>263.0</ele><time>2026-04-16T15:42:23.99Z</time></trkpt><trkpt lat="43.36704" lon="11.8621067"><ele>263.0</ele><time>2026-04-16T15:42:25.992Z</time></trkpt><trkpt lat="43.3671133" lon="11.8621533"><ele>263.0</ele><time>2026-04-16T15:42:28.992Z</time></trkpt><trkpt lat="43.3671767" lon="11.8622217"><ele>263.0</ele><time>2026-04-16T15:42:31.993Z</time></trkpt><trkpt lat="43.367235" lon="11.86227"><ele>263.0</ele><time>2026-04-16T15:42:33.995Z</time></trkpt><trkpt lat="43.3672933" lon="11.86231"><ele>263.0</ele><time>2026-04-16T15:42:35.992Z</time></trkpt><trkpt lat="43.3673583" lon="11.8623567"><ele>263.0</ele><time>2026-04-16T15:42:37.995Z</time></trkpt><trkpt lat="43.3674167" lon="11.8624067"><ele>263.0</ele><time>2026-04-16T15:42:39.992Z</time></trkpt><trkpt lat="43.3674783" lon="11.862465"><ele>263.1666666666667</ele><time>2026-04-16T15:42:41.991Z</time></trkpt><trkpt lat="43.3675383" lon="11.862505"><ele>263.33333333333337</ele><time>2026-04-16T15:42:43.99Z</time></trkpt><trkpt lat="43.367595" lon="11.8625467"><ele>263.5</ele><time>2026-04-16T15:42:45.992Z</time></trkpt><trkpt lat="43.367655" lon="11.86259"><ele>263.6666666666667</ele><time>2026-04-16T15:42:47.996Z</time></trkpt><trkpt lat="43.3677383" lon="11.862645"><ele>263.8333333333333</ele><time>2026-04-16T15:42:50.994Z</time></trkpt><trkpt lat="43.3678217" lon="11.8626983"><ele>264.0</ele><time>2026-04-16T15:42:53.993Z</time></trkpt><trkpt lat="43.3679033" lon="11.862745"><ele>264.0</ele><time>2026-04-16T15:42:56.995Z</time></trkpt><trkpt lat="43.3679817" lon="11.862805"><ele>264.0</ele><time>2026-04-16T15:42:59.994Z</time></trkpt><trkpt lat="43.3680583" lon="11.8628683"><ele>264.0</ele><time>2026-04-16T15:43:02.994Z</time></trkpt><trkpt lat="43.3681033" lon="11.8629317"><ele>264.0</ele><time>2026-04-16T15:43:04.993Z</time></trkpt><trkpt lat="43.3681533" lon="11.8629883"><ele>264.0</ele><time>2026-04-16T15:43:06.993Z</time></trkpt><trkpt lat="43.3682217" lon="11.863055"><ele>264.0</ele><time>2026-04-16T15:43:09.993Z</time></trkpt><trkpt lat="43.3682767" lon="11.8631033"><ele>264.1428571428571</ele><time>2026-04-16T15:43:11.996Z</time></trkpt><trkpt lat="43.368335" lon="11.863145"><ele>264.2857142857143</ele><time>2026-04-16T15:43:13.989Z</time></trkpt><trkpt lat="43.3683933" lon="11.86319"><ele>264.42857142857144</ele><time>2026-04-16T15:43:15.992Z</time></trkpt><trkpt lat="43.3684617" lon="11.8632433"><ele>264.57142857142856</ele><time>2026-04-16T15:43:17.991Z</time></trkpt><trkpt lat="43.368525" lon="11.8633067"><ele>264.7142857142857</ele><time>2026-04-16T15:43:19.992Z</time></trkpt><trkpt lat="43.368585" lon="11.8633683"><ele>264.85714285714283</ele><time>2026-04-16T15:43:21.991Z</time></trkpt><trkpt lat="43.36865" lon="11.86343"><ele>265.0</ele><time>2026-04-16T15:43:23.994Z</time></trkpt><trkpt lat="43.3687117" lon="11.8634833"><ele>265.16666666666663</ele><time>2026-04-16T15:43:25.993Z</time></trkpt><trkpt lat="43.3687767" lon="11.8635367"><ele>265.3333333333333</ele><time>2026-04-16T15:43:27.991Z</time></trkpt><trkpt lat="43.3688417" lon="11.863595"><ele>265.5</ele><time>2026-04-16T15:43:29.994Z</time></trkpt><trkpt lat="43.3689083" lon="11.863645"><ele>265.6666666666667</ele><time>2026-04-16T15:43:31.994Z</time></trkpt><trkpt lat="43.3689767" lon="11.8637117"><ele>265.83333333333337</ele><time>2026-04-16T15:43:33.994Z</time></trkpt><trkpt lat="43.3690533" lon="11.8637683"><ele>266.0</ele><time>2026-04-16T15:43:35.992Z</time></trkpt><trkpt lat="43.36912" lon="11.86383"><ele>266.33333333333337</ele><time>2026-04-16T15:43:37.992Z</time></trkpt><trkpt lat="43.3691883" lon="11.8638883"><ele>266.6666666666667</ele><time>2026-04-16T15:43:39.996Z</time></trkpt><trkpt lat="43.3692533" lon="11.8639433"><ele>267.0</ele><time>2026-04-16T15:43:41.992Z</time></trkpt><trkpt lat="43.3693183" lon="11.86399"><ele>267.3333333333333</ele><time>2026-04-16T15:43:43.995Z</time></trkpt><trkpt lat="43.3693917" lon="11.8640417"><ele>267.66666666666663</ele><time>2026-04-16T15:43:45.994Z</time></trkpt><trkpt lat="43.3694583" lon="11.8640867"><ele>268.0</ele><time>2026-04-16T15:43:47.994Z</time></trkpt><trkpt lat="43.36953" lon="11.8641333"><ele>268.0</ele><time>2026-04-16T15:43:49.995Z</time></trkpt><trkpt lat="43.3696017" lon="11.8641817"><ele>268.0</ele><time>2026-04-16T15:43:51.991Z</time></trkpt><trkpt lat="43.3696717" lon="11.8642233"><ele>268.0</ele><time>2026-04-16T15:43:53.991Z</time></trkpt><trkpt lat="43.3697367" lon="11.8642667"><ele>268.0</ele><time>2026-04-16T15:43:55.993Z</time></trkpt><trkpt lat="43.369805" lon="11.8643033"><ele>268.0</ele><time>2026-04-16T15:43:57.993Z</time></trkpt><trkpt lat="43.3698733" lon="11.86434"><ele>268.0</ele><time>2026-04-16T15:43:59.997Z</time></trkpt><trkpt lat="43.36994" lon="11.8643817"><ele>268.0</ele><time>2026-04-16T15:44:01.994Z</time></trkpt><trkpt lat="43.3700117" lon="11.8644283"><ele>268.16666666666663</ele><time>2026-04-16T15:44:03.991Z</time></trkpt><trkpt lat="43.37008" lon="11.86447"><ele>268.3333333333333</ele><time>2026-04-16T15:44:05.997Z</time></trkpt><trkpt lat="43.3701467" lon="11.8645233"><ele>268.5</ele><time>2026-04-16T15:44:07.994Z</time></trkpt><trkpt lat="43.3702117" lon="11.8645767"><ele>268.6666666666667</ele><time>2026-04-16T15:44:09.993Z</time></trkpt><trkpt lat="43.37028" lon="11.8646267"><ele>268.83333333333337</ele><time>2026-04-16T15:44:11.993Z</time></trkpt><trkpt lat="43.370345" lon="11.8646767"><ele>269.0</ele><time>2026-04-16T15:44:13.994Z</time></trkpt><trkpt lat="43.3704067" lon="11.86473"><ele>269.0</ele><time>2026-04-16T15:44:15.996Z</time></trkpt><trkpt lat="43.3704683" lon="11.8647817"><ele>269.0</ele><time>2026-04-16T15:44:17.991Z</time></trkpt><trkpt lat="43.3705367" lon="11.8648367"><ele>269.0</ele><time>2026-04-16T15:44:19.994Z</time></trkpt><trkpt lat="43.3706033" lon="11.8648983"><ele>269.0</ele><time>2026-04-16T15:44:21.994Z</time></trkpt><trkpt lat="43.3706667" lon="11.86496"><ele>269.0</ele><time>2026-04-16T15:44:23.993Z</time></trkpt><trkpt lat="43.370735" lon="11.8650233"><ele>269.0</ele><time>2026-04-16T15:44:25.994Z</time></trkpt><trkpt lat="43.3707983" lon="11.86509"><ele>269.5</ele><time>2026-04-16T15:44:27.996Z</time></trkpt><trkpt lat="43.3708567" lon="11.8651567"><ele>270.0</ele><time>2026-04-16T15:44:29.996Z</time></trkpt><trkpt lat="43.370915" lon="11.86523"><ele>270.5</ele><time>2026-04-16T15:44:31.993Z</time></trkpt><trkpt lat="43.37097" lon="11.8653067"><ele>271.0</ele><time>2026-04-16T15:44:33.992Z</time></trkpt><trkpt lat="43.3710183" lon="11.8653833"><ele>271.5</ele><time>2026-04-16T15:44:35.994Z</time></trkpt><trkpt lat="43.371065" lon="11.8654583"><ele>272.0</ele><time>2026-04-16T15:44:37.992Z</time></trkpt><trkpt lat="43.3711067" lon="11.8655533"><ele>271.99999999999994</ele><time>2026-04-16T15:44:39.991Z</time></trkpt><trkpt lat="43.3711567" lon="11.8656333"><ele>272.0</ele><time>2026-04-16T15:44:41.993Z</time></trkpt><trkpt lat="43.3712133" lon="11.8657083"><ele>272.0</ele><time>2026-04-16T15:44:43.996Z</time></trkpt><trkpt lat="43.3712667" lon="11.865795"><ele>272.0</ele><time>2026-04-16T15:44:45.991Z</time></trkpt><trkpt lat="43.3713133" lon="11.865885"><ele>272.0</ele><time>2026-04-16T15:44:47.993Z</time></trkpt><trkpt lat="43.3713467" lon="11.8659617"><ele>271.99999999999994</ele><time>2026-04-16T15:44:49.993Z</time></trkpt><trkpt lat="43.3713883" lon="11.8660283"><ele>272.0</ele><time>2026-04-16T15:44:51.995Z</time></trkpt><trkpt lat="43.37143" lon="11.8661083"><ele>272.0</ele><time>2026-04-16T15:44:54.988Z</time></trkpt><trkpt lat="43.37149" lon="11.8661783"><ele>272.0</ele><time>2026-04-16T15:44:57.995Z</time></trkpt><trkpt lat="43.371535" lon="11.8662567"><ele>272.0</ele><time>2026-04-16T15:44:59.996Z</time></trkpt><trkpt lat="43.3715817" lon="11.8663367"><ele>272.0</ele><time>2026-04-16T15:45:01.994Z</time></trkpt><trkpt lat="43.3716267" lon="11.8664183"><ele>272.0</ele><time>2026-04-16T15:45:03.994Z</time></trkpt><trkpt lat="43.371675" lon="11.8664983"><ele>272.0</ele><time>2026-04-16T15:45:05.992Z</time></trkpt><trkpt lat="43.3717217" lon="11.866585"><ele>272.0</ele><time>2026-04-16T15:45:07.993Z</time></trkpt><trkpt lat="43.3717733" lon="11.8666617"><ele>272.0</ele><time>2026-04-16T15:45:09.991Z</time></trkpt><trkpt lat="43.37183" lon="11.866745"><ele>272.0</ele><time>2026-04-16T15:45:11.999Z</time></trkpt><trkpt lat="43.3718817" lon="11.8668383"><ele>272.0</ele><time>2026-04-16T15:45:13.994Z</time></trkpt><trkpt lat="43.37193" lon="11.8669317"><ele>272.0</ele><time>2026-04-16T15:45:15.994Z</time></trkpt><trkpt lat="43.3719817" lon="11.86702"><ele>272.0</ele><time>2026-04-16T15:45:17.998Z</time></trkpt><trkpt lat="43.3720283" lon="11.8671067"><ele>272.33333333333337</ele><time>2026-04-16T15:45:19.993Z</time></trkpt><trkpt lat="43.3720733" lon="11.8671933"><ele>272.6666666666667</ele><time>2026-04-16T15:45:21.993Z</time></trkpt><trkpt lat="43.3721217" lon="11.8672817"><ele>273.0</ele><time>2026-04-16T15:45:23.992Z</time></trkpt><trkpt lat="43.3721733" lon="11.8673633"><ele>273.3333333333333</ele><time>2026-04-16T15:45:25.992Z</time></trkpt><trkpt lat="43.372225" lon="11.867445"><ele>273.66666666666663</ele><time>2026-04-16T15:45:27.991Z</time></trkpt><trkpt lat="43.3722817" lon="11.8675217"><ele>274.0</ele><time>2026-04-16T15:45:29.992Z</time></trkpt><trkpt lat="43.3723367" lon="11.8676017"><ele>274.66666666666663</ele><time>2026-04-16T15:45:31.993Z</time></trkpt><trkpt lat="43.3723917" lon="11.86768"><ele>275.3333333333333</ele><time>2026-04-16T15:45:33.991Z</time></trkpt><trkpt lat="43.37245" lon="11.8677533"><ele>276.0</ele><time>2026-04-16T15:45:35.993Z</time></trkpt><trkpt lat="43.3725117" lon="11.8678283"><ele>276.6666666666667</ele><time>2026-04-16T15:45:37.994Z</time></trkpt><trkpt lat="43.3725667" lon="11.8679033"><ele>277.33333333333337</ele><time>2026-04-16T15:45:39.994Z</time></trkpt><trkpt lat="43.3726183" lon="11.86798"><ele>278.0</ele><time>2026-04-16T15:45:41.994Z</time></trkpt><trkpt lat="43.3726667" lon="11.8680583"><ele>278.0</ele><time>2026-04-16T15:45:43.993Z</time></trkpt><trkpt lat="43.3727167" lon="11.86814"><ele>278.0</ele><time>2026-04-16T15:45:45.993Z</time></trkpt><trkpt lat="43.3727583" lon="11.8682283"><ele>278.0</ele><time>2026-04-16T15:45:47.991Z</time></trkpt><trkpt lat="43.3728033" lon="11.8683083"><ele>278.0</ele><time>2026-04-16T15:45:49.991Z</time></trkpt><trkpt lat="43.3728467" lon="11.8683833"><ele>278.0</ele><time>2026-04-16T15:45:51.995Z</time></trkpt><trkpt lat="43.37289" lon="11.86846"><ele>278.0</ele><time>2026-04-16T15:45:53.99Z</time></trkpt><trkpt lat="43.372935" lon="11.86853"><ele>278.0</ele><time>2026-04-16T15:45:55.996Z</time></trkpt><trkpt lat="43.372975" lon="11.8686"><ele>278.33333333333337</ele><time>2026-04-16T15:45:57.996Z</time></trkpt><trkpt lat="43.3730167" lon="11.8686683"><ele>278.6666666666667</ele><time>2026-04-16T15:45:59.992Z</time></trkpt><trkpt lat="43.3730733" lon="11.8687633"><ele>279.0</ele><time>2026-04-16T15:46:02.994Z</time></trkpt><trkpt lat="43.3731367" lon="11.86885"><ele>279.3333333333333</ele><time>2026-04-16T15:46:05.994Z</time></trkpt><trkpt lat="43.373195" lon="11.8689433"><ele>279.66666666666663</ele><time>2026-04-16T15:46:08.993Z</time></trkpt><trkpt lat="43.373235" lon="11.8690467"><ele>280.0</ele><time>2026-04-16T15:46:11.989Z</time></trkpt><trkpt lat="43.3732817" lon="11.86915"><ele>280.14285714285717</ele><time>2026-04-16T15:46:14.994Z</time></trkpt><trkpt lat="43.37333" lon="11.8692583"><ele>280.2857142857143</ele><time>2026-04-16T15:46:17.994Z</time></trkpt><trkpt lat="43.37337" lon="11.86933"><ele>280.42857142857144</ele><time>2026-04-16T15:46:19.993Z</time></trkpt><trkpt lat="43.3734183" lon="11.869395"><ele>280.57142857142856</ele><time>2026-04-16T15:46:22.993Z</time></trkpt><trkpt lat="43.3734667" lon="11.8694767"><ele>280.7142857142857</ele><time>2026-04-16T15:46:33.993Z</time></trkpt><trkpt lat="43.3734917" lon="11.86956"><ele>280.8571428571429</ele><time>2026-04-16T15:46:37.991Z</time></trkpt><trkpt lat="43.37353" lon="11.8696483"><ele>281.0</ele><time>2026-04-16T15:46:41.991Z</time></trkpt><trkpt lat="43.3735733" lon="11.8697133"><ele>281.14285714285717</ele><time>2026-04-16T15:46:44.993Z</time></trkpt><trkpt lat="43.373635" lon="11.86978"><ele>281.2857142857143</ele><time>2026-04-16T15:46:48.991Z</time></trkpt><trkpt lat="43.373695" lon="11.8698517"><ele>281.42857142857144</ele><time>2026-04-16T15:46:51.991Z</time></trkpt><trkpt lat="43.3737467" lon="11.869925"><ele>281.57142857142856</ele><time>2026-04-16T15:46:54.992Z</time></trkpt><trkpt lat="43.3737833" lon="11.8699983"><ele>281.7142857142857</ele><time>2026-04-16T15:46:57.992Z</time></trkpt><trkpt lat="43.37383" lon="11.8700817"><ele>281.8571428571429</ele><time>2026-04-16T15:47:02.991Z</time></trkpt><trkpt lat="43.3738783" lon="11.8701483"><ele>282.0</ele><time>2026-04-16T15:47:06.994Z</time></trkpt><trkpt lat="43.3739317" lon="11.87024"><ele>282.1666666666667</ele><time>2026-04-16T15:47:17.994Z</time></trkpt><trkpt lat="43.3739767" lon="11.87033"><ele>282.3333333333333</ele><time>2026-04-16T15:48:46.99Z</time></trkpt><trkpt lat="43.3740517" lon="11.8703267"><ele>282.5</ele><time>2026-04-16T15:48:51.991Z</time></trkpt><trkpt lat="43.3741067" lon="11.87027"><ele>282.66666666666663</ele><time>2026-04-16T15:48:54.993Z</time></trkpt><trkpt lat="43.374165" lon="11.8702083"><ele>282.8333333333333</ele><time>2026-04-16T15:48:56.992Z</time></trkpt><trkpt lat="43.3742317" lon="11.8701233"><ele>283.0</ele><time>2026-04-16T15:48:58.991Z</time></trkpt><trkpt lat="43.374305" lon="11.87002"><ele>283.0</ele><time>2026-04-16T15:49:00.992Z</time></trkpt><trkpt lat="43.37438" lon="11.86991"><ele>283.0</ele><time>2026-04-16T15:49:02.992Z</time></trkpt><trkpt lat="43.3744633" lon="11.8698117"><ele>283.0</ele><time>2026-04-16T15:49:04.993Z</time></trkpt><trkpt lat="43.3745383" lon="11.869705"><ele>283.0</ele><time>2026-04-16T15:49:06.991Z</time></trkpt><trkpt lat="43.3746133" lon="11.8695933"><ele>283.0</ele><time>2026-04-16T15:49:08.989Z</time></trkpt><trkpt lat="43.374695" lon="11.8694983"><ele>283.16666666666663</ele><time>2026-04-16T15:49:10.989Z</time></trkpt><trkpt lat="43.374765" lon="11.8694117"><ele>283.3333333333333</ele><time>2026-04-16T15:49:12.991Z</time></trkpt><trkpt lat="43.374825" lon="11.869325"><ele>283.5</ele><time>2026-04-16T15:49:14.988Z</time></trkpt><trkpt lat="43.3748767" lon="11.86925"><ele>283.6666666666667</ele><time>2026-04-16T15:49:16.99Z</time></trkpt><trkpt lat="43.3749367" lon="11.8691717"><ele>283.83333333333337</ele><time>2026-04-16T15:49:18.995Z</time></trkpt><trkpt lat="43.3749933" lon="11.8690967"><ele>284.0</ele><time>2026-04-16T15:49:20.992Z</time></trkpt><trkpt lat="43.3750367" lon="11.8690283"><ele>284.0</ele><time>2026-04-16T15:49:23.988Z</time></trkpt><trkpt lat="43.375105" lon="11.869095"><ele>284.0</ele><time>2026-04-16T15:49:27.994Z</time></trkpt><trkpt lat="43.3751617" lon="11.8691483"><ele>284.0</ele><time>2026-04-16T15:49:29.991Z</time></trkpt><trkpt lat="43.3752483" lon="11.8691883"><ele>284.0</ele><time>2026-04-16T15:49:31.995Z</time></trkpt><trkpt lat="43.3753167" lon="11.869275"><ele>284.0</ele><time>2026-04-16T15:49:34.991Z</time></trkpt><trkpt lat="43.375365" lon="11.8693367"><ele>284.0</ele><time>2026-04-16T15:49:36.991Z</time></trkpt><trkpt lat="43.3754183" lon="11.869405"><ele>284.33333333333337</ele><time>2026-04-16T15:49:38.992Z</time></trkpt><trkpt lat="43.3754667" lon="11.86947"><ele>284.6666666666667</ele><time>2026-04-16T15:49:40.99Z</time></trkpt><trkpt lat="43.375535" lon="11.86955"><ele>285.0</ele><time>2026-04-16T15:49:43.991Z</time></trkpt><trkpt lat="43.3755883" lon="11.8696067"><ele>285.3333333333333</ele><time>2026-04-16T15:49:45.992Z</time></trkpt><trkpt lat="43.3756417" lon="11.8696817"><ele>285.66666666666663</ele><time>2026-04-16T15:49:47.992Z</time></trkpt><trkpt lat="43.3756933" lon="11.86977"><ele>286.0</ele><time>2026-04-16T15:49:49.991Z</time></trkpt><trkpt lat="43.3757517" lon="11.8698533"><ele>286.2</ele><time>2026-04-16T15:49:51.992Z</time></trkpt><trkpt lat="43.3758117" lon="11.8699333"><ele>286.40000000000003</ele><time>2026-04-16T15:49:53.992Z</time></trkpt><trkpt lat="43.3758667" lon="11.8700283"><ele>286.6</ele><time>2026-04-16T15:49:55.992Z</time></trkpt><trkpt lat="43.37593" lon="11.87014"><ele>286.8</ele><time>2026-04-16T15:49:57.991Z</time></trkpt><trkpt lat="43.3759967" lon="11.8702533"><ele>287.0</ele><time>2026-04-16T15:49:59.991Z</time></trkpt><trkpt lat="43.3760617" lon="11.8703533"><ele>287.2</ele><time>2026-04-16T15:50:01.995Z</time></trkpt><trkpt lat="43.37613" lon="11.8704433"><ele>287.4</ele><time>2026-04-16T15:50:03.996Z</time></trkpt><trkpt lat="43.3762017" lon="11.8705417"><ele>287.6</ele><time>2026-04-16T15:50:05.993Z</time></trkpt><trkpt lat="43.3762833" lon="11.8706333"><ele>287.8</ele><time>2026-04-16T15:50:07.993Z</time></trkpt><trkpt lat="43.3763617" lon="11.8707267"><ele>288.0</ele><time>2026-04-16T15:50:09.989Z</time></trkpt><trkpt lat="43.3764183" lon="11.8708233"><ele>288.1666666666667</ele><time>2026-04-16T15:50:11.989Z</time></trkpt><trkpt lat="43.37647" lon="11.87091"><ele>288.3333333333333</ele><time>2026-04-16T15:50:13.99Z</time></trkpt><trkpt lat="43.376515" lon="11.8709967"><ele>288.5</ele><time>2026-04-16T15:50:15.993Z</time></trkpt><trkpt lat="43.3765683" lon="11.8710683"><ele>288.66666666666663</ele><time>2026-04-16T15:50:17.989Z</time></trkpt><trkpt lat="43.3766283" lon="11.8711433"><ele>288.8333333333333</ele><time>2026-04-16T15:50:19.992Z</time></trkpt><trkpt lat="43.3766867" lon="11.871215"><ele>289.0</ele><time>2026-04-16T15:50:21.99Z</time></trkpt><trkpt lat="43.3767467" lon="11.87129"><ele>289.3333333333333</ele><time>2026-04-16T15:50:23.991Z</time></trkpt><trkpt lat="43.3768017" lon="11.8713667"><ele>289.66666666666663</ele><time>2026-04-16T15:50:25.996Z</time></trkpt><trkpt lat="43.376865" lon="11.8714317"><ele>290.0</ele><time>2026-04-16T15:50:27.989Z</time></trkpt><trkpt lat="43.37692" lon="11.8714933"><ele>290.3333333333333</ele><time>2026-04-16T15:50:29.989Z</time></trkpt><trkpt lat="43.3769683" lon="11.8715583"><ele>290.6666666666667</ele><time>2026-04-16T15:50:31.991Z</time></trkpt><trkpt lat="43.3770267" lon="11.8716583"><ele>291.0</ele><time>2026-04-16T15:50:34.992Z</time></trkpt><trkpt lat="43.3770867" lon="11.8717433"><ele>291.1666666666667</ele><time>2026-04-16T15:50:37.992Z</time></trkpt><trkpt lat="43.377145" lon="11.8718317"><ele>291.3333333333333</ele><time>2026-04-16T15:50:40.99Z</time></trkpt><trkpt lat="43.3771967" lon="11.8719083"><ele>291.5</ele><time>2026-04-16T15:50:42.991Z</time></trkpt><trkpt lat="43.377255" lon="11.8719983"><ele>291.66666666666663</ele><time>2026-04-16T15:50:45.99Z</time></trkpt><trkpt lat="43.3773017" lon="11.8720617"><ele>291.8333333333333</ele><time>2026-04-16T15:50:47.99Z</time></trkpt><trkpt lat="43.3773533" lon="11.8721217"><ele>292.0</ele><time>2026-04-16T15:50:49.989Z</time></trkpt><trkpt lat="43.377405" lon="11.8721917"><ele>292.1428571428571</ele><time>2026-04-16T15:50:51.991Z</time></trkpt><trkpt lat="43.377465" lon="11.8722667"><ele>292.2857142857143</ele><time>2026-04-16T15:50:53.991Z</time></trkpt><trkpt lat="43.3775133" lon="11.872335"><ele>292.42857142857144</ele><time>2026-04-16T15:50:55.992Z</time></trkpt><trkpt lat="43.3775633" lon="11.87239"><ele>292.57142857142856</ele><time>2026-04-16T15:50:57.994Z</time></trkpt><trkpt lat="43.3776267" lon="11.872475"><ele>292.7142857142857</ele><time>2026-04-16T15:51:00.993Z</time></trkpt><trkpt lat="43.3776717" lon="11.8725517"><ele>292.85714285714283</ele><time>2026-04-16T15:51:02.993Z</time></trkpt><trkpt lat="43.3777183" lon="11.87263"><ele>293.0</ele><time>2026-04-16T15:51:04.992Z</time></trkpt><trkpt lat="43.37777" lon="11.8726967"><ele>293.1428571428571</ele><time>2026-04-16T15:51:06.992Z</time></trkpt><trkpt lat="43.377815" lon="11.8727583"><ele>293.2857142857143</ele><time>2026-04-16T15:51:08.992Z</time></trkpt><trkpt lat="43.3778617" lon="11.87283"><ele>293.42857142857144</ele><time>2026-04-16T15:51:10.991Z</time></trkpt><trkpt lat="43.3779167" lon="11.8728933"><ele>293.57142857142856</ele><time>2026-04-16T15:51:12.991Z</time></trkpt><trkpt lat="43.3779767" lon="11.8729583"><ele>293.7142857142857</ele><time>2026-04-16T15:51:14.993Z</time></trkpt><trkpt lat="43.3780367" lon="11.873025"><ele>293.85714285714283</ele><time>2026-04-16T15:51:16.993Z</time></trkpt><trkpt lat="43.3780833" lon="11.8730933"><ele>294.0</ele><time>2026-04-16T15:51:18.993Z</time></trkpt><trkpt lat="43.3781317" lon="11.87315"><ele>294.5</ele><time>2026-04-16T15:51:20.993Z</time></trkpt><trkpt lat="43.3781967" lon="11.87323"><ele>295.0</ele><time>2026-04-16T15:51:23.99Z</time></trkpt><trkpt lat="43.3782517" lon="11.873285"><ele>295.5</ele><time>2026-04-16T15:51:25.99Z</time></trkpt><trkpt lat="43.378305" lon="11.8733467"><ele>296.0</ele><time>2026-04-16T15:51:27.996Z</time></trkpt><trkpt lat="43.3783617" lon="11.873405"><ele>296.5</ele><time>2026-04-16T15:51:29.991Z</time></trkpt><trkpt lat="43.3784283" lon="11.873475"><ele>297.0</ele><time>2026-04-16T15:51:32.992Z</time></trkpt><trkpt lat="43.3785" lon="11.8735417"><ele>297.57142857142856</ele><time>2026-04-16T15:51:35.991Z</time></trkpt><trkpt lat="43.3785467" lon="11.8736"><ele>298.14285714285717</ele><time>2026-04-16T15:51:37.992Z</time></trkpt><trkpt lat="43.3785933" lon="11.8736783"><ele>298.7142857142857</ele><time>2026-04-16T15:51:40.989Z</time></trkpt><trkpt lat="43.3786467" lon="11.8737567"><ele>299.2857142857143</ele><time>2026-04-16T15:51:43.994Z</time></trkpt><trkpt lat="43.3787033" lon="11.8738367"><ele>299.8571428571429</ele><time>2026-04-16T15:51:46.992Z</time></trkpt><trkpt lat="43.37876" lon="11.8739"><ele>300.42857142857144</ele><time>2026-04-16T15:51:49.993Z</time></trkpt><trkpt lat="43.3788217" lon="11.87394"><ele>301.0</ele><time>2026-04-16T15:51:52.991Z</time></trkpt><trkpt lat="43.3788883" lon="11.873985"><ele>301.14285714285717</ele><time>2026-04-16T15:51:55.992Z</time></trkpt><trkpt lat="43.378945" lon="11.8740367"><ele>301.2857142857143</ele><time>2026-04-16T15:51:58.992Z</time></trkpt><trkpt lat="43.3790017" lon="11.87411"><ele>301.42857142857144</ele><time>2026-04-16T15:52:02.004Z</time></trkpt><trkpt lat="43.3790633" lon="11.874175"><ele>301.57142857142856</ele><time>2026-04-16T15:52:04.99Z</time></trkpt><trkpt lat="43.3791233" lon="11.8742417"><ele>301.7142857142857</ele><time>2026-04-16T15:52:07.99Z</time></trkpt><trkpt lat="43.379185" lon="11.874305"><ele>301.8571428571429</ele><time>2026-04-16T15:52:11.991Z</time></trkpt><trkpt lat="43.3792183" lon="11.87438"><ele>302.0</ele><time>2026-04-16T15:52:14.991Z</time></trkpt><trkpt lat="43.3792817" lon="11.87447"><ele>302.0</ele><time>2026-04-16T15:52:17.992Z</time></trkpt><trkpt lat="43.37935" lon="11.874545"><ele>302.0</ele><time>2026-04-16T15:52:20.993Z</time></trkpt><trkpt lat="43.379405" lon="11.8745933"><ele>302.0</ele><time>2026-04-16T15:52:22.988Z</time></trkpt><trkpt lat="43.3794833" lon="11.87466"><ele>302.0</ele><time>2026-04-16T15:52:27.991Z</time></trkpt><trkpt lat="43.3795567" lon="11.874735"><ele>302.0</ele><time>2026-04-16T15:52:31.989Z</time></trkpt><trkpt lat="43.3796167" lon="11.8747917"><ele>302.0</ele><time>2026-04-16T15:52:33.99Z</time></trkpt><trkpt lat="43.3796717" lon="11.87487"><ele>302.42857142857144</ele><time>2026-04-16T15:52:36.986Z</time></trkpt><trkpt lat="43.379735" lon="11.87494"><ele>302.8571428571429</ele><time>2026-04-16T15:52:40.989Z</time></trkpt><trkpt lat="43.3798017" lon="11.8750017"><ele>303.28571428571433</ele><time>2026-04-16T15:52:43.989Z</time></trkpt><trkpt lat="43.379845" lon="11.875065"><ele>303.7142857142857</ele><time>2026-04-16T15:52:46.995Z</time></trkpt><trkpt lat="43.3799" lon="11.87513"><ele>304.1428571428571</ele><time>2026-04-16T15:52:49.99Z</time></trkpt><trkpt lat="43.3799533" lon="11.8751883"><ele>304.5714285714286</ele><time>2026-04-16T15:52:52.989Z</time></trkpt><trkpt lat="43.3800167" lon="11.875255"><ele>305.0</ele><time>2026-04-16T15:52:55.99Z</time></trkpt><trkpt lat="43.380075" lon="11.8753333"><ele>305.42857142857144</ele><time>2026-04-16T15:52:58.987Z</time></trkpt><trkpt lat="43.3801317" lon="11.8754"><ele>305.85714285714283</ele><time>2026-04-16T15:53:01.992Z</time></trkpt><trkpt lat="43.3801783" lon="11.8754717"><ele>306.2857142857143</ele><time>2026-04-16T15:53:04.991Z</time></trkpt><trkpt lat="43.3802333" lon="11.8755283"><ele>306.7142857142857</ele><time>2026-04-16T15:53:07.992Z</time></trkpt><trkpt lat="43.380285" lon="11.8755917"><ele>307.1428571428571</ele><time>2026-04-16T15:53:11.992Z</time></trkpt><trkpt lat="43.3803433" lon="11.8756617"><ele>307.57142857142856</ele><time>2026-04-16T15:53:14.992Z</time></trkpt><trkpt lat="43.3803917" lon="11.875735"><ele>308.0</ele><time>2026-04-16T15:53:17.995Z</time></trkpt><trkpt lat="43.3804267" lon="11.8758233"><ele>308.0</ele><time>2026-04-16T15:53:20.993Z</time></trkpt><trkpt lat="43.3804933" lon="11.8759033"><ele>308.0</ele><time>2026-04-16T15:53:23.99Z</time></trkpt><trkpt lat="43.3805417" lon="11.8759633"><ele>308.0</ele><time>2026-04-16T15:53:25.991Z</time></trkpt><trkpt lat="43.3806" lon="11.8760317"><ele>308.0</ele><time>2026-04-16T15:53:28.99Z</time></trkpt><trkpt lat="43.3806633" lon="11.8760967"><ele>308.0</ele><time>2026-04-16T15:53:31.993Z</time></trkpt><trkpt lat="43.38071" lon="11.8761733"><ele>308.0</ele><time>2026-04-16T15:53:34.993Z</time></trkpt><trkpt lat="43.3807633" lon="11.8762267"><ele>308.0</ele><time>2026-04-16T15:53:37.992Z</time></trkpt><trkpt lat="43.3808167" lon="11.8762883"><ele>308.57142857142856</ele><time>2026-04-16T15:53:40.996Z</time></trkpt><trkpt lat="43.380875" lon="11.876335"><ele>309.1428571428571</ele><time>2026-04-16T15:53:43.991Z</time></trkpt><trkpt lat="43.3809267" lon="11.8763917"><ele>309.7142857142857</ele><time>2026-04-16T15:53:46.992Z</time></trkpt><trkpt lat="43.3809783" lon="11.876445"><ele>310.2857142857143</ele><time>2026-04-16T15:53:49.997Z</time></trkpt><trkpt lat="43.3810267" lon="11.876505"><ele>310.85714285714283</ele><time>2026-04-16T15:53:52.993Z</time></trkpt><trkpt lat="43.38107" lon="11.8766017"><ele>311.42857142857144</ele><time>2026-04-16T15:53:56.991Z</time></trkpt><trkpt lat="43.3811217" lon="11.8766733"><ele>312.0</ele><time>2026-04-16T15:53:59.99Z</time></trkpt><trkpt lat="43.3811683" lon="11.8767433"><ele>312.1666666666667</ele><time>2026-04-16T15:54:02.991Z</time></trkpt><trkpt lat="43.38122" lon="11.87681"><ele>312.3333333333333</ele><time>2026-04-16T15:54:05.99Z</time></trkpt><trkpt lat="43.381275" lon="11.8768817"><ele>312.5</ele><time>2026-04-16T15:54:08.993Z</time></trkpt><trkpt lat="43.3813383" lon="11.87695"><ele>312.66666666666663</ele><time>2026-04-16T15:54:11.989Z</time></trkpt><trkpt lat="43.3814017" lon="11.8770233"><ele>312.8333333333333</ele><time>2026-04-16T15:54:14.992Z</time></trkpt><trkpt lat="43.3814633" lon="11.87709"><ele>313.0</ele><time>2026-04-16T15:54:17.991Z</time></trkpt><trkpt lat="43.3815167" lon="11.87714"><ele>313.16666666666663</ele><time>2026-04-16T15:54:19.995Z</time></trkpt><trkpt lat="43.3815883" lon="11.877205"><ele>313.3333333333333</ele><time>2026-04-16T15:54:22.992Z</time></trkpt><trkpt lat="43.3816533" lon="11.877275"><ele>313.5</ele><time>2026-04-16T15:54:25.991Z</time></trkpt><trkpt lat="43.3817183" lon="11.8773483"><ele>313.6666666666667</ele><time>2026-04-16T15:54:28.992Z</time></trkpt><trkpt lat="43.3817833" lon="11.8774333"><ele>313.83333333333337</ele><time>2026-04-16T15:54:31.99Z</time></trkpt><trkpt lat="43.3818533" lon="11.8775133"><ele>314.0</ele><time>2026-04-16T15:54:34.992Z</time></trkpt><trkpt lat="43.3819233" lon="11.8776017"><ele>314.5</ele><time>2026-04-16T15:54:37.99Z</time></trkpt><trkpt lat="43.3819733" lon="11.8776567"><ele>315.0</ele><time>2026-04-16T15:54:39.991Z</time></trkpt><trkpt lat="43.3820483" lon="11.8777233"><ele>315.5</ele><time>2026-04-16T15:54:42.994Z</time></trkpt><trkpt lat="43.3821183" lon="11.8777883"><ele>316.0</ele><time>2026-04-16T15:54:45.988Z</time></trkpt><trkpt lat="43.3821767" lon="11.87784"><ele>316.5</ele><time>2026-04-16T15:54:47.991Z</time></trkpt><trkpt lat="43.38223" lon="11.877895"><ele>317.0</ele><time>2026-04-16T15:54:49.994Z</time></trkpt><trkpt lat="43.3823033" lon="11.8779667"><ele>317.83333333333337</ele><time>2026-04-16T15:54:52.989Z</time></trkpt><trkpt lat="43.382365" lon="11.8780267"><ele>318.6666666666667</ele><time>2026-04-16T15:54:55.989Z</time></trkpt><trkpt lat="43.38243" lon="11.8780617"><ele>319.5</ele><time>2026-04-16T15:54:59.992Z</time></trkpt><trkpt lat="43.38237" lon="11.8780267"><ele>320.3333333333333</ele><time>2026-04-16T15:55:06.993Z</time></trkpt><trkpt lat="43.3823183" lon="11.8779517"><ele>321.16666666666663</ele><time>2026-04-16T15:55:08.993Z</time></trkpt><trkpt lat="43.3822617" lon="11.8778733"><ele>322.0</ele><time>2026-04-16T15:55:10.994Z</time></trkpt><trkpt lat="43.3821967" lon="11.8777967"><ele>321.16666666666663</ele><time>2026-04-16T15:55:12.993Z</time></trkpt><trkpt lat="43.38213" lon="11.8777367"><ele>320.3333333333333</ele><time>2026-04-16T15:55:14.999Z</time></trkpt><trkpt lat="43.3820567" lon="11.8777433"><ele>319.5</ele><time>2026-04-16T15:55:16.99Z</time></trkpt><trkpt lat="43.3819983" lon="11.8777767"><ele>318.6666666666667</ele><time>2026-04-16T15:55:18.992Z</time></trkpt><trkpt lat="43.3819233" lon="11.877845"><ele>317.83333333333337</ele><time>2026-04-16T15:55:21.995Z</time></trkpt><trkpt lat="43.3818583" lon="11.877915"><ele>317.0</ele><time>2026-04-16T15:55:24.994Z</time></trkpt><trkpt lat="43.3817883" lon="11.877985"><ele>317.0</ele><time>2026-04-16T15:55:27.99Z</time></trkpt><trkpt lat="43.381715" lon="11.87806"><ele>317.0</ele><time>2026-04-16T15:55:30.992Z</time></trkpt><trkpt lat="43.381665" lon="11.8781183"><ele>317.0</ele><time>2026-04-16T15:55:32.998Z</time></trkpt><trkpt lat="43.381615" lon="11.878185"><ele>317.0</ele><time>2026-04-16T15:55:34.99Z</time></trkpt><trkpt lat="43.38157" lon="11.8782567"><ele>317.0</ele><time>2026-04-16T15:55:36.997Z</time></trkpt><trkpt lat="43.381525" lon="11.8783333"><ele>317.0</ele><time>2026-04-16T15:55:38.992Z</time></trkpt><trkpt lat="43.381475" lon="11.8784167"><ele>317.0</ele><time>2026-04-16T15:55:40.997Z</time></trkpt><trkpt lat="43.38143" lon="11.8785017"><ele>317.1666666666667</ele><time>2026-04-16T15:55:42.992Z</time></trkpt><trkpt lat="43.3813833" lon="11.8785833"><ele>317.33333333333337</ele><time>2026-04-16T15:55:44.995Z</time></trkpt><trkpt lat="43.3813433" lon="11.87867"><ele>317.5</ele><time>2026-04-16T15:55:46.99Z</time></trkpt><trkpt lat="43.381305" lon="11.87874"><ele>317.6666666666667</ele><time>2026-04-16T15:55:48.993Z</time></trkpt><trkpt lat="43.3812717" lon="11.8788233"><ele>317.8333333333333</ele><time>2026-04-16T15:55:51.994Z</time></trkpt><trkpt lat="43.3811917" lon="11.8789917"><ele>318.0</ele><time>2026-04-16T15:56:13.993Z</time></trkpt><trkpt lat="43.381245" lon="11.8789267"><ele>318.0</ele><time>2026-04-16T15:56:27.993Z</time></trkpt><trkpt lat="43.3812783" lon="11.8788467"><ele>318.0</ele><time>2026-04-16T15:57:04.993Z</time></trkpt><trkpt lat="43.3813183" lon="11.8789467"><ele>318.0</ele><time>2026-04-16T15:57:10.993Z</time></trkpt><trkpt lat="43.381375" lon="11.8790383"><ele>318.0</ele><time>2026-04-16T15:57:14.992Z</time></trkpt><trkpt lat="43.3814167" lon="11.8791083"><ele>318.0</ele><time>2026-04-16T15:57:16.99Z</time></trkpt><trkpt lat="43.3814533" lon="11.87918"><ele>318.0</ele><time>2026-04-16T15:57:18.988Z</time></trkpt><trkpt lat="43.38149" lon="11.879295"><ele>317.4</ele><time>2026-04-16T15:57:21.991Z</time></trkpt><trkpt lat="43.381475" lon="11.87941"><ele>316.8</ele><time>2026-04-16T15:57:24.993Z</time></trkpt><trkpt lat="43.3814433" lon="11.8795017"><ele>316.2</ele><time>2026-04-16T15:57:26.993Z</time></trkpt><trkpt lat="43.38142" lon="11.8796283"><ele>315.6</ele><time>2026-04-16T15:57:28.991Z</time></trkpt><trkpt lat="43.3814133" lon="11.879765"><ele>315.0</ele><time>2026-04-16T15:57:30.994Z</time></trkpt><trkpt lat="43.3814167" lon="11.8799133"><ele>315.0</ele><time>2026-04-16T15:57:32.996Z</time></trkpt><trkpt lat="43.38141" lon="11.8800367"><ele>315.0</ele><time>2026-04-16T15:57:34.99Z</time></trkpt><trkpt lat="43.3813883" lon="11.8801283"><ele>315.0</ele><time>2026-04-16T15:57:36.993Z</time></trkpt><trkpt lat="43.38135" lon="11.8802267"><ele>315.0</ele><time>2026-04-16T15:57:39.989Z</time></trkpt><trkpt lat="43.3813517" lon="11.8803183"><ele>315.0</ele><time>2026-04-16T15:57:49.99Z</time></trkpt><trkpt lat="43.381395" lon="11.88041"><ele>315.0</ele><time>2026-04-16T15:57:52.989Z</time></trkpt><trkpt lat="43.3814433" lon="11.8805083"><ele>315.0</ele><time>2026-04-16T15:57:55.991Z</time></trkpt><trkpt lat="43.3814767" lon="11.8805883"><ele>315.0</ele><time>2026-04-16T15:57:58.989Z</time></trkpt><trkpt lat="43.3815833" lon="11.8806917"><ele>315.0</ele><time>2026-04-16T15:58:51.989Z</time></trkpt><trkpt lat="43.381555" lon="11.8807817"><ele>315.0</ele><time>2026-04-16T15:58:57.991Z</time></trkpt><trkpt lat="43.3814917" lon="11.880825"><ele>315.0</ele><time>2026-04-16T15:59:01.991Z</time></trkpt><trkpt lat="43.3814267" lon="11.8807683"><ele>315.0</ele><time>2026-04-16T15:59:07.991Z</time></trkpt><trkpt lat="43.3813683" lon="11.8807"><ele>314.5</ele><time>2026-04-16T15:59:11.994Z</time></trkpt><trkpt lat="43.3813217" lon="11.8806233"><ele>314.0</ele><time>2026-04-16T15:59:14.991Z</time></trkpt><trkpt lat="43.381275" lon="11.8805517"><ele>313.5</ele><time>2026-04-16T15:59:17.99Z</time></trkpt><trkpt lat="43.3812217" lon="11.880495"><ele>313.0</ele><time>2026-04-16T15:59:19.99Z</time></trkpt><trkpt lat="43.38109" lon="11.88047"><ele>312.5</ele><time>2026-04-16T15:59:27.987Z</time></trkpt><trkpt lat="43.381155" lon="11.8804017"><ele>312.0</ele><time>2026-04-16T16:00:26.991Z</time></trkpt><trkpt lat="43.3811083" lon="11.8803283"><ele>312.0</ele><time>2026-04-16T16:00:31.992Z</time></trkpt><trkpt lat="43.3810667" lon="11.8802517"><ele>312.0</ele><time>2026-04-16T16:00:35.99Z</time></trkpt><trkpt lat="43.3809967" lon="11.8801817"><ele>312.0</ele><time>2026-04-16T16:00:38.993Z</time></trkpt><trkpt lat="43.3809367" lon="11.880135"><ele>312.0</ele><time>2026-04-16T16:00:40.992Z</time></trkpt><trkpt lat="43.380875" lon="11.8800867"><ele>312.0</ele><time>2026-04-16T16:00:42.995Z</time></trkpt><trkpt lat="43.38081" lon="11.8800333"><ele>312.0</ele><time>2026-04-16T16:00:44.992Z</time></trkpt><trkpt lat="43.380745" lon="11.87997"><ele>311.6</ele><time>2026-04-16T16:00:46.99Z</time></trkpt><trkpt lat="43.3806967" lon="11.8798833"><ele>311.2</ele><time>2026-04-16T16:00:48.99Z</time></trkpt><trkpt lat="43.3806367" lon="11.8797867"><ele>310.8</ele><time>2026-04-16T16:00:50.991Z</time></trkpt><trkpt lat="43.380565" lon="11.8796833"><ele>310.4</ele><time>2026-04-16T16:00:52.991Z</time></trkpt><trkpt lat="43.3804817" lon="11.8795883"><ele>310.0</ele><time>2026-04-16T16:00:54.993Z</time></trkpt><trkpt lat="43.380395" lon="11.879495"><ele>309.4</ele><time>2026-04-16T16:00:56.991Z</time></trkpt><trkpt lat="43.3803083" lon="11.8794167"><ele>308.8</ele><time>2026-04-16T16:00:58.99Z</time></trkpt><trkpt lat="43.380225" lon="11.8793367"><ele>308.2</ele><time>2026-04-16T16:01:00.992Z</time></trkpt><trkpt lat="43.380125" lon="11.8792467"><ele>307.6</ele><time>2026-04-16T16:01:02.995Z</time></trkpt><trkpt lat="43.3800383" lon="11.879155"><ele>307.0</ele><time>2026-04-16T16:01:04.991Z</time></trkpt><trkpt lat="43.3799667" lon="11.8790583"><ele>306.8</ele><time>2026-04-16T16:01:06.991Z</time></trkpt><trkpt lat="43.37992" lon="11.8789533"><ele>306.6</ele><time>2026-04-16T16:01:08.995Z</time></trkpt><trkpt lat="43.379885" lon="11.8788317"><ele>306.40000000000003</ele><time>2026-04-16T16:01:10.991Z</time></trkpt><trkpt lat="43.379855" lon="11.8787017"><ele>306.2</ele><time>2026-04-16T16:01:12.992Z</time></trkpt><trkpt lat="43.3798233" lon="11.8785767"><ele>306.0</ele><time>2026-04-16T16:01:14.991Z</time></trkpt><trkpt lat="43.3797767" lon="11.8784683"><ele>306.2</ele><time>2026-04-16T16:01:16.993Z</time></trkpt><trkpt lat="43.3797" lon="11.8783767"><ele>306.40000000000003</ele><time>2026-04-16T16:01:18.989Z</time></trkpt><trkpt lat="43.37962" lon="11.8783"><ele>306.6</ele><time>2026-04-16T16:01:20.99Z</time></trkpt><trkpt lat="43.3795383" lon="11.8782267"><ele>306.8</ele><time>2026-04-16T16:01:22.989Z</time></trkpt><trkpt lat="43.37947" lon="11.8781567"><ele>307.0</ele><time>2026-04-16T16:01:24.99Z</time></trkpt><trkpt lat="43.3794167" lon="11.878075"><ele>307.0</ele><time>2026-04-16T16:01:27.993Z</time></trkpt><trkpt lat="43.3794633" lon="11.8781583"><ele>307.0</ele><time>2026-04-16T16:01:39.991Z</time></trkpt><trkpt lat="43.3795217" lon="11.8781967"><ele>307.0</ele><time>2026-04-16T16:01:42.993Z</time></trkpt><trkpt lat="43.3796083" lon="11.87825"><ele>307.0</ele><time>2026-04-16T16:01:45.992Z</time></trkpt><trkpt lat="43.3796717" lon="11.8783"><ele>307.0</ele><time>2026-04-16T16:01:47.992Z</time></trkpt><trkpt lat="43.379735" lon="11.8783717"><ele>307.0</ele><time>2026-04-16T16:01:49.99Z</time></trkpt><trkpt lat="43.3797883" lon="11.8784533"><ele>306.99999999999994</ele><time>2026-04-16T16:01:51.99Z</time></trkpt><trkpt lat="43.3798267" lon="11.87853"><ele>307.0</ele><time>2026-04-16T16:01:53.996Z</time></trkpt><trkpt lat="43.3798283" lon="11.878435"><ele>307.0</ele><time>2026-04-16T16:02:26.994Z</time></trkpt><trkpt lat="43.37979" lon="11.8783533"><ele>307.0</ele><time>2026-04-16T16:02:29.994Z</time></trkpt><trkpt lat="43.3797383" lon="11.8782767"><ele>307.0</ele><time>2026-04-16T16:02:32.996Z</time></trkpt><trkpt lat="43.37968" lon="11.8782283"><ele>306.99999999999994</ele><time>2026-04-16T16:02:36.994Z</time></trkpt><trkpt lat="43.3796117" lon="11.8782017"><ele>307.0</ele><time>2026-04-16T16:02:41.994Z</time></trkpt><trkpt lat="43.3795383" lon="11.87817"><ele>306.5</ele><time>2026-04-16T16:02:46.993Z</time></trkpt><trkpt lat="43.3794783" lon="11.8780917"><ele>306.0</ele><time>2026-04-16T16:02:49.993Z</time></trkpt><trkpt lat="43.3794317" lon="11.8780233"><ele>305.5</ele><time>2026-04-16T16:02:51.994Z</time></trkpt><trkpt lat="43.3793883" lon="11.8779517"><ele>305.0</ele><time>2026-04-16T16:02:53.994Z</time></trkpt><trkpt lat="43.3793433" lon="11.87786"><ele>304.5</ele><time>2026-04-16T16:02:56.993Z</time></trkpt><trkpt lat="43.379305" lon="11.8777783"><ele>304.0</ele><time>2026-04-16T16:02:58.994Z</time></trkpt><trkpt lat="43.379255" lon="11.8776883"><ele>303.66666666666663</ele><time>2026-04-16T16:03:00.992Z</time></trkpt><trkpt lat="43.3792117" lon="11.8776017"><ele>303.3333333333333</ele><time>2026-04-16T16:03:02.992Z</time></trkpt><trkpt lat="43.379165" lon="11.87751"><ele>303.0</ele><time>2026-04-16T16:03:04.991Z</time></trkpt><trkpt lat="43.379125" lon="11.8774167"><ele>302.6666666666667</ele><time>2026-04-16T16:03:06.99Z</time></trkpt><trkpt lat="43.3790667" lon="11.87731"><ele>302.33333333333337</ele><time>2026-04-16T16:03:08.991Z</time></trkpt><trkpt lat="43.3789967" lon="11.87719"><ele>302.0</ele><time>2026-04-16T16:03:10.99Z</time></trkpt><trkpt lat="43.37893" lon="11.8770883"><ele>302.0</ele><time>2026-04-16T16:03:12.992Z</time></trkpt><trkpt lat="43.378875" lon="11.8769933"><ele>302.0</ele><time>2026-04-16T16:03:14.99Z</time></trkpt><trkpt lat="43.3788433" lon="11.8769133"><ele>302.0</ele><time>2026-04-16T16:03:16.995Z</time></trkpt><trkpt lat="43.3788083" lon="11.87683"><ele>302.0</ele><time>2026-04-16T16:03:18.992Z</time></trkpt><trkpt lat="43.37875" lon="11.8767533"><ele>302.0</ele><time>2026-04-16T16:03:20.992Z</time></trkpt><trkpt lat="43.3786767" lon="11.876705"><ele>302.0</ele><time>2026-04-16T16:03:22.993Z</time></trkpt><trkpt lat="43.3786117" lon="11.8766583"><ele>301.6</ele><time>2026-04-16T16:03:24.99Z</time></trkpt><trkpt lat="43.3785433" lon="11.8766"><ele>301.2</ele><time>2026-04-16T16:03:26.99Z</time></trkpt><trkpt lat="43.378475" lon="11.876535"><ele>300.8</ele><time>2026-04-16T16:03:28.99Z</time></trkpt><trkpt lat="43.3784" lon="11.8764667"><ele>300.4</ele><time>2026-04-16T16:03:30.994Z</time></trkpt><trkpt lat="43.3783283" lon="11.876395"><ele>300.0</ele><time>2026-04-16T16:03:32.992Z</time></trkpt><trkpt lat="43.37824" lon="11.876285"><ele>299.99999999999994</ele><time>2026-04-16T16:03:34.99Z</time></trkpt><trkpt lat="43.3781933" lon="11.8762217"><ele>300.0</ele><time>2026-04-16T16:03:35.993Z</time></trkpt><trkpt lat="43.378145" lon="11.8761533"><ele>300.0</ele><time>2026-04-16T16:03:36.993Z</time></trkpt><trkpt lat="43.37808" lon="11.876075"><ele>300.0</ele><time>2026-04-16T16:03:37.993Z</time></trkpt><trkpt lat="43.3780267" lon="11.876005"><ele>300.0</ele><time>2026-04-16T16:03:38.992Z</time></trkpt><trkpt lat="43.3779767" lon="11.875935"><ele>299.99999999999994</ele><time>2026-04-16T16:03:39.995Z</time></trkpt><trkpt lat="43.3779267" lon="11.8758633"><ele>300.0</ele><time>2026-04-16T16:03:40.989Z</time></trkpt><trkpt lat="43.377875" lon="11.8757917"><ele>299.71428571428567</ele><time>2026-04-16T16:03:41.991Z</time></trkpt><trkpt lat="43.3778233" lon="11.87572"><ele>299.42857142857144</ele><time>2026-04-16T16:03:42.99Z</time></trkpt><trkpt lat="43.3777733" lon="11.8756483"><ele>299.1428571428571</ele><time>2026-04-16T16:03:43.991Z</time></trkpt><trkpt lat="43.3777233" lon="11.8755733"><ele>298.85714285714283</ele><time>2026-04-16T16:03:44.99Z</time></trkpt><trkpt lat="43.3776717" lon="11.8754983"><ele>298.57142857142856</ele><time>2026-04-16T16:03:45.989Z</time></trkpt><trkpt lat="43.37762" lon="11.8754267"><ele>298.2857142857143</ele><time>2026-04-16T16:03:46.99Z</time></trkpt><trkpt lat="43.3775683" lon="11.875355"><ele>298.0</ele><time>2026-04-16T16:03:47.993Z</time></trkpt><trkpt lat="43.37751" lon="11.875295"><ele>298.0</ele><time>2026-04-16T16:03:48.996Z</time></trkpt><trkpt lat="43.3774483" lon="11.8752383"><ele>298.0</ele><time>2026-04-16T16:03:49.994Z</time></trkpt><trkpt lat="43.3773783" lon="11.8751917"><ele>298.0</ele><time>2026-04-16T16:03:50.991Z</time></trkpt><trkpt lat="43.3773083" lon="11.8751517"><ele>298.0</ele><time>2026-04-16T16:03:51.99Z</time></trkpt><trkpt lat="43.377235" lon="11.875115"><ele>298.0</ele><time>2026-04-16T16:03:52.991Z</time></trkpt><trkpt lat="43.3771683" lon="11.8750733"><ele>298.0</ele><time>2026-04-16T16:03:53.99Z</time></trkpt><trkpt lat="43.3770983" lon="11.87502"><ele>297.0</ele><time>2026-04-16T16:03:54.994Z</time></trkpt><trkpt lat="43.37703" lon="11.8749667"><ele>296.0</ele><time>2026-04-16T16:03:55.989Z</time></trkpt><trkpt lat="43.376965" lon="11.8749217"><ele>295.0</ele><time>2026-04-16T16:03:56.992Z</time></trkpt><trkpt lat="43.3769067" lon="11.8748817"><ele>294.0</ele><time>2026-04-16T16:03:57.991Z</time></trkpt><trkpt lat="43.3768" lon="11.8748017"><ele>293.0</ele><time>2026-04-16T16:03:59.991Z</time></trkpt><trkpt lat="43.3766983" lon="11.8747017"><ele>293.0</ele><time>2026-04-16T16:04:01.991Z</time></trkpt><trkpt lat="43.376615" lon="11.8745867"><ele>293.0</ele><time>2026-04-16T16:04:03.992Z</time></trkpt><trkpt lat="43.376525" lon="11.87449"><ele>293.0</ele><time>2026-04-16T16:04:05.99Z</time></trkpt><trkpt lat="43.3764217" lon="11.87442"><ele>293.0</ele><time>2026-04-16T16:04:07.994Z</time></trkpt><trkpt lat="43.3763" lon="11.8743917"><ele>292.25</ele><time>2026-04-16T16:04:09.991Z</time></trkpt><trkpt lat="43.3761783" lon="11.8743683"><ele>291.5</ele><time>2026-04-16T16:04:11.992Z</time></trkpt><trkpt lat="43.376045" lon="11.8743517"><ele>290.75</ele><time>2026-04-16T16:04:13.994Z</time></trkpt><trkpt lat="43.37593" lon="11.87432"><ele>290.0</ele><time>2026-04-16T16:04:15.992Z</time></trkpt><trkpt lat="43.3758117" lon="11.8742767"><ele>290.0</ele><time>2026-04-16T16:04:17.994Z</time></trkpt><trkpt lat="43.3757133" lon="11.8741883"><ele>290.0</ele><time>2026-04-16T16:04:19.99Z</time></trkpt><trkpt lat="43.3756617" lon="11.8741317"><ele>290.0</ele><time>2026-04-16T16:04:20.993Z</time></trkpt><trkpt lat="43.3755667" lon="11.8740317"><ele>290.0</ele><time>2026-04-16T16:04:22.992Z</time></trkpt><trkpt lat="43.3754783" lon="11.873925"><ele>290.0</ele><time>2026-04-16T16:04:24.992Z</time></trkpt><trkpt lat="43.375385" lon="11.8738217"><ele>289.8</ele><time>2026-04-16T16:04:26.992Z</time></trkpt><trkpt lat="43.3752983" lon="11.8737217"><ele>289.6</ele><time>2026-04-16T16:04:28.995Z</time></trkpt><trkpt lat="43.37521" lon="11.8736167"><ele>289.4</ele><time>2026-04-16T16:04:30.992Z</time></trkpt><trkpt lat="43.375135" lon="11.8735"><ele>289.2</ele><time>2026-04-16T16:04:32.991Z</time></trkpt><trkpt lat="43.375075" lon="11.8733833"><ele>289.0</ele><time>2026-04-16T16:04:34.992Z</time></trkpt><trkpt lat="43.375025" lon="11.8732633"><ele>289.0</ele><time>2026-04-16T16:04:36.993Z</time></trkpt><trkpt lat="43.37497" lon="11.8731483"><ele>289.0</ele><time>2026-04-16T16:04:38.995Z</time></trkpt><trkpt lat="43.37491" lon="11.8730467"><ele>289.0</ele><time>2026-04-16T16:04:40.992Z</time></trkpt><trkpt lat="43.3748333" lon="11.8729683"><ele>289.0</ele><time>2026-04-16T16:04:42.991Z</time></trkpt><trkpt lat="43.3747517" lon="11.87291"><ele>289.0</ele><time>2026-04-16T16:04:44.995Z</time></trkpt><trkpt lat="43.3746567" lon="11.8728767"><ele>288.2</ele><time>2026-04-16T16:04:46.993Z</time></trkpt><trkpt lat="43.3745517" lon="11.87285"><ele>287.4</ele><time>2026-04-16T16:04:48.994Z</time></trkpt><trkpt lat="43.3744367" lon="11.872815"><ele>286.6</ele><time>2026-04-16T16:04:50.996Z</time></trkpt><trkpt lat="43.3743167" lon="11.8727683"><ele>285.8</ele><time>2026-04-16T16:04:52.994Z</time></trkpt><trkpt lat="43.3742533" lon="11.8727483"><ele>285.0</ele><time>2026-04-16T16:04:53.991Z</time></trkpt><trkpt lat="43.37419" lon="11.872725"><ele>285.0</ele><time>2026-04-16T16:04:54.993Z</time></trkpt><trkpt lat="43.3741283" lon="11.8727017"><ele>285.0</ele><time>2026-04-16T16:04:55.991Z</time></trkpt><trkpt lat="43.3740633" lon="11.8726733"><ele>285.0</ele><time>2026-04-16T16:04:56.99Z</time></trkpt><trkpt lat="43.3739983" lon="11.872645"><ele>285.0</ele><time>2026-04-16T16:04:57.993Z</time></trkpt><trkpt lat="43.3739367" lon="11.872615"><ele>285.0</ele><time>2026-04-16T16:04:58.991Z</time></trkpt><trkpt lat="43.373875" lon="11.8725867"><ele>285.0</ele><time>2026-04-16T16:04:59.989Z</time></trkpt><trkpt lat="43.37381" lon="11.8725617"><ele>285.0</ele><time>2026-04-16T16:05:00.991Z</time></trkpt><trkpt lat="43.37374" lon="11.8725317"><ele>284.8</ele><time>2026-04-16T16:05:01.99Z</time></trkpt><trkpt lat="43.37367" lon="11.8725"><ele>284.6</ele><time>2026-04-16T16:05:02.995Z</time></trkpt><trkpt lat="43.3736033" lon="11.8724667"><ele>284.4</ele><time>2026-04-16T16:05:03.994Z</time></trkpt><trkpt lat="43.3735383" lon="11.87243"><ele>284.2</ele><time>2026-04-16T16:05:04.994Z</time></trkpt><trkpt lat="43.37343" lon="11.872365"><ele>284.0</ele><time>2026-04-16T16:05:06.997Z</time></trkpt><trkpt lat="43.37332" lon="11.8722983"><ele>284.0</ele><time>2026-04-16T16:05:08.994Z</time></trkpt><trkpt lat="43.3732217" lon="11.8722167"><ele>284.0</ele><time>2026-04-16T16:05:10.994Z</time></trkpt><trkpt lat="43.3731367" lon="11.8721283"><ele>284.0</ele><time>2026-04-16T16:05:12.99Z</time></trkpt><trkpt lat="43.3730583" lon="11.87205"><ele>284.0</ele><time>2026-04-16T16:05:14.994Z</time></trkpt><trkpt lat="43.373005" lon="11.8719883"><ele>284.0</ele><time>2026-04-16T16:05:16.991Z</time></trkpt><trkpt lat="43.37294" lon="11.8719183"><ele>283.83333333333337</ele><time>2026-04-16T16:05:37.995Z</time></trkpt><trkpt lat="43.3728733" lon="11.8718483"><ele>283.6666666666667</ele><time>2026-04-16T16:05:39.989Z</time></trkpt><trkpt lat="43.37279" lon="11.8717967"><ele>283.5</ele><time>2026-04-16T16:05:42.991Z</time></trkpt><trkpt lat="43.37272" lon="11.8717667"><ele>283.3333333333333</ele><time>2026-04-16T16:05:45.99Z</time></trkpt><trkpt lat="43.37266" lon="11.8717283"><ele>283.16666666666663</ele><time>2026-04-16T16:05:48.99Z</time></trkpt><trkpt lat="43.3726" lon="11.8716633"><ele>283.0</ele><time>2026-04-16T16:05:51.992Z</time></trkpt><trkpt lat="43.3725267" lon="11.8716117"><ele>283.0</ele><time>2026-04-16T16:05:54.995Z</time></trkpt><trkpt lat="43.3724733" lon="11.871565"><ele>283.0</ele><time>2026-04-16T16:05:56.991Z</time></trkpt><trkpt lat="43.372415" lon="11.871505"><ele>283.0</ele><time>2026-04-16T16:05:58.99Z</time></trkpt><trkpt lat="43.3723517" lon="11.871445"><ele>283.0</ele><time>2026-04-16T16:06:00.994Z</time></trkpt><trkpt lat="43.372275" lon="11.8714133"><ele>283.0</ele><time>2026-04-16T16:06:02.994Z</time></trkpt><trkpt lat="43.3721983" lon="11.87135"><ele>283.0</ele><time>2026-04-16T16:06:04.991Z</time></trkpt><trkpt lat="43.37212" lon="11.871295"><ele>282.6</ele><time>2026-04-16T16:06:06.993Z</time></trkpt><trkpt lat="43.37203" lon="11.87124"><ele>282.20000000000005</ele><time>2026-04-16T16:06:08.995Z</time></trkpt><trkpt lat="43.3719667" lon="11.8712183"><ele>281.8</ele><time>2026-04-16T16:06:09.99Z</time></trkpt><trkpt lat="43.37186" lon="11.871175"><ele>281.40000000000003</ele><time>2026-04-16T16:06:11.993Z</time></trkpt><trkpt lat="43.3717733" lon="11.87112"><ele>281.0</ele><time>2026-04-16T16:06:13.994Z</time></trkpt><trkpt lat="43.37169" lon="11.87106"><ele>281.00000000000006</ele><time>2026-04-16T16:06:15.993Z</time></trkpt><trkpt lat="43.3715983" lon="11.8709967"><ele>281.0</ele><time>2026-04-16T16:06:17.992Z</time></trkpt><trkpt lat="43.371535" lon="11.87096"><ele>281.0</ele><time>2026-04-16T16:06:19.994Z</time></trkpt><trkpt lat="43.3714733" lon="11.8709317"><ele>281.0</ele><time>2026-04-16T16:06:21.988Z</time></trkpt><trkpt lat="43.3714117" lon="11.870895"><ele>281.0</ele><time>2026-04-16T16:06:23.989Z</time></trkpt><trkpt lat="43.3713483" lon="11.8708517"><ele>281.00000000000006</ele><time>2026-04-16T16:06:25.987Z</time></trkpt><trkpt lat="43.371285" lon="11.8708133"><ele>281.0</ele><time>2026-04-16T16:06:27.992Z</time></trkpt><trkpt lat="43.3712083" lon="11.8707733"><ele>280.83333333333337</ele><time>2026-04-16T16:06:29.992Z</time></trkpt><trkpt lat="43.3711333" lon="11.8707267"><ele>280.6666666666667</ele><time>2026-04-16T16:06:31.988Z</time></trkpt><trkpt lat="43.3710667" lon="11.8706867"><ele>280.5</ele><time>2026-04-16T16:06:33.988Z</time></trkpt><trkpt lat="43.3709967" lon="11.8706333"><ele>280.3333333333333</ele><time>2026-04-16T16:06:35.988Z</time></trkpt><trkpt lat="43.3709183" lon="11.8705917"><ele>280.16666666666663</ele><time>2026-04-16T16:06:37.991Z</time></trkpt><trkpt lat="43.370835" lon="11.8705383"><ele>280.0</ele><time>2026-04-16T16:06:39.994Z</time></trkpt><trkpt lat="43.3707533" lon="11.8704883"><ele>280.0</ele><time>2026-04-16T16:06:41.997Z</time></trkpt><trkpt lat="43.3706567" lon="11.8704433"><ele>280.0</ele><time>2026-04-16T16:06:43.992Z</time></trkpt><trkpt lat="43.3705633" lon="11.8704017"><ele>280.0</ele><time>2026-04-16T16:06:45.993Z</time></trkpt><trkpt lat="43.3704683" lon="11.8703633"><ele>280.0</ele><time>2026-04-16T16:06:47.994Z</time></trkpt><trkpt lat="43.3703733" lon="11.870315"><ele>280.0</ele><time>2026-04-16T16:06:49.994Z</time></trkpt><trkpt lat="43.37028" lon="11.870265"><ele>279.25</ele><time>2026-04-16T16:06:51.993Z</time></trkpt><trkpt lat="43.3701783" lon="11.8702083"><ele>278.5</ele><time>2026-04-16T16:06:53.992Z</time></trkpt><trkpt lat="43.3700733" lon="11.87016"><ele>277.75</ele><time>2026-04-16T16:06:55.994Z</time></trkpt><trkpt lat="43.3699633" lon="11.870105"><ele>277.0</ele><time>2026-04-16T16:06:57.99Z</time></trkpt><trkpt lat="43.3698467" lon="11.87005"><ele>277.0</ele><time>2026-04-16T16:06:59.992Z</time></trkpt><trkpt lat="43.3697133" lon="11.87001"><ele>277.0</ele><time>2026-04-16T16:07:01.994Z</time></trkpt><trkpt lat="43.3696467" lon="11.8699883"><ele>277.0</ele><time>2026-04-16T16:07:02.994Z</time></trkpt><trkpt lat="43.369585" lon="11.86997"><ele>277.0</ele><time>2026-04-16T16:07:03.992Z</time></trkpt><trkpt lat="43.3695233" lon="11.8699383"><ele>277.0</ele><time>2026-04-16T16:07:04.997Z</time></trkpt><trkpt lat="43.3694617" lon="11.8699033"><ele>277.0</ele><time>2026-04-16T16:07:05.994Z</time></trkpt><trkpt lat="43.3693983" lon="11.869875"><ele>276.5</ele><time>2026-04-16T16:07:06.992Z</time></trkpt><trkpt lat="43.3693333" lon="11.8698533"><ele>276.0</ele><time>2026-04-16T16:07:07.993Z</time></trkpt><trkpt lat="43.36927" lon="11.869825"><ele>275.5</ele><time>2026-04-16T16:07:08.996Z</time></trkpt><trkpt lat="43.3692067" lon="11.8698017"><ele>275.0</ele><time>2026-04-16T16:07:09.99Z</time></trkpt><trkpt lat="43.3691467" lon="11.869775"><ele>274.5</ele><time>2026-04-16T16:07:10.993Z</time></trkpt><trkpt lat="43.3690833" lon="11.86975"><ele>274.0</ele><time>2026-04-16T16:07:11.997Z</time></trkpt><trkpt lat="43.368965" lon="11.869705"><ele>273.5</ele><time>2026-04-16T16:07:13.995Z</time></trkpt><trkpt lat="43.3688467" lon="11.8696483"><ele>273.0</ele><time>2026-04-16T16:07:15.993Z</time></trkpt><trkpt lat="43.3687867" lon="11.86962"><ele>272.5</ele><time>2026-04-16T16:07:16.994Z</time></trkpt><trkpt lat="43.3687217" lon="11.8696"><ele>272.0</ele><time>2026-04-16T16:07:17.992Z</time></trkpt><trkpt lat="43.3686533" lon="11.869575"><ele>271.5</ele><time>2026-04-16T16:07:18.993Z</time></trkpt><trkpt lat="43.368585" lon="11.8695467"><ele>271.0</ele><time>2026-04-16T16:07:19.991Z</time></trkpt><trkpt lat="43.3685117" lon="11.8695167"><ele>271.0</ele><time>2026-04-16T16:07:20.99Z</time></trkpt><trkpt lat="43.3684367" lon="11.8694867"><ele>271.0</ele><time>2026-04-16T16:07:21.993Z</time></trkpt><trkpt lat="43.36836" lon="11.8694583"><ele>271.0</ele><time>2026-04-16T16:07:22.991Z</time></trkpt><trkpt lat="43.3682883" lon="11.8694317"><ele>271.0</ele><time>2026-04-16T16:07:23.994Z</time></trkpt><trkpt lat="43.368215" lon="11.8694017"><ele>271.0</ele><time>2026-04-16T16:07:24.995Z</time></trkpt><trkpt lat="43.3681383" lon="11.8693717"><ele>271.0</ele><time>2026-04-16T16:07:25.993Z</time></trkpt><trkpt lat="43.368065" lon="11.8693417"><ele>271.0</ele><time>2026-04-16T16:07:26.993Z</time></trkpt><trkpt lat="43.367995" lon="11.8693117"><ele>271.0</ele><time>2026-04-16T16:07:27.991Z</time></trkpt><trkpt lat="43.367925" lon="11.8692833"><ele>271.0</ele><time>2026-04-16T16:07:28.994Z</time></trkpt><trkpt lat="43.3678517" lon="11.8692517"><ele>271.0</ele><time>2026-04-16T16:07:29.989Z</time></trkpt><trkpt lat="43.36778" lon="11.86922"><ele>271.0</ele><time>2026-04-16T16:07:30.993Z</time></trkpt><trkpt lat="43.3677117" lon="11.86919"><ele>271.0</ele><time>2026-04-16T16:07:31.993Z</time></trkpt><trkpt lat="43.3676467" lon="11.8691567"><ele>271.0</ele><time>2026-04-16T16:07:32.992Z</time></trkpt><trkpt lat="43.3675783" lon="11.869125"><ele>271.0</ele><time>2026-04-16T16:07:33.994Z</time></trkpt><trkpt lat="43.3675117" lon="11.869095"><ele>271.0</ele><time>2026-04-16T16:07:34.994Z</time></trkpt><trkpt lat="43.367445" lon="11.8690633"><ele>271.0</ele><time>2026-04-16T16:07:35.995Z</time></trkpt><trkpt lat="43.3673767" lon="11.8690317"><ele>271.0</ele><time>2026-04-16T16:07:36.991Z</time></trkpt><trkpt lat="43.3673133" lon="11.8690033"><ele>271.0</ele><time>2026-04-16T16:07:37.99Z</time></trkpt><trkpt lat="43.3672483" lon="11.8689783"><ele>271.0</ele><time>2026-04-16T16:07:38.99Z</time></trkpt><trkpt lat="43.3671833" lon="11.8689517"><ele>271.0</ele><time>2026-04-16T16:07:39.992Z</time></trkpt><trkpt lat="43.3670617" lon="11.8688983"><ele>270.66666666666663</ele><time>2026-04-16T16:07:41.991Z</time></trkpt><trkpt lat="43.367" lon="11.8688683"><ele>270.3333333333333</ele><time>2026-04-16T16:07:42.991Z</time></trkpt><trkpt lat="43.366885" lon="11.868815"><ele>270.0</ele><time>2026-04-16T16:07:44.993Z</time></trkpt><trkpt lat="43.3668233" lon="11.86879"><ele>269.6666666666667</ele><time>2026-04-16T16:07:45.99Z</time></trkpt><trkpt lat="43.3667017" lon="11.8687417"><ele>269.33333333333337</ele><time>2026-04-16T16:07:47.993Z</time></trkpt><trkpt lat="43.3666367" lon="11.8687117"><ele>269.0</ele><time>2026-04-16T16:07:48.991Z</time></trkpt><trkpt lat="43.3665717" lon="11.868685"><ele>269.0</ele><time>2026-04-16T16:07:49.989Z</time></trkpt><trkpt lat="43.3665067" lon="11.8686617"><ele>269.0</ele><time>2026-04-16T16:07:50.991Z</time></trkpt><trkpt lat="43.3663883" lon="11.8686117"><ele>269.0</ele><time>2026-04-16T16:07:52.993Z</time></trkpt><trkpt lat="43.3663267" lon="11.8685883"><ele>269.0</ele><time>2026-04-16T16:07:53.994Z</time></trkpt><trkpt lat="43.366265" lon="11.8685683"><ele>269.0</ele><time>2026-04-16T16:07:54.99Z</time></trkpt><trkpt lat="43.3662" lon="11.86855"><ele>269.0</ele><time>2026-04-16T16:07:55.991Z</time></trkpt><trkpt lat="43.3661383" lon="11.8685317"><ele>269.0</ele><time>2026-04-16T16:07:56.987Z</time></trkpt><trkpt lat="43.366075" lon="11.8685117"><ele>269.0</ele><time>2026-04-16T16:07:57.991Z</time></trkpt><trkpt lat="43.365955" lon="11.868475"><ele>269.0</ele><time>2026-04-16T16:07:59.991Z</time></trkpt><trkpt lat="43.365835" lon="11.8684383"><ele>269.0</ele><time>2026-04-16T16:08:01.992Z</time></trkpt><trkpt lat="43.36571" lon="11.8683983"><ele>269.0</ele><time>2026-04-16T16:08:03.99Z</time></trkpt><trkpt lat="43.3656483" lon="11.8683767"><ele>269.0</ele><time>2026-04-16T16:08:04.991Z</time></trkpt><trkpt lat="43.365585" lon="11.8683533"><ele>268.83333333333337</ele><time>2026-04-16T16:08:05.993Z</time></trkpt><trkpt lat="43.3655217" lon="11.8683267"><ele>268.6666666666667</ele><time>2026-04-16T16:08:06.993Z</time></trkpt><trkpt lat="43.36546" lon="11.8683033"><ele>268.5</ele><time>2026-04-16T16:08:07.99Z</time></trkpt><trkpt lat="43.3653967" lon="11.86828"><ele>268.3333333333333</ele><time>2026-04-16T16:08:08.993Z</time></trkpt><trkpt lat="43.365335" lon="11.868255"><ele>268.16666666666663</ele><time>2026-04-16T16:08:09.989Z</time></trkpt><trkpt lat="43.3652133" lon="11.8682"><ele>268.0</ele><time>2026-04-16T16:08:11.992Z</time></trkpt><trkpt lat="43.365095" lon="11.8681533"><ele>268.0</ele><time>2026-04-16T16:08:13.991Z</time></trkpt><trkpt lat="43.3649783" lon="11.8681067"><ele>268.0</ele><time>2026-04-16T16:08:15.989Z</time></trkpt><trkpt lat="43.36486" lon="11.8680583"><ele>268.0</ele><time>2026-04-16T16:08:17.99Z</time></trkpt><trkpt lat="43.3647983" lon="11.8680333"><ele>268.0</ele><time>2026-04-16T16:08:18.989Z</time></trkpt><trkpt lat="43.3646817" lon="11.8679817"><ele>268.0</ele><time>2026-04-16T16:08:20.992Z</time></trkpt><trkpt lat="43.36462" lon="11.8679533"><ele>267.8333333333333</ele><time>2026-04-16T16:08:21.989Z</time></trkpt><trkpt lat="43.3645583" lon="11.8679267"><ele>267.66666666666663</ele><time>2026-04-16T16:08:23Z</time></trkpt><trkpt lat="43.3644967" lon="11.8678983"><ele>267.5</ele><time>2026-04-16T16:08:23.993Z</time></trkpt><trkpt lat="43.364435" lon="11.8678717"><ele>267.3333333333333</ele><time>2026-04-16T16:08:24.993Z</time></trkpt><trkpt lat="43.3643183" lon="11.8678217"><ele>267.1666666666667</ele><time>2026-04-16T16:08:26.993Z</time></trkpt><trkpt lat="43.3642017" lon="11.8677667"><ele>267.0</ele><time>2026-04-16T16:08:28.993Z</time></trkpt><trkpt lat="43.36408" lon="11.8677133"><ele>267.00000000000006</ele><time>2026-04-16T16:08:30.988Z</time></trkpt><trkpt lat="43.3640183" lon="11.8676867"><ele>267.0</ele><time>2026-04-16T16:08:31.99Z</time></trkpt><trkpt lat="43.3639533" lon="11.86766"><ele>267.0</ele><time>2026-04-16T16:08:32.991Z</time></trkpt><trkpt lat="43.36389" lon="11.8676283"><ele>267.0</ele><time>2026-04-16T16:08:33.992Z</time></trkpt><trkpt lat="43.3638283" lon="11.8675917"><ele>267.0</ele><time>2026-04-16T16:08:34.99Z</time></trkpt><trkpt lat="43.3637667" lon="11.8675533"><ele>267.00000000000006</ele><time>2026-04-16T16:08:35.992Z</time></trkpt><trkpt lat="43.3637033" lon="11.8675133"><ele>267.0</ele><time>2026-04-16T16:08:36.993Z</time></trkpt><trkpt lat="43.36364" lon="11.8674767"><ele>266.7142857142857</ele><time>2026-04-16T16:08:37.989Z</time></trkpt><trkpt lat="43.3635783" lon="11.867435"><ele>266.42857142857144</ele><time>2026-04-16T16:08:38.991Z</time></trkpt><trkpt lat="43.363515" lon="11.86739"><ele>266.1428571428571</ele><time>2026-04-16T16:08:39.991Z</time></trkpt><trkpt lat="43.363455" lon="11.867345"><ele>265.8571428571429</ele><time>2026-04-16T16:08:40.992Z</time></trkpt><trkpt lat="43.3633917" lon="11.8673033"><ele>265.57142857142856</ele><time>2026-04-16T16:08:41.99Z</time></trkpt><trkpt lat="43.3633283" lon="11.8672633"><ele>265.2857142857143</ele><time>2026-04-16T16:08:42.991Z</time></trkpt><trkpt lat="43.363265" lon="11.8672183"><ele>265.0</ele><time>2026-04-16T16:08:43.991Z</time></trkpt><trkpt lat="43.3632017" lon="11.8671717"><ele>264.99999999999994</ele><time>2026-04-16T16:08:44.99Z</time></trkpt><trkpt lat="43.3631367" lon="11.8671217"><ele>265.0</ele><time>2026-04-16T16:08:45.989Z</time></trkpt><trkpt lat="43.3630717" lon="11.8670733"><ele>265.0</ele><time>2026-04-16T16:08:46.991Z</time></trkpt><trkpt lat="43.3630067" lon="11.867025"><ele>265.0</ele><time>2026-04-16T16:08:47.992Z</time></trkpt><trkpt lat="43.3629417" lon="11.8669767"><ele>265.0</ele><time>2026-04-16T16:08:48.994Z</time></trkpt><trkpt lat="43.3628783" lon="11.8669333"><ele>264.99999999999994</ele><time>2026-04-16T16:08:49.996Z</time></trkpt><trkpt lat="43.3628117" lon="11.8668917"><ele>265.0</ele><time>2026-04-16T16:08:50.991Z</time></trkpt><trkpt lat="43.3627467" lon="11.8668467"><ele>264.66666666666663</ele><time>2026-04-16T16:08:51.993Z</time></trkpt><trkpt lat="43.3626867" lon="11.8667917"><ele>264.3333333333333</ele><time>2026-04-16T16:08:52.992Z</time></trkpt><trkpt lat="43.3626233" lon="11.8667433"><ele>264.0</ele><time>2026-04-16T16:08:53.99Z</time></trkpt><trkpt lat="43.362565" lon="11.8667017"><ele>263.6666666666667</ele><time>2026-04-16T16:08:54.992Z</time></trkpt><trkpt lat="43.3625083" lon="11.8666617"><ele>263.33333333333337</ele><time>2026-04-16T16:08:55.989Z</time></trkpt><trkpt lat="43.3624467" lon="11.8666233"><ele>263.0</ele><time>2026-04-16T16:08:56.991Z</time></trkpt><trkpt lat="43.3623367" lon="11.8665533"><ele>262.6</ele><time>2026-04-16T16:08:58.993Z</time></trkpt><trkpt lat="43.36224" lon="11.8664783"><ele>262.20000000000005</ele><time>2026-04-16T16:09:00.99Z</time></trkpt><trkpt lat="43.3621533" lon="11.8663933"><ele>261.8</ele><time>2026-04-16T16:09:02.993Z</time></trkpt><trkpt lat="43.3620567" lon="11.86632"><ele>261.40000000000003</ele><time>2026-04-16T16:09:04.991Z</time></trkpt><trkpt lat="43.3619717" lon="11.86626"><ele>261.0</ele><time>2026-04-16T16:09:06.989Z</time></trkpt><trkpt lat="43.3618833" lon="11.866195"><ele>261.0</ele><time>2026-04-16T16:09:08.99Z</time></trkpt><trkpt lat="43.3617983" lon="11.8661383"><ele>261.0</ele><time>2026-04-16T16:09:10.994Z</time></trkpt><trkpt lat="43.3617233" lon="11.8660783"><ele>261.0</ele><time>2026-04-16T16:09:12.993Z</time></trkpt><trkpt lat="43.361645" lon="11.86601"><ele>261.0</ele><time>2026-04-16T16:09:14.992Z</time></trkpt><trkpt lat="43.3615667" lon="11.8659467"><ele>261.0</ele><time>2026-04-16T16:09:16.988Z</time></trkpt><trkpt lat="43.361485" lon="11.8658867"><ele>260.8</ele><time>2026-04-16T16:09:18.994Z</time></trkpt><trkpt lat="43.3613967" lon="11.86583"><ele>260.6</ele><time>2026-04-16T16:09:20.993Z</time></trkpt><trkpt lat="43.3613117" lon="11.8657667"><ele>260.4</ele><time>2026-04-16T16:09:22.989Z</time></trkpt><trkpt lat="43.3612283" lon="11.8657033"><ele>260.2</ele><time>2026-04-16T16:09:24.995Z</time></trkpt><trkpt lat="43.36115" lon="11.865645"><ele>260.0</ele><time>2026-04-16T16:09:26.991Z</time></trkpt><trkpt lat="43.36107" lon="11.8655783"><ele>260.0</ele><time>2026-04-16T16:09:28.99Z</time></trkpt><trkpt lat="43.3609817" lon="11.8655133"><ele>260.0</ele><time>2026-04-16T16:09:30.988Z</time></trkpt><trkpt lat="43.360895" lon="11.86544"><ele>260.0</ele><time>2026-04-16T16:09:32.99Z</time></trkpt><trkpt lat="43.360815" lon="11.8653567"><ele>260.0</ele><time>2026-04-16T16:09:34.992Z</time></trkpt><trkpt lat="43.3607417" lon="11.8652733"><ele>260.0</ele><time>2026-04-16T16:09:36.99Z</time></trkpt><trkpt lat="43.36067" lon="11.865195"><ele>260.0</ele><time>2026-04-16T16:09:38.993Z</time></trkpt><trkpt lat="43.3605967" lon="11.8651183"><ele>260.0</ele><time>2026-04-16T16:09:40.992Z</time></trkpt><trkpt lat="43.3605283" lon="11.8650433"><ele>260.0</ele><time>2026-04-16T16:09:42.993Z</time></trkpt><trkpt lat="43.3604633" lon="11.8649667"><ele>260.0</ele><time>2026-04-16T16:09:44.99Z</time></trkpt><trkpt lat="43.3603967" lon="11.8648967"><ele>260.0</ele><time>2026-04-16T16:09:46.989Z</time></trkpt><trkpt lat="43.360335" lon="11.8648333"><ele>260.0</ele><time>2026-04-16T16:09:48.992Z</time></trkpt><trkpt lat="43.360285" lon="11.864755"><ele>259.7142857142857</ele><time>2026-04-16T16:09:50.991Z</time></trkpt><trkpt lat="43.360255" lon="11.8646767"><ele>259.42857142857144</ele><time>2026-04-16T16:09:52.992Z</time></trkpt><trkpt lat="43.3602433" lon="11.8645817"><ele>259.1428571428571</ele><time>2026-04-16T16:09:55.992Z</time></trkpt><trkpt lat="43.3602817" lon="11.8644883"><ele>258.8571428571429</ele><time>2026-04-16T16:10:00.992Z</time></trkpt><trkpt lat="43.360325" lon="11.8644233"><ele>258.57142857142856</ele><time>2026-04-16T16:10:04.993Z</time></trkpt><trkpt lat="43.36037" lon="11.8643483"><ele>258.2857142857143</ele><time>2026-04-16T16:10:08.991Z</time></trkpt><trkpt lat="43.3604233" lon="11.8642983"><ele>258.0</ele><time>2026-04-16T16:10:12.989Z</time></trkpt><trkpt lat="43.3604817" lon="11.8642117"><ele>258.0</ele><time>2026-04-16T16:10:16.99Z</time></trkpt><trkpt lat="43.3605283" lon="11.8641"><ele>258.0</ele><time>2026-04-16T16:12:33.99Z</time></trkpt><trkpt lat="43.3605883" lon="11.8640417"><ele>258.0</ele><time>2026-04-16T16:12:36.99Z</time></trkpt><trkpt lat="43.3606367" lon="11.863965"><ele>258.0</ele><time>2026-04-16T16:12:39.992Z</time></trkpt><trkpt lat="43.360685" lon="11.86388"><ele>258.0</ele><time>2026-04-16T16:12:42.988Z</time></trkpt><trkpt lat="43.3607333" lon="11.8638017"><ele>258.0</ele><time>2026-04-16T16:12:45.99Z</time></trkpt><trkpt lat="43.3607983" lon="11.863715"><ele>258.0</ele><time>2026-04-16T16:12:48.994Z</time></trkpt><trkpt lat="43.360855" lon="11.8636117"><ele>258.0</ele><time>2026-04-16T16:12:51.996Z</time></trkpt><trkpt lat="43.3609167" lon="11.8635133"><ele>258.0</ele><time>2026-04-16T16:12:54.994Z</time></trkpt><trkpt lat="43.36095" lon="11.8634317"><ele>258.0</ele><time>2026-04-16T16:12:56.993Z</time></trkpt><trkpt lat="43.3609717" lon="11.8633383"><ele>258.0</ele><time>2026-04-16T16:12:58.992Z</time></trkpt><trkpt lat="43.3609917" lon="11.86321"><ele>258.0</ele><time>2026-04-16T16:13:00.994Z</time></trkpt><trkpt lat="43.3609967" lon="11.8631067"><ele>258.0</ele><time>2026-04-16T16:13:02.996Z</time></trkpt><trkpt lat="43.3609983" lon="11.8630033"><ele>258.0</ele><time>2026-04-16T16:13:04.993Z</time></trkpt><trkpt lat="43.3609867" lon="11.862895"><ele>258.0</ele><time>2026-04-16T16:13:06.996Z</time></trkpt><trkpt lat="43.3609717" lon="11.8627817"><ele>258.0</ele><time>2026-04-16T16:13:08.994Z</time></trkpt><trkpt lat="43.3609633" lon="11.8626683"><ele>258.0</ele><time>2026-04-16T16:13:10.994Z</time></trkpt><trkpt lat="43.3609533" lon="11.8625533"><ele>258.0</ele><time>2026-04-16T16:13:12.995Z</time></trkpt><trkpt lat="43.3609383" lon="11.8624383"><ele>258.0</ele><time>2026-04-16T16:13:14.994Z</time></trkpt><trkpt lat="43.360915" lon="11.8623283"><ele>258.0</ele><time>2026-04-16T16:13:16.992Z</time></trkpt><trkpt lat="43.3608983" lon="11.8622083"><ele>258.0</ele><time>2026-04-16T16:13:18.991Z</time></trkpt><trkpt lat="43.3608867" lon="11.86209"><ele>258.0</ele><time>2026-04-16T16:13:20.991Z</time></trkpt><trkpt lat="43.360875" lon="11.8619667"><ele>258.0</ele><time>2026-04-16T16:13:22.991Z</time></trkpt><trkpt lat="43.3608583" lon="11.8618467"><ele>258.0</ele><time>2026-04-16T16:13:24.994Z</time></trkpt><trkpt lat="43.360845" lon="11.86173"><ele>257.99999999999994</ele><time>2026-04-16T16:13:26.994Z</time></trkpt><trkpt lat="43.3608333" lon="11.86162"><ele>258.0</ele><time>2026-04-16T16:13:28.992Z</time></trkpt><trkpt lat="43.3608283" lon="11.8615183"><ele>258.0</ele><time>2026-04-16T16:13:30.992Z</time></trkpt><trkpt lat="43.36082" lon="11.8614317"><ele>258.0</ele><time>2026-04-16T16:13:32.994Z</time></trkpt><trkpt lat="43.3608017" lon="11.8613483"><ele>258.0</ele><time>2026-04-16T16:13:34.989Z</time></trkpt><trkpt lat="43.360785" lon="11.8612567"><ele>257.99999999999994</ele><time>2026-04-16T16:13:36.994Z</time></trkpt><trkpt lat="43.360775" lon="11.8611617"><ele>258.0</ele><time>2026-04-16T16:13:38.993Z</time></trkpt><trkpt lat="43.3607633" lon="11.8610633"><ele>258.0</ele><time>2026-04-16T16:13:40.99Z</time></trkpt><trkpt lat="43.3607633" lon="11.8609683"><ele>258.0</ele><time>2026-04-16T16:13:42.992Z</time></trkpt><trkpt lat="43.360755" lon="11.8608467"><ele>258.0</ele><time>2026-04-16T16:13:45.99Z</time></trkpt><trkpt lat="43.3607" lon="11.86079"><ele>258.0</ele><time>2026-04-16T16:13:48.994Z</time></trkpt><trkpt lat="43.360605" lon="11.8607817"><ele>258.0</ele><time>2026-04-16T16:14:26.993Z</time></trkpt><trkpt lat="43.3605233" lon="11.8607517"><ele>258.0</ele><time>2026-04-16T16:14:29.995Z</time></trkpt><trkpt lat="43.360455" lon="11.860735"><ele>258.2</ele><time>2026-04-16T16:14:31.994Z</time></trkpt><trkpt lat="43.3603817" lon="11.8607233"><ele>258.4</ele><time>2026-04-16T16:14:33.993Z</time></trkpt><trkpt lat="43.360295" lon="11.8607083"><ele>258.59999999999997</ele><time>2026-04-16T16:14:35.991Z</time></trkpt><trkpt lat="43.3601967" lon="11.8606783"><ele>258.8</ele><time>2026-04-16T16:14:37.994Z</time></trkpt><trkpt lat="43.3600933" lon="11.8606333"><ele>259.0</ele><time>2026-04-16T16:14:39.993Z</time></trkpt><trkpt lat="43.35998" lon="11.86059"><ele>259.0</ele><time>2026-04-16T16:14:41.995Z</time></trkpt><trkpt lat="43.3598783" lon="11.86055"><ele>259.0</ele><time>2026-04-16T16:14:43.993Z</time></trkpt><trkpt lat="43.3597767" lon="11.8604917"><ele>259.0</ele><time>2026-04-16T16:14:45.994Z</time></trkpt><trkpt lat="43.3596767" lon="11.8604267"><ele>259.0</ele><time>2026-04-16T16:14:47.996Z</time></trkpt><trkpt lat="43.359575" lon="11.86037"><ele>259.0</ele><time>2026-04-16T16:14:49.994Z</time></trkpt><trkpt lat="43.35947" lon="11.8603033"><ele>258.75</ele><time>2026-04-16T16:14:51.99Z</time></trkpt><trkpt lat="43.35936" lon="11.86022"><ele>258.5</ele><time>2026-04-16T16:14:53.994Z</time></trkpt><trkpt lat="43.3592567" lon="11.8601367"><ele>258.25</ele><time>2026-04-16T16:14:55.99Z</time></trkpt><trkpt lat="43.3591583" lon="11.8600367"><ele>258.0</ele><time>2026-04-16T16:14:57.993Z</time></trkpt><trkpt lat="43.3590683" lon="11.8599233"><ele>258.0</ele><time>2026-04-16T16:14:59.993Z</time></trkpt><trkpt lat="43.35898" lon="11.859815"><ele>258.0</ele><time>2026-04-16T16:15:01.993Z</time></trkpt><trkpt lat="43.358905" lon="11.8596917"><ele>258.0</ele><time>2026-04-16T16:15:03.992Z</time></trkpt><trkpt lat="43.3588433" lon="11.85957"><ele>258.0</ele><time>2026-04-16T16:15:05.996Z</time></trkpt><trkpt lat="43.3587817" lon="11.8594483"><ele>258.0</ele><time>2026-04-16T16:15:07.993Z</time></trkpt><trkpt lat="43.3587183" lon="11.8593217"><ele>258.0</ele><time>2026-04-16T16:15:09.994Z</time></trkpt><trkpt lat="43.35866" lon="11.85919"><ele>258.0</ele><time>2026-04-16T16:15:11.995Z</time></trkpt><trkpt lat="43.3585983" lon="11.85906"><ele>258.0</ele><time>2026-04-16T16:15:14Z</time></trkpt><trkpt lat="43.358535" lon="11.8589317"><ele>258.0</ele><time>2026-04-16T16:15:15.994Z</time></trkpt><trkpt lat="43.35847" lon="11.8587967"><ele>258.0</ele><time>2026-04-16T16:15:17.991Z</time></trkpt><trkpt lat="43.358405" lon="11.8586633"><ele>258.0</ele><time>2026-04-16T16:15:19.993Z</time></trkpt><trkpt lat="43.3583383" lon="11.8585317"><ele>258.0</ele><time>2026-04-16T16:15:21.99Z</time></trkpt><trkpt lat="43.3582683" lon="11.8583983"><ele>258.0</ele><time>2026-04-16T16:15:23.997Z</time></trkpt><trkpt lat="43.358185" lon="11.8582617"><ele>258.1666666666667</ele><time>2026-04-16T16:15:25.993Z</time></trkpt><trkpt lat="43.3581433" lon="11.85819"><ele>258.3333333333333</ele><time>2026-04-16T16:15:26.998Z</time></trkpt><trkpt lat="43.358105" lon="11.85812"><ele>258.5</ele><time>2026-04-16T16:15:27.996Z</time></trkpt><trkpt lat="43.358035" lon="11.85798"><ele>258.66666666666663</ele><time>2026-04-16T16:15:29.992Z</time></trkpt><trkpt lat="43.3579983" lon="11.8579067"><ele>258.8333333333333</ele><time>2026-04-16T16:15:30.99Z</time></trkpt><trkpt lat="43.3579633" lon="11.8578333"><ele>259.0</ele><time>2026-04-16T16:15:31.997Z</time></trkpt><trkpt lat="43.3579017" lon="11.8576967"><ele>258.4</ele><time>2026-04-16T16:15:33.993Z</time></trkpt><trkpt lat="43.357835" lon="11.8575617"><ele>257.79999999999995</ele><time>2026-04-16T16:15:35.989Z</time></trkpt><trkpt lat="43.3577767" lon="11.85743"><ele>257.20000000000005</ele><time>2026-04-16T16:15:37.992Z</time></trkpt><trkpt lat="43.3577233" lon="11.8573167"><ele>256.6</ele><time>2026-04-16T16:15:39.994Z</time></trkpt><trkpt lat="43.3576817" lon="11.8572283"><ele>256.0</ele><time>2026-04-16T16:15:41.99Z</time></trkpt><trkpt lat="43.3576417" lon="11.857155"><ele>255.99999999999997</ele><time>2026-04-16T16:15:43.99Z</time></trkpt><trkpt lat="43.3576133" lon="11.8570717"><ele>256.0</ele><time>2026-04-16T16:15:45.993Z</time></trkpt><trkpt lat="43.357575" lon="11.857"><ele>256.0</ele><time>2026-04-16T16:15:47.991Z</time></trkpt><trkpt lat="43.3575267" lon="11.85689"><ele>256.0</ele><time>2026-04-16T16:15:50.994Z</time></trkpt><trkpt lat="43.3574933" lon="11.8568133"><ele>255.99999999999997</ele><time>2026-04-16T16:15:52.993Z</time></trkpt><trkpt lat="43.3574433" lon="11.856705"><ele>256.0</ele><time>2026-04-16T16:15:55.995Z</time></trkpt><trkpt lat="43.357405" lon="11.8565883"><ele>256.2857142857143</ele><time>2026-04-16T16:15:58.994Z</time></trkpt><trkpt lat="43.357375" lon="11.8565067"><ele>256.57142857142856</ele><time>2026-04-16T16:16:00.988Z</time></trkpt><trkpt lat="43.3573433" lon="11.8564283"><ele>256.85714285714283</ele><time>2026-04-16T16:16:02.991Z</time></trkpt><trkpt lat="43.3573117" lon="11.85634"><ele>257.1428571428571</ele><time>2026-04-16T16:16:04.99Z</time></trkpt><trkpt lat="43.357285" lon="11.85625"><ele>257.42857142857144</ele><time>2026-04-16T16:16:06.993Z</time></trkpt><trkpt lat="43.3572533" lon="11.856135"><ele>257.71428571428567</ele><time>2026-04-16T16:16:09.991Z</time></trkpt><trkpt lat="43.3572383" lon="11.856035"><ele>258.0</ele><time>2026-04-16T16:16:12.991Z</time></trkpt><trkpt lat="43.35721" lon="11.855935"><ele>257.8333333333333</ele><time>2026-04-16T16:16:15.993Z</time></trkpt><trkpt lat="43.3571733" lon="11.8558233"><ele>257.6666666666667</ele><time>2026-04-16T16:16:18.994Z</time></trkpt><trkpt lat="43.3571467" lon="11.8557383"><ele>257.5</ele><time>2026-04-16T16:16:20.989Z</time></trkpt><trkpt lat="43.3571217" lon="11.855655"><ele>257.33333333333337</ele><time>2026-04-16T16:16:22.992Z</time></trkpt><trkpt lat="43.3570917" lon="11.8555617"><ele>257.1666666666667</ele><time>2026-04-16T16:16:24.997Z</time></trkpt><trkpt lat="43.3570583" lon="11.8554617"><ele>257.0</ele><time>2026-04-16T16:16:26.993Z</time></trkpt><trkpt lat="43.3570283" lon="11.85536"><ele>257.0</ele><time>2026-04-16T16:16:28.993Z</time></trkpt><trkpt lat="43.3570033" lon="11.8552467"><ele>257.0</ele><time>2026-04-16T16:16:30.991Z</time></trkpt><trkpt lat="43.3569683" lon="11.8551283"><ele>257.0</ele><time>2026-04-16T16:16:32.996Z</time></trkpt><trkpt lat="43.35693" lon="11.8550083"><ele>257.0</ele><time>2026-04-16T16:16:34.993Z</time></trkpt><trkpt lat="43.3568917" lon="11.8548833"><ele>257.0</ele><time>2026-04-16T16:16:36.99Z</time></trkpt><trkpt lat="43.3568583" lon="11.8547583"><ele>257.0</ele><time>2026-04-16T16:16:38.994Z</time></trkpt><trkpt lat="43.3568233" lon="11.8546167"><ele>257.0</ele><time>2026-04-16T16:16:40.991Z</time></trkpt><trkpt lat="43.356785" lon="11.8544567"><ele>257.0</ele><time>2026-04-16T16:16:42.996Z</time></trkpt><trkpt lat="43.3567617" lon="11.8543717"><ele>257.0</ele><time>2026-04-16T16:16:43.991Z</time></trkpt><trkpt lat="43.35674" lon="11.8542817"><ele>257.0</ele><time>2026-04-16T16:16:44.995Z</time></trkpt><trkpt lat="43.356715" lon="11.8541917"><ele>257.0</ele><time>2026-04-16T16:16:45.991Z</time></trkpt><trkpt lat="43.35669" lon="11.8541033"><ele>256.6666666666667</ele><time>2026-04-16T16:16:46.992Z</time></trkpt><trkpt lat="43.356665" lon="11.8540133"><ele>256.33333333333337</ele><time>2026-04-16T16:16:47.989Z</time></trkpt><trkpt lat="43.3566333" lon="11.8539317"><ele>256.0</ele><time>2026-04-16T16:16:48.991Z</time></trkpt><trkpt lat="43.3565983" lon="11.85385"><ele>255.66666666666669</ele><time>2026-04-16T16:16:49.991Z</time></trkpt><trkpt lat="43.3565667" lon="11.8537683"><ele>255.33333333333334</ele><time>2026-04-16T16:16:50.995Z</time></trkpt><trkpt lat="43.35654" lon="11.853685"><ele>255.0</ele><time>2026-04-16T16:16:51.991Z</time></trkpt><trkpt lat="43.3564817" lon="11.8535317"><ele>254.75</ele><time>2026-04-16T16:16:53.994Z</time></trkpt><trkpt lat="43.356415" lon="11.853385"><ele>254.5</ele><time>2026-04-16T16:16:55.991Z</time></trkpt><trkpt lat="43.35636" lon="11.8532317"><ele>254.25</ele><time>2026-04-16T16:16:57.993Z</time></trkpt><trkpt lat="43.3562967" lon="11.8530917"><ele>254.0</ele><time>2026-04-16T16:16:59.991Z</time></trkpt><trkpt lat="43.3562317" lon="11.85296"><ele>254.0</ele><time>2026-04-16T16:17:01.995Z</time></trkpt><trkpt lat="43.3561767" lon="11.8528217"><ele>253.99999999999997</ele><time>2026-04-16T16:17:03.991Z</time></trkpt><trkpt lat="43.356115" lon="11.8527"><ele>253.99999999999997</ele><time>2026-04-16T16:17:05.993Z</time></trkpt><trkpt lat="43.3560567" lon="11.8525833"><ele>254.0</ele><time>2026-04-16T16:17:07.991Z</time></trkpt><trkpt lat="43.3560117" lon="11.8524567"><ele>254.0</ele><time>2026-04-16T16:17:09.994Z</time></trkpt><trkpt lat="43.35596" lon="11.852335"><ele>254.0</ele><time>2026-04-16T16:17:11.995Z</time></trkpt><trkpt lat="43.3559083" lon="11.8522167"><ele>253.99999999999997</ele><time>2026-04-16T16:17:13.993Z</time></trkpt><trkpt lat="43.3558583" lon="11.8520967"><ele>253.99999999999997</ele><time>2026-04-16T16:17:15.992Z</time></trkpt><trkpt lat="43.3558083" lon="11.8519733"><ele>254.0</ele><time>2026-04-16T16:17:17.995Z</time></trkpt><trkpt lat="43.3557617" lon="11.85185"><ele>254.0</ele><time>2026-04-16T16:17:19.995Z</time></trkpt><trkpt lat="43.3557233" lon="11.851735"><ele>254.16666666666669</ele><time>2026-04-16T16:17:21.993Z</time></trkpt><trkpt lat="43.35568" lon="11.8516367"><ele>254.33333333333334</ele><time>2026-04-16T16:17:23.994Z</time></trkpt><trkpt lat="43.3556433" lon="11.8515317"><ele>254.5</ele><time>2026-04-16T16:17:25.991Z</time></trkpt><trkpt lat="43.3556083" lon="11.851415"><ele>254.66666666666669</ele><time>2026-04-16T16:17:27.998Z</time></trkpt><trkpt lat="43.355575" lon="11.8512967"><ele>254.83333333333334</ele><time>2026-04-16T16:17:29.993Z</time></trkpt><trkpt lat="43.35553" lon="11.8511833"><ele>255.0</ele><time>2026-04-16T16:17:31.991Z</time></trkpt><trkpt lat="43.3554817" lon="11.8510683"><ele>254.6</ele><time>2026-04-16T16:17:33.991Z</time></trkpt><trkpt lat="43.3554283" lon="11.850955"><ele>254.2</ele><time>2026-04-16T16:17:35.996Z</time></trkpt><trkpt lat="43.3553783" lon="11.8508367"><ele>253.8</ele><time>2026-04-16T16:17:37.989Z</time></trkpt><trkpt lat="43.3553283" lon="11.8507183"><ele>253.4</ele><time>2026-04-16T16:17:39.994Z</time></trkpt><trkpt lat="43.3552733" lon="11.850595"><ele>253.0</ele><time>2026-04-16T16:17:41.993Z</time></trkpt><trkpt lat="43.3552217" lon="11.850475"><ele>253.0</ele><time>2026-04-16T16:17:43.99Z</time></trkpt><trkpt lat="43.355175" lon="11.8503583"><ele>253.0</ele><time>2026-04-16T16:17:45.991Z</time></trkpt><trkpt lat="43.355135" lon="11.85025"><ele>253.0</ele><time>2026-04-16T16:17:47.992Z</time></trkpt><trkpt lat="43.35509" lon="11.8501433"><ele>253.0</ele><time>2026-04-16T16:17:49.996Z</time></trkpt><trkpt lat="43.3550433" lon="11.8500383"><ele>253.0</ele><time>2026-04-16T16:17:51.99Z</time></trkpt><trkpt lat="43.3549967" lon="11.8499267"><ele>253.4</ele><time>2026-04-16T16:17:53.995Z</time></trkpt><trkpt lat="43.35495" lon="11.84981"><ele>253.8</ele><time>2026-04-16T16:17:55.994Z</time></trkpt><trkpt lat="43.3548983" lon="11.8496917"><ele>254.2</ele><time>2026-04-16T16:17:57.992Z</time></trkpt><trkpt lat="43.3548483" lon="11.84957"><ele>254.6</ele><time>2026-04-16T16:17:59.991Z</time></trkpt><trkpt lat="43.3548017" lon="11.8494417"><ele>255.0</ele><time>2026-04-16T16:18:01.995Z</time></trkpt><trkpt lat="43.3547567" lon="11.84931"><ele>255.0</ele><time>2026-04-16T16:18:03.988Z</time></trkpt><trkpt lat="43.3547083" lon="11.8491767"><ele>255.0</ele><time>2026-04-16T16:18:05.992Z</time></trkpt><trkpt lat="43.35465" lon="11.8490433"><ele>255.0</ele><time>2026-04-16T16:18:07.992Z</time></trkpt><trkpt lat="43.3545817" lon="11.8488983"><ele>255.0</ele><time>2026-04-16T16:18:09.998Z</time></trkpt><trkpt lat="43.354515" lon="11.8487533"><ele>254.75</ele><time>2026-04-16T16:18:11.994Z</time></trkpt><trkpt lat="43.3544517" lon="11.848605"><ele>254.5</ele><time>2026-04-16T16:18:13.989Z</time></trkpt><trkpt lat="43.354385" lon="11.8484617"><ele>254.25</ele><time>2026-04-16T16:18:15.994Z</time></trkpt><trkpt lat="43.3543233" lon="11.8483233"><ele>254.0</ele><time>2026-04-16T16:18:17.99Z</time></trkpt><trkpt lat="43.354265" lon="11.848185"><ele>254.0</ele><time>2026-04-16T16:18:19.992Z</time></trkpt><trkpt lat="43.3542067" lon="11.8480417"><ele>254.0</ele><time>2026-04-16T16:18:21.995Z</time></trkpt><trkpt lat="43.3541583" lon="11.8478967"><ele>254.0</ele><time>2026-04-16T16:18:23.991Z</time></trkpt><trkpt lat="43.3541117" lon="11.8477467"><ele>254.0</ele><time>2026-04-16T16:18:25.995Z</time></trkpt><trkpt lat="43.3540633" lon="11.8475933"><ele>254.25</ele><time>2026-04-16T16:18:27.989Z</time></trkpt><trkpt lat="43.35402" lon="11.84744"><ele>254.5</ele><time>2026-04-16T16:18:29.995Z</time></trkpt><trkpt lat="43.3539767" lon="11.8472883"><ele>254.75</ele><time>2026-04-16T16:18:31.991Z</time></trkpt><trkpt lat="43.3539333" lon="11.8471383"><ele>255.0</ele><time>2026-04-16T16:18:33.99Z</time></trkpt><trkpt lat="43.3538983" lon="11.8469933"><ele>255.0</ele><time>2026-04-16T16:18:35.994Z</time></trkpt><trkpt lat="43.3538767" lon="11.8468533"><ele>255.0</ele><time>2026-04-16T16:18:37.995Z</time></trkpt><trkpt lat="43.3538633" lon="11.8467117"><ele>255.0</ele><time>2026-04-16T16:18:39.991Z</time></trkpt><trkpt lat="43.3538533" lon="11.8465767"><ele>255.0</ele><time>2026-04-16T16:18:41.996Z</time></trkpt><trkpt lat="43.3538267" lon="11.84644"><ele>255.0</ele><time>2026-04-16T16:18:43.993Z</time></trkpt><trkpt lat="43.3537767" lon="11.84631"><ele>254.75</ele><time>2026-04-16T16:18:45.993Z</time></trkpt><trkpt lat="43.3537067" lon="11.8461817"><ele>254.5</ele><time>2026-04-16T16:18:47.989Z</time></trkpt><trkpt lat="43.3536333" lon="11.84606"><ele>254.25</ele><time>2026-04-16T16:18:49.996Z</time></trkpt><trkpt lat="43.3535617" lon="11.8459367"><ele>254.0</ele><time>2026-04-16T16:18:51.992Z</time></trkpt><trkpt lat="43.3534933" lon="11.8458083"><ele>254.39999999999998</ele><time>2026-04-16T16:18:53.991Z</time></trkpt><trkpt lat="43.353425" lon="11.8456917"><ele>254.79999999999998</ele><time>2026-04-16T16:18:55.991Z</time></trkpt><trkpt lat="43.3533533" lon="11.8455633"><ele>255.20000000000002</ele><time>2026-04-16T16:18:57.991Z</time></trkpt><trkpt lat="43.3532733" lon="11.8454267"><ele>255.60000000000002</ele><time>2026-04-16T16:18:59.987Z</time></trkpt><trkpt lat="43.3532283" lon="11.84536"><ele>256.0</ele><time>2026-04-16T16:19:00.991Z</time></trkpt><trkpt lat="43.3531833" lon="11.8452967"><ele>255.99999999999997</ele><time>2026-04-16T16:19:01.993Z</time></trkpt><trkpt lat="43.35314" lon="11.8452317"><ele>256.0</ele><time>2026-04-16T16:19:02.991Z</time></trkpt><trkpt lat="43.3531" lon="11.8451633"><ele>256.0</ele><time>2026-04-16T16:19:03.989Z</time></trkpt><trkpt lat="43.35306" lon="11.8450933"><ele>256.0</ele><time>2026-04-16T16:19:04.994Z</time></trkpt><trkpt lat="43.35302" lon="11.8450233"><ele>255.99999999999997</ele><time>2026-04-16T16:19:05.989Z</time></trkpt><trkpt lat="43.3529433" lon="11.844895"><ele>256.0</ele><time>2026-04-16T16:19:07.991Z</time></trkpt><trkpt lat="43.352865" lon="11.8447783"><ele>255.5</ele><time>2026-04-16T16:19:09.993Z</time></trkpt><trkpt lat="43.352785" lon="11.8446583"><ele>255.0</ele><time>2026-04-16T16:19:12Z</time></trkpt><trkpt lat="43.35272" lon="11.8445367"><ele>254.5</ele><time>2026-04-16T16:19:13.991Z</time></trkpt><trkpt lat="43.35266" lon="11.84441"><ele>254.0</ele><time>2026-04-16T16:19:15.991Z</time></trkpt><trkpt lat="43.3525917" lon="11.84428"><ele>254.00000000000003</ele><time>2026-04-16T16:19:17.994Z</time></trkpt><trkpt lat="43.3525117" lon="11.8441467"><ele>254.0</ele><time>2026-04-16T16:19:19.994Z</time></trkpt><trkpt lat="43.3524717" lon="11.8440783"><ele>254.0</ele><time>2026-04-16T16:19:20.997Z</time></trkpt><trkpt lat="43.3523917" lon="11.8439417"><ele>254.0</ele><time>2026-04-16T16:19:22.994Z</time></trkpt><trkpt lat="43.35235" lon="11.8438767"><ele>254.00000000000003</ele><time>2026-04-16T16:19:23.993Z</time></trkpt><trkpt lat="43.3523117" lon="11.8438067"><ele>254.0</ele><time>2026-04-16T16:19:24.993Z</time></trkpt><trkpt lat="43.3522333" lon="11.84367"><ele>253.2</ele><time>2026-04-16T16:19:26.993Z</time></trkpt><trkpt lat="43.35217" lon="11.8435533"><ele>252.39999999999998</ele><time>2026-04-16T16:19:28.989Z</time></trkpt><trkpt lat="43.3521967" lon="11.8434333"><ele>251.6</ele><time>2026-04-16T16:19:30.999Z</time></trkpt><trkpt lat="43.3522917" lon="11.8434017"><ele>250.8</ele><time>2026-04-16T16:19:32.992Z</time></trkpt><trkpt lat="43.352405" lon="11.8433783"><ele>250.0</ele><time>2026-04-16T16:19:34.991Z</time></trkpt><trkpt lat="43.3525183" lon="11.8433517"><ele>250.0</ele><time>2026-04-16T16:19:36.994Z</time></trkpt><trkpt lat="43.35263" lon="11.8433267"><ele>250.0</ele><time>2026-04-16T16:19:38.992Z</time></trkpt><trkpt lat="43.3527367" lon="11.843305"><ele>250.0</ele><time>2026-04-16T16:19:40.991Z</time></trkpt><trkpt lat="43.3528367" lon="11.8432783"><ele>250.0</ele><time>2026-04-16T16:19:42.991Z</time></trkpt><trkpt lat="43.352925" lon="11.8432533"><ele>250.0</ele><time>2026-04-16T16:19:44.995Z</time></trkpt><trkpt lat="43.3530033" lon="11.84324"><ele>250.33333333333331</ele><time>2026-04-16T16:19:46.992Z</time></trkpt><trkpt lat="43.353075" lon="11.8432367"><ele>250.66666666666666</ele><time>2026-04-16T16:19:48.993Z</time></trkpt><trkpt lat="43.3531417" lon="11.8432517"><ele>251.0</ele><time>2026-04-16T16:19:50.992Z</time></trkpt><trkpt lat="43.353225" lon="11.8432467"><ele>251.33333333333331</ele><time>2026-04-16T16:19:52.991Z</time></trkpt><trkpt lat="43.3533183" lon="11.8432317"><ele>251.66666666666666</ele><time>2026-04-16T16:19:54.989Z</time></trkpt><trkpt lat="43.3534117" lon="11.84323"><ele>252.0</ele><time>2026-04-16T16:19:56.99Z</time></trkpt><trkpt lat="43.3535" lon="11.84323"><ele>252.0</ele><time>2026-04-16T16:19:58.991Z</time></trkpt><trkpt lat="43.3535933" lon="11.843215"><ele>252.0</ele><time>2026-04-16T16:20:00.992Z</time></trkpt><trkpt lat="43.353675" lon="11.8431433"><ele>252.0</ele><time>2026-04-16T16:20:03.001Z</time></trkpt><trkpt lat="43.3536833" lon="11.8430233"><ele>252.0</ele><time>2026-04-16T16:20:04.992Z</time></trkpt><trkpt lat="43.3536267" lon="11.8429333"><ele>252.0</ele><time>2026-04-16T16:20:06.997Z</time></trkpt><trkpt lat="43.3535683" lon="11.8428317"><ele>252.0</ele><time>2026-04-16T16:20:08.994Z</time></trkpt><trkpt lat="43.3535" lon="11.842735"><ele>252.0</ele><time>2026-04-16T16:20:10.994Z</time></trkpt><trkpt lat="43.3534317" lon="11.8426367"><ele>252.0</ele><time>2026-04-16T16:20:12.989Z</time></trkpt><trkpt lat="43.353365" lon="11.8425283"><ele>252.0</ele><time>2026-04-16T16:20:14.996Z</time></trkpt><trkpt lat="43.3532933" lon="11.8424133"><ele>252.0</ele><time>2026-04-16T16:20:16.994Z</time></trkpt><trkpt lat="43.3532233" lon="11.842285"><ele>252.5</ele><time>2026-04-16T16:20:18.99Z</time></trkpt><trkpt lat="43.3531433" lon="11.84216"><ele>253.0</ele><time>2026-04-16T16:20:20.992Z</time></trkpt><trkpt lat="43.3530533" lon="11.8420517"><ele>253.5</ele><time>2026-04-16T16:20:22.993Z</time></trkpt><trkpt lat="43.3529717" lon="11.8419267"><ele>254.0</ele><time>2026-04-16T16:20:24.994Z</time></trkpt><trkpt lat="43.3528917" lon="11.8418017"><ele>253.0</ele><time>2026-04-16T16:20:26.992Z</time></trkpt><trkpt lat="43.35282" lon="11.8416867"><ele>251.99999999999997</ele><time>2026-04-16T16:20:28.995Z</time></trkpt><trkpt lat="43.352745" lon="11.84158"><ele>250.99999999999997</ele><time>2026-04-16T16:20:30.99Z</time></trkpt><trkpt lat="43.3526817" lon="11.8414633"><ele>250.0</ele><time>2026-04-16T16:20:32.994Z</time></trkpt><trkpt lat="43.3526083" lon="11.8413433"><ele>249.0</ele><time>2026-04-16T16:20:34.991Z</time></trkpt><trkpt lat="43.352535" lon="11.8412283"><ele>249.0</ele><time>2026-04-16T16:20:36.992Z</time></trkpt><trkpt lat="43.3524583" lon="11.84112"><ele>248.99999999999997</ele><time>2026-04-16T16:20:38.992Z</time></trkpt><trkpt lat="43.3523917" lon="11.8409983"><ele>248.99999999999997</ele><time>2026-04-16T16:20:40.994Z</time></trkpt><trkpt lat="43.35234" lon="11.840865"><ele>249.0</ele><time>2026-04-16T16:20:42.992Z</time></trkpt><trkpt lat="43.352305" lon="11.84073"><ele>249.0</ele><time>2026-04-16T16:20:44.996Z</time></trkpt><trkpt lat="43.3522883" lon="11.8405983"><ele>249.6</ele><time>2026-04-16T16:20:46.995Z</time></trkpt><trkpt lat="43.3523033" lon="11.84048"><ele>250.2</ele><time>2026-04-16T16:20:48.994Z</time></trkpt><trkpt lat="43.3523783" lon="11.840375"><ele>250.79999999999998</ele><time>2026-04-16T16:20:50.994Z</time></trkpt><trkpt lat="43.3524583" lon="11.840295"><ele>251.39999999999998</ele><time>2026-04-16T16:20:52.99Z</time></trkpt><trkpt lat="43.3525483" lon="11.840215"><ele>252.0</ele><time>2026-04-16T16:20:54.993Z</time></trkpt><trkpt lat="43.352635" lon="11.840135"><ele>251.39999999999998</ele><time>2026-04-16T16:20:56.997Z</time></trkpt><trkpt lat="43.3527283" lon="11.840055"><ele>250.79999999999998</ele><time>2026-04-16T16:20:58.99Z</time></trkpt><trkpt lat="43.352825" lon="11.8399717"><ele>250.2</ele><time>2026-04-16T16:21:00.992Z</time></trkpt><trkpt lat="43.3529417" lon="11.8398867"><ele>249.6</ele><time>2026-04-16T16:21:02.993Z</time></trkpt><trkpt lat="43.3530017" lon="11.8398367"><ele>249.0</ele><time>2026-04-16T16:21:03.992Z</time></trkpt><trkpt lat="43.353055" lon="11.83979"><ele>250.2</ele><time>2026-04-16T16:21:04.99Z</time></trkpt><trkpt lat="43.3531083" lon="11.8397367"><ele>251.39999999999998</ele><time>2026-04-16T16:21:05.991Z</time></trkpt><trkpt lat="43.3532017" lon="11.8396317"><ele>252.6</ele><time>2026-04-16T16:21:07.989Z</time></trkpt><trkpt lat="43.3533033" lon="11.8395467"><ele>253.8</ele><time>2026-04-16T16:21:09.989Z</time></trkpt><trkpt lat="43.35341" lon="11.8394767"><ele>255.0</ele><time>2026-04-16T16:21:11.991Z</time></trkpt><trkpt lat="43.3535133" lon="11.83943"><ele>255.0</ele><time>2026-04-16T16:21:13.988Z</time></trkpt><trkpt lat="43.3535967" lon="11.8393467"><ele>255.0</ele><time>2026-04-16T16:21:15.993Z</time></trkpt><trkpt lat="43.3536333" lon="11.8391983"><ele>255.0</ele><time>2026-04-16T16:21:17.992Z</time></trkpt><trkpt lat="43.3536317" lon="11.8391117"><ele>255.0</ele><time>2026-04-16T16:21:18.993Z</time></trkpt><trkpt lat="43.35361" lon="11.8390283"><ele>255.0</ele><time>2026-04-16T16:21:19.993Z</time></trkpt><trkpt lat="43.35358" lon="11.8389483"><ele>255.0</ele><time>2026-04-16T16:21:20.99Z</time></trkpt><trkpt lat="43.3535483" lon="11.8388683"><ele>254.14285714285717</ele><time>2026-04-16T16:21:21.993Z</time></trkpt><trkpt lat="43.3535183" lon="11.8387867"><ele>253.2857142857143</ele><time>2026-04-16T16:21:22.991Z</time></trkpt><trkpt lat="43.35349" lon="11.8387"><ele>252.42857142857144</ele><time>2026-04-16T16:21:23.991Z</time></trkpt><trkpt lat="43.353465" lon="11.8386117"><ele>251.57142857142856</ele><time>2026-04-16T16:21:24.995Z</time></trkpt><trkpt lat="43.35344" lon="11.8385217"><ele>250.7142857142857</ele><time>2026-04-16T16:21:25.991Z</time></trkpt><trkpt lat="43.35342" lon="11.8384317"><ele>249.85714285714283</ele><time>2026-04-16T16:21:26.99Z</time></trkpt><trkpt lat="43.3534033" lon="11.838345"><ele>249.0</ele><time>2026-04-16T16:21:27.992Z</time></trkpt><trkpt lat="43.35339" lon="11.8382567"><ele>248.57142857142856</ele><time>2026-04-16T16:21:28.991Z</time></trkpt><trkpt lat="43.35338" lon="11.8381667"><ele>248.1428571428571</ele><time>2026-04-16T16:21:29.992Z</time></trkpt><trkpt lat="43.3533717" lon="11.838075"><ele>247.71428571428572</ele><time>2026-04-16T16:21:30.99Z</time></trkpt><trkpt lat="43.353365" lon="11.837985"><ele>247.28571428571428</ele><time>2026-04-16T16:21:31.994Z</time></trkpt><trkpt lat="43.3533583" lon="11.8378967"><ele>246.85714285714286</ele><time>2026-04-16T16:21:32.99Z</time></trkpt><trkpt lat="43.35335" lon="11.8378083"><ele>246.42857142857144</ele><time>2026-04-16T16:21:33.991Z</time></trkpt><trkpt lat="43.3533433" lon="11.8377217"><ele>246.00000000000003</ele><time>2026-04-16T16:21:34.991Z</time></trkpt><trkpt lat="43.353335" lon="11.8376333"><ele>245.8571428571429</ele><time>2026-04-16T16:21:35.995Z</time></trkpt><trkpt lat="43.3533267" lon="11.8375383"><ele>245.71428571428572</ele><time>2026-04-16T16:21:36.993Z</time></trkpt><trkpt lat="43.3533183" lon="11.8374467"><ele>245.57142857142858</ele><time>2026-04-16T16:21:37.993Z</time></trkpt><trkpt lat="43.3533083" lon="11.83736"><ele>245.42857142857144</ele><time>2026-04-16T16:21:38.994Z</time></trkpt><trkpt lat="43.3532983" lon="11.8372683"><ele>245.28571428571428</ele><time>2026-04-16T16:21:39.991Z</time></trkpt><trkpt lat="43.3532883" lon="11.8371783"><ele>245.14285714285714</ele><time>2026-04-16T16:21:40.989Z</time></trkpt><trkpt lat="43.3532783" lon="11.8370883"><ele>245.0</ele><time>2026-04-16T16:21:41.994Z</time></trkpt><trkpt lat="43.3532683" lon="11.837"><ele>245.0</ele><time>2026-04-16T16:21:42.992Z</time></trkpt><trkpt lat="43.35326" lon="11.8369117"><ele>245.0</ele><time>2026-04-16T16:21:43.989Z</time></trkpt><trkpt lat="43.35325" lon="11.8368233"><ele>245.0</ele><time>2026-04-16T16:21:44.998Z</time></trkpt><trkpt lat="43.3532417" lon="11.836735"><ele>245.0</ele><time>2026-04-16T16:21:45.993Z</time></trkpt><trkpt lat="43.3532317" lon="11.836645"><ele>245.0</ele><time>2026-04-16T16:21:46.994Z</time></trkpt><trkpt lat="43.3532233" lon="11.836555"><ele>245.0</ele><time>2026-04-16T16:21:47.991Z</time></trkpt><trkpt lat="43.353215" lon="11.836465"><ele>245.0</ele><time>2026-04-16T16:21:48.993Z</time></trkpt><trkpt lat="43.3532067" lon="11.836375"><ele>244.85714285714286</ele><time>2026-04-16T16:21:49.993Z</time></trkpt><trkpt lat="43.3531983" lon="11.8362833"><ele>244.71428571428572</ele><time>2026-04-16T16:21:50.992Z</time></trkpt><trkpt lat="43.3531883" lon="11.83619"><ele>244.57142857142856</ele><time>2026-04-16T16:21:51.993Z</time></trkpt><trkpt lat="43.35318" lon="11.8360983"><ele>244.42857142857142</ele><time>2026-04-16T16:21:52.992Z</time></trkpt><trkpt lat="43.3531717" lon="11.8360067"><ele>244.28571428571428</ele><time>2026-04-16T16:21:53.992Z</time></trkpt><trkpt lat="43.3531617" lon="11.835915"><ele>244.1428571428571</ele><time>2026-04-16T16:21:54.996Z</time></trkpt><trkpt lat="43.35315" lon="11.835825"><ele>243.99999999999997</ele><time>2026-04-16T16:21:55.994Z</time></trkpt><trkpt lat="43.3531417" lon="11.8357333"><ele>243.99999999999997</ele><time>2026-04-16T16:21:56.992Z</time></trkpt><trkpt lat="43.3531317" lon="11.8356383"><ele>244.0</ele><time>2026-04-16T16:21:57.989Z</time></trkpt><trkpt lat="43.3531217" lon="11.8355433"><ele>243.99999999999997</ele><time>2026-04-16T16:21:58.993Z</time></trkpt><trkpt lat="43.3531133" lon="11.83545"><ele>243.99999999999997</ele><time>2026-04-16T16:21:59.993Z</time></trkpt><trkpt lat="43.3531067" lon="11.8353567"><ele>244.0</ele><time>2026-04-16T16:22:00.991Z</time></trkpt><trkpt lat="43.353095" lon="11.8352667"><ele>243.99999999999997</ele><time>2026-04-16T16:22:01.991Z</time></trkpt><trkpt lat="43.353085" lon="11.8351783"><ele>243.99999999999997</ele><time>2026-04-16T16:22:02.996Z</time></trkpt><trkpt lat="43.353075" lon="11.8350883"><ele>243.99999999999997</ele><time>2026-04-16T16:22:03.99Z</time></trkpt><trkpt lat="43.353065" lon="11.834995"><ele>244.0</ele><time>2026-04-16T16:22:04.993Z</time></trkpt><trkpt lat="43.3530567" lon="11.8349033"><ele>243.99999999999997</ele><time>2026-04-16T16:22:05.991Z</time></trkpt><trkpt lat="43.3530483" lon="11.8348117"><ele>243.99999999999997</ele><time>2026-04-16T16:22:06.992Z</time></trkpt><trkpt lat="43.3530417" lon="11.8347183"><ele>244.0</ele><time>2026-04-16T16:22:07.993Z</time></trkpt><trkpt lat="43.353035" lon="11.8346267"><ele>243.99999999999997</ele><time>2026-04-16T16:22:08.995Z</time></trkpt><trkpt lat="43.353025" lon="11.8345383"><ele>243.99999999999997</ele><time>2026-04-16T16:22:09.989Z</time></trkpt><trkpt lat="43.3530167" lon="11.83445"><ele>243.99999999999997</ele><time>2026-04-16T16:22:10.993Z</time></trkpt><trkpt lat="43.3530083" lon="11.8343617"><ele>244.0</ele><time>2026-04-16T16:22:11.992Z</time></trkpt><trkpt lat="43.3529933" lon="11.83419"><ele>244.0</ele><time>2026-04-16T16:22:13.992Z</time></trkpt><trkpt lat="43.3529767" lon="11.8340183"><ele>244.0</ele><time>2026-04-16T16:22:15.992Z</time></trkpt><trkpt lat="43.3529683" lon="11.83393"><ele>243.99999999999997</ele><time>2026-04-16T16:22:16.992Z</time></trkpt><trkpt lat="43.3529617" lon="11.8338417"><ele>244.0</ele><time>2026-04-16T16:22:17.99Z</time></trkpt><trkpt lat="43.3529533" lon="11.833755"><ele>243.99999999999997</ele><time>2026-04-16T16:22:18.991Z</time></trkpt><trkpt lat="43.352945" lon="11.833665"><ele>244.0</ele><time>2026-04-16T16:22:19.993Z</time></trkpt><trkpt lat="43.3529367" lon="11.8335783"><ele>243.99999999999997</ele><time>2026-04-16T16:22:20.992Z</time></trkpt><trkpt lat="43.3529267" lon="11.83349"><ele>243.99999999999997</ele><time>2026-04-16T16:22:21.992Z</time></trkpt><trkpt lat="43.3529183" lon="11.8334"><ele>244.0</ele><time>2026-04-16T16:22:22.991Z</time></trkpt><trkpt lat="43.3529083" lon="11.83331"><ele>243.99999999999997</ele><time>2026-04-16T16:22:23.992Z</time></trkpt><trkpt lat="43.3529" lon="11.83322"><ele>243.99999999999997</ele><time>2026-04-16T16:22:24.995Z</time></trkpt><trkpt lat="43.3528917" lon="11.83313"><ele>243.99999999999997</ele><time>2026-04-16T16:22:25.992Z</time></trkpt><trkpt lat="43.352885" lon="11.83304"><ele>244.0</ele><time>2026-04-16T16:22:26.992Z</time></trkpt><trkpt lat="43.3528783" lon="11.83295"><ele>243.99999999999997</ele><time>2026-04-16T16:22:27.995Z</time></trkpt><trkpt lat="43.3528683" lon="11.83286"><ele>243.99999999999997</ele><time>2026-04-16T16:22:28.99Z</time></trkpt><trkpt lat="43.3528583" lon="11.8327717"><ele>244.0</ele><time>2026-04-16T16:22:29.992Z</time></trkpt><trkpt lat="43.3528517" lon="11.8326817"><ele>243.99999999999997</ele><time>2026-04-16T16:22:30.994Z</time></trkpt><trkpt lat="43.3528417" lon="11.8325883"><ele>243.99999999999997</ele><time>2026-04-16T16:22:31.991Z</time></trkpt><trkpt lat="43.3528333" lon="11.8325017"><ele>243.71428571428567</ele><time>2026-04-16T16:22:32.992Z</time></trkpt><trkpt lat="43.352825" lon="11.8324117"><ele>243.42857142857142</ele><time>2026-04-16T16:22:33.993Z</time></trkpt><trkpt lat="43.3528167" lon="11.8323233"><ele>243.1428571428571</ele><time>2026-04-16T16:22:34.991Z</time></trkpt><trkpt lat="43.3528067" lon="11.8322333"><ele>242.85714285714283</ele><time>2026-04-16T16:22:35.991Z</time></trkpt><trkpt lat="43.3528" lon="11.8321433"><ele>242.57142857142856</ele><time>2026-04-16T16:22:36.989Z</time></trkpt><trkpt lat="43.35279" lon="11.832055"><ele>242.28571428571428</ele><time>2026-04-16T16:22:37.993Z</time></trkpt><trkpt lat="43.3527817" lon="11.8319633"><ele>242.0</ele><time>2026-04-16T16:22:38.991Z</time></trkpt><trkpt lat="43.3527767" lon="11.8318683"><ele>241.85714285714283</ele><time>2026-04-16T16:22:39.994Z</time></trkpt><trkpt lat="43.35277" lon="11.8317733"><ele>241.7142857142857</ele><time>2026-04-16T16:22:40.992Z</time></trkpt><trkpt lat="43.3527617" lon="11.8316817"><ele>241.57142857142856</ele><time>2026-04-16T16:22:41.989Z</time></trkpt><trkpt lat="43.352755" lon="11.83159"><ele>241.42857142857144</ele><time>2026-04-16T16:22:42.989Z</time></trkpt><trkpt lat="43.352745" lon="11.8314983"><ele>241.2857142857143</ele><time>2026-04-16T16:22:43.989Z</time></trkpt><trkpt lat="43.3527367" lon="11.83141"><ele>241.14285714285717</ele><time>2026-04-16T16:22:44.991Z</time></trkpt><trkpt lat="43.3527283" lon="11.8313217"><ele>241.0</ele><time>2026-04-16T16:22:45.993Z</time></trkpt><trkpt lat="43.3527183" lon="11.8312333"><ele>240.99999999999997</ele><time>2026-04-16T16:22:46.993Z</time></trkpt><trkpt lat="43.35271" lon="11.831145"><ele>241.0</ele><time>2026-04-16T16:22:47.992Z</time></trkpt><trkpt lat="43.3526933" lon="11.8309733"><ele>241.0</ele><time>2026-04-16T16:22:49.998Z</time></trkpt><trkpt lat="43.352675" lon="11.8308017"><ele>241.0</ele><time>2026-04-16T16:22:51.994Z</time></trkpt><trkpt lat="43.352665" lon="11.830715"><ele>240.99999999999997</ele><time>2026-04-16T16:22:52.992Z</time></trkpt><trkpt lat="43.3526567" lon="11.8306267"><ele>241.0</ele><time>2026-04-16T16:22:53.993Z</time></trkpt><trkpt lat="43.3526383" lon="11.8304617"><ele>241.25</ele><time>2026-04-16T16:22:55.994Z</time></trkpt><trkpt lat="43.3526217" lon="11.8302933"><ele>241.5</ele><time>2026-04-16T16:22:57.989Z</time></trkpt><trkpt lat="43.3526033" lon="11.8301233"><ele>241.75</ele><time>2026-04-16T16:22:59.998Z</time></trkpt><trkpt lat="43.3525867" lon="11.82996"><ele>242.0</ele><time>2026-04-16T16:23:01.993Z</time></trkpt><trkpt lat="43.3525683" lon="11.8297933"><ele>242.0</ele><time>2026-04-16T16:23:03.989Z</time></trkpt><trkpt lat="43.3525533" lon="11.8296233"><ele>242.0</ele><time>2026-04-16T16:23:05.992Z</time></trkpt><trkpt lat="43.35254" lon="11.8294567"><ele>242.0</ele><time>2026-04-16T16:23:07.993Z</time></trkpt><trkpt lat="43.3525333" lon="11.82937"><ele>242.0</ele><time>2026-04-16T16:23:08.994Z</time></trkpt><trkpt lat="43.3525167" lon="11.8292033"><ele>242.0</ele><time>2026-04-16T16:23:10.989Z</time></trkpt><trkpt lat="43.3525033" lon="11.8290367"><ele>242.0</ele><time>2026-04-16T16:23:12.994Z</time></trkpt><trkpt lat="43.3524867" lon="11.82887"><ele>242.0</ele><time>2026-04-16T16:23:14.991Z</time></trkpt><trkpt lat="43.3524733" lon="11.8287"><ele>242.0</ele><time>2026-04-16T16:23:16.992Z</time></trkpt><trkpt lat="43.3524583" lon="11.828535"><ele>242.0</ele><time>2026-04-16T16:23:18.992Z</time></trkpt><trkpt lat="43.3524417" lon="11.8283733"><ele>242.0</ele><time>2026-04-16T16:23:20.993Z</time></trkpt><trkpt lat="43.3524267" lon="11.8282117"><ele>242.0</ele><time>2026-04-16T16:23:22.992Z</time></trkpt><trkpt lat="43.35241" lon="11.828055"><ele>242.0</ele><time>2026-04-16T16:23:24.997Z</time></trkpt><trkpt lat="43.3523917" lon="11.8279017"><ele>242.0</ele><time>2026-04-16T16:23:26.993Z</time></trkpt><trkpt lat="43.3523767" lon="11.82775"><ele>242.0</ele><time>2026-04-16T16:23:28.996Z</time></trkpt><trkpt lat="43.35236" lon="11.8275983"><ele>242.0</ele><time>2026-04-16T16:23:30.992Z</time></trkpt><trkpt lat="43.352345" lon="11.8274433"><ele>242.0</ele><time>2026-04-16T16:23:32.992Z</time></trkpt><trkpt lat="43.3523283" lon="11.8272883"><ele>242.0</ele><time>2026-04-16T16:23:34.991Z</time></trkpt><trkpt lat="43.3523117" lon="11.8271283"><ele>242.0</ele><time>2026-04-16T16:23:36.995Z</time></trkpt><trkpt lat="43.352295" lon="11.8269683"><ele>242.0</ele><time>2026-04-16T16:23:38.994Z</time></trkpt><trkpt lat="43.3522783" lon="11.8268083"><ele>242.0</ele><time>2026-04-16T16:23:40.99Z</time></trkpt><trkpt lat="43.352265" lon="11.82665"><ele>242.0</ele><time>2026-04-16T16:23:42.995Z</time></trkpt><trkpt lat="43.35225" lon="11.82649"><ele>241.5</ele><time>2026-04-16T16:23:44.992Z</time></trkpt><trkpt lat="43.352235" lon="11.8263317"><ele>241.0</ele><time>2026-04-16T16:23:46.993Z</time></trkpt><trkpt lat="43.3522217" lon="11.82618"><ele>240.5</ele><time>2026-04-16T16:23:48.992Z</time></trkpt><trkpt lat="43.3522067" lon="11.8260183"><ele>240.0</ele><time>2026-04-16T16:23:50.993Z</time></trkpt><trkpt lat="43.35219" lon="11.82585"><ele>241.0</ele><time>2026-04-16T16:23:52.992Z</time></trkpt><trkpt lat="43.3521767" lon="11.82569"><ele>242.0</ele><time>2026-04-16T16:23:54.996Z</time></trkpt><trkpt lat="43.3521617" lon="11.8255333"><ele>243.0</ele><time>2026-04-16T16:23:56.993Z</time></trkpt><trkpt lat="43.3521467" lon="11.8253767"><ele>244.0</ele><time>2026-04-16T16:23:58.994Z</time></trkpt><trkpt lat="43.352125" lon="11.8252183"><ele>244.0</ele><time>2026-04-16T16:24:00.991Z</time></trkpt><trkpt lat="43.3521117" lon="11.82505"><ele>244.0</ele><time>2026-04-16T16:24:02.991Z</time></trkpt><trkpt lat="43.3520967" lon="11.8248883"><ele>244.0</ele><time>2026-04-16T16:24:04.992Z</time></trkpt><trkpt lat="43.3520783" lon="11.8247333"><ele>244.0</ele><time>2026-04-16T16:24:06.989Z</time></trkpt><trkpt lat="43.3520633" lon="11.8245783"><ele>244.0</ele><time>2026-04-16T16:24:08.994Z</time></trkpt><trkpt lat="43.3520483" lon="11.82443"><ele>243.99999999999997</ele><time>2026-04-16T16:24:10.989Z</time></trkpt><trkpt lat="43.3520367" lon="11.8242817"><ele>243.99999999999997</ele><time>2026-04-16T16:24:12.992Z</time></trkpt><trkpt lat="43.352025" lon="11.8241267"><ele>244.0</ele><time>2026-04-16T16:24:14.991Z</time></trkpt><trkpt lat="43.3520117" lon="11.8239683"><ele>244.0</ele><time>2026-04-16T16:24:16.992Z</time></trkpt><trkpt lat="43.3519983" lon="11.8238017"><ele>243.75</ele><time>2026-04-16T16:24:18.994Z</time></trkpt><trkpt lat="43.35198" lon="11.8236367"><ele>243.5</ele><time>2026-04-16T16:24:20.997Z</time></trkpt><trkpt lat="43.35196" lon="11.8234733"><ele>243.25</ele><time>2026-04-16T16:24:22.989Z</time></trkpt><trkpt lat="43.35194" lon="11.8233033"><ele>243.0</ele><time>2026-04-16T16:24:24.992Z</time></trkpt><trkpt lat="43.351925" lon="11.8231383"><ele>243.0</ele><time>2026-04-16T16:24:26.991Z</time></trkpt><trkpt lat="43.3519067" lon="11.8229733"><ele>243.0</ele><time>2026-04-16T16:24:28.993Z</time></trkpt><trkpt lat="43.3518883" lon="11.82281"><ele>243.0</ele><time>2026-04-16T16:24:30.992Z</time></trkpt><trkpt lat="43.351875" lon="11.8226467"><ele>243.0</ele><time>2026-04-16T16:24:32.993Z</time></trkpt><trkpt lat="43.3518533" lon="11.822485"><ele>243.5</ele><time>2026-04-16T16:24:34.993Z</time></trkpt><trkpt lat="43.351835" lon="11.8223233"><ele>244.0</ele><time>2026-04-16T16:24:36.993Z</time></trkpt><trkpt lat="43.3518167" lon="11.8221617"><ele>244.5</ele><time>2026-04-16T16:24:38.992Z</time></trkpt><trkpt lat="43.3518" lon="11.821995"><ele>245.0</ele><time>2026-04-16T16:24:40.99Z</time></trkpt><trkpt lat="43.35179" lon="11.821835"><ele>245.0</ele><time>2026-04-16T16:24:42.991Z</time></trkpt><trkpt lat="43.3517833" lon="11.8216783"><ele>245.0</ele><time>2026-04-16T16:24:44.989Z</time></trkpt><trkpt lat="43.351775" lon="11.82152"><ele>245.0</ele><time>2026-04-16T16:24:46.989Z</time></trkpt><trkpt lat="43.3517633" lon="11.8213617"><ele>245.0</ele><time>2026-04-16T16:24:48.994Z</time></trkpt><trkpt lat="43.3517533" lon="11.821205"><ele>245.0</ele><time>2026-04-16T16:24:50.997Z</time></trkpt><trkpt lat="43.3517367" lon="11.8210467"><ele>245.0</ele><time>2026-04-16T16:24:52.994Z</time></trkpt><trkpt lat="43.3517217" lon="11.8208833"><ele>245.0</ele><time>2026-04-16T16:24:54.991Z</time></trkpt><trkpt lat="43.3517083" lon="11.8207183"><ele>245.0</ele><time>2026-04-16T16:24:56.992Z</time></trkpt><trkpt lat="43.351695" lon="11.820555"><ele>244.75</ele><time>2026-04-16T16:24:58.994Z</time></trkpt><trkpt lat="43.3516833" lon="11.820395"><ele>244.5</ele><time>2026-04-16T16:25:00.995Z</time></trkpt><trkpt lat="43.3516717" lon="11.820235"><ele>244.25</ele><time>2026-04-16T16:25:02.992Z</time></trkpt><trkpt lat="43.35166" lon="11.8200733"><ele>244.0</ele><time>2026-04-16T16:25:04.993Z</time></trkpt><trkpt lat="43.3516483" lon="11.8199133"><ele>244.0</ele><time>2026-04-16T16:25:06.991Z</time></trkpt><trkpt lat="43.3516367" lon="11.819755"><ele>244.0</ele><time>2026-04-16T16:25:08.994Z</time></trkpt><trkpt lat="43.35162" lon="11.8195983"><ele>244.0</ele><time>2026-04-16T16:25:10.991Z</time></trkpt><trkpt lat="43.3516" lon="11.81944"><ele>244.0</ele><time>2026-04-16T16:25:12.991Z</time></trkpt><trkpt lat="43.3515867" lon="11.819285"><ele>244.0</ele><time>2026-04-16T16:25:14.995Z</time></trkpt><trkpt lat="43.3515733" lon="11.81913"><ele>244.0</ele><time>2026-04-16T16:25:16.994Z</time></trkpt><trkpt lat="43.3515583" lon="11.8189733"><ele>244.0</ele><time>2026-04-16T16:25:18.992Z</time></trkpt><trkpt lat="43.3515417" lon="11.8188183"><ele>244.0</ele><time>2026-04-16T16:25:20.992Z</time></trkpt><trkpt lat="43.351525" lon="11.8186633"><ele>244.0</ele><time>2026-04-16T16:25:22.995Z</time></trkpt><trkpt lat="43.3515083" lon="11.8185083"><ele>244.0</ele><time>2026-04-16T16:25:24.994Z</time></trkpt><trkpt lat="43.3514933" lon="11.8183467"><ele>244.0</ele><time>2026-04-16T16:25:26.992Z</time></trkpt><trkpt lat="43.35148" lon="11.8181867"><ele>244.0</ele><time>2026-04-16T16:25:28.99Z</time></trkpt><trkpt lat="43.351465" lon="11.818025"><ele>244.5</ele><time>2026-04-16T16:25:30.992Z</time></trkpt><trkpt lat="43.3514483" lon="11.8178667"><ele>245.0</ele><time>2026-04-16T16:25:32.994Z</time></trkpt><trkpt lat="43.3514333" lon="11.81771"><ele>245.5</ele><time>2026-04-16T16:25:34.993Z</time></trkpt><trkpt lat="43.3514167" lon="11.8175483"><ele>246.0</ele><time>2026-04-16T16:25:36.991Z</time></trkpt><trkpt lat="43.3514017" lon="11.8173917"><ele>246.0</ele><time>2026-04-16T16:25:38.995Z</time></trkpt><trkpt lat="43.3513833" lon="11.8172317"><ele>246.0</ele><time>2026-04-16T16:25:40.989Z</time></trkpt><trkpt lat="43.35137" lon="11.8170733"><ele>246.0</ele><time>2026-04-16T16:25:42.992Z</time></trkpt><trkpt lat="43.3513567" lon="11.8169183"><ele>246.0</ele><time>2026-04-16T16:25:44.993Z</time></trkpt><trkpt lat="43.3513433" lon="11.8167667"><ele>245.75</ele><time>2026-04-16T16:25:46.991Z</time></trkpt><trkpt lat="43.3513283" lon="11.81661"><ele>245.5</ele><time>2026-04-16T16:25:48.994Z</time></trkpt><trkpt lat="43.35131" lon="11.8164517"><ele>245.25</ele><time>2026-04-16T16:25:50.993Z</time></trkpt><trkpt lat="43.3512933" lon="11.8162883"><ele>245.0</ele><time>2026-04-16T16:25:52.99Z</time></trkpt><trkpt lat="43.35128" lon="11.816125"><ele>245.0</ele><time>2026-04-16T16:25:54.99Z</time></trkpt><trkpt lat="43.3512633" lon="11.8159633"><ele>245.0</ele><time>2026-04-16T16:25:56.991Z</time></trkpt><trkpt lat="43.3512483" lon="11.8158067"><ele>245.0</ele><time>2026-04-16T16:25:58.992Z</time></trkpt><trkpt lat="43.3512333" lon="11.81565"><ele>245.0</ele><time>2026-04-16T16:26:00.991Z</time></trkpt><trkpt lat="43.3512183" lon="11.815495"><ele>245.0</ele><time>2026-04-16T16:26:02.991Z</time></trkpt><trkpt lat="43.3512017" lon="11.8153417"><ele>245.0</ele><time>2026-04-16T16:26:04.989Z</time></trkpt><trkpt lat="43.3511833" lon="11.815185"><ele>245.0</ele><time>2026-04-16T16:26:06.992Z</time></trkpt><trkpt lat="43.3511667" lon="11.8150267"><ele>245.0</ele><time>2026-04-16T16:26:08.99Z</time></trkpt><trkpt lat="43.35115" lon="11.8148717"><ele>245.0</ele><time>2026-04-16T16:26:10.994Z</time></trkpt><trkpt lat="43.35113" lon="11.8147183"><ele>245.0</ele><time>2026-04-16T16:26:12.991Z</time></trkpt><trkpt lat="43.351115" lon="11.8145633"><ele>245.0</ele><time>2026-04-16T16:26:14.992Z</time></trkpt><trkpt lat="43.3511" lon="11.814405"><ele>245.0</ele><time>2026-04-16T16:26:16.989Z</time></trkpt><trkpt lat="43.3510883" lon="11.81425"><ele>245.25</ele><time>2026-04-16T16:26:18.993Z</time></trkpt><trkpt lat="43.351075" lon="11.8140917"><ele>245.5</ele><time>2026-04-16T16:26:20.99Z</time></trkpt><trkpt lat="43.3510617" lon="11.8139333"><ele>245.75</ele><time>2026-04-16T16:26:22.99Z</time></trkpt><trkpt lat="43.35105" lon="11.8137733"><ele>246.0</ele><time>2026-04-16T16:26:24.996Z</time></trkpt><trkpt lat="43.3510367" lon="11.8136117"><ele>246.4</ele><time>2026-04-16T16:26:26.992Z</time></trkpt><trkpt lat="43.351025" lon="11.8134583"><ele>246.8</ele><time>2026-04-16T16:26:28.989Z</time></trkpt><trkpt lat="43.35101" lon="11.8133033"><ele>247.20000000000002</ele><time>2026-04-16T16:26:30.993Z</time></trkpt><trkpt lat="43.351" lon="11.81315"><ele>247.60000000000002</ele><time>2026-04-16T16:26:32.992Z</time></trkpt><trkpt lat="43.3509833" lon="11.8130067"><ele>248.0</ele><time>2026-04-16T16:26:34.994Z</time></trkpt><trkpt lat="43.35097" lon="11.8128633"><ele>248.0</ele><time>2026-04-16T16:26:36.989Z</time></trkpt><trkpt lat="43.3509567" lon="11.8127233"><ele>248.0</ele><time>2026-04-16T16:26:38.99Z</time></trkpt><trkpt lat="43.3509467" lon="11.812585"><ele>248.0</ele><time>2026-04-16T16:26:40.997Z</time></trkpt><trkpt lat="43.3509333" lon="11.8124533"><ele>248.0</ele><time>2026-04-16T16:26:42.99Z</time></trkpt><trkpt lat="43.3509217" lon="11.8123267"><ele>248.0</ele><time>2026-04-16T16:26:44.992Z</time></trkpt><trkpt lat="43.35091" lon="11.8122067"><ele>248.14285714285717</ele><time>2026-04-16T16:26:46.99Z</time></trkpt><trkpt lat="43.3508983" lon="11.8120967"><ele>248.2857142857143</ele><time>2026-04-16T16:26:48.991Z</time></trkpt><trkpt lat="43.3508867" lon="11.811995"><ele>248.42857142857144</ele><time>2026-04-16T16:26:50.993Z</time></trkpt><trkpt lat="43.3508783" lon="11.8119017"><ele>248.57142857142856</ele><time>2026-04-16T16:26:52.991Z</time></trkpt><trkpt lat="43.350865" lon="11.8118167"><ele>248.7142857142857</ele><time>2026-04-16T16:26:54.992Z</time></trkpt><trkpt lat="43.350855" lon="11.8117283"><ele>248.85714285714283</ele><time>2026-04-16T16:26:56.99Z</time></trkpt><trkpt lat="43.35084" lon="11.8116"><ele>249.0</ele><time>2026-04-16T16:26:59.991Z</time></trkpt><trkpt lat="43.350835" lon="11.8115133"><ele>249.14285714285714</ele><time>2026-04-16T16:27:01.993Z</time></trkpt><trkpt lat="43.350825" lon="11.8113917"><ele>249.28571428571428</ele><time>2026-04-16T16:27:04.99Z</time></trkpt><trkpt lat="43.3508267" lon="11.811305"><ele>249.42857142857142</ele><time>2026-04-16T16:27:06.994Z</time></trkpt><trkpt lat="43.3508667" lon="11.8112083"><ele>249.57142857142856</ele><time>2026-04-16T16:27:09.991Z</time></trkpt><trkpt lat="43.350905" lon="11.81113"><ele>249.71428571428572</ele><time>2026-04-16T16:27:12.992Z</time></trkpt><trkpt lat="43.3509617" lon="11.811075"><ele>249.85714285714283</ele><time>2026-04-16T16:27:16.993Z</time></trkpt><trkpt lat="43.3510267" lon="11.8110667"><ele>250.0</ele><time>2026-04-16T16:27:20.994Z</time></trkpt><trkpt lat="43.3510883" lon="11.811045"><ele>250.0</ele><time>2026-04-16T16:27:23.99Z</time></trkpt><trkpt lat="43.3511733" lon="11.8110133"><ele>250.0</ele><time>2026-04-16T16:27:26.992Z</time></trkpt><trkpt lat="43.3512383" lon="11.8110083"><ele>250.0</ele><time>2026-04-16T16:27:28.995Z</time></trkpt><trkpt lat="43.3513033" lon="11.8109967"><ele>250.0</ele><time>2026-04-16T16:27:30.992Z</time></trkpt><trkpt lat="43.3513717" lon="11.811"><ele>250.0</ele><time>2026-04-16T16:27:32.994Z</time></trkpt><trkpt lat="43.3514483" lon="11.8109933"><ele>250.0</ele><time>2026-04-16T16:27:34.992Z</time></trkpt><trkpt lat="43.3515217" lon="11.8109883"><ele>250.0</ele><time>2026-04-16T16:27:36.992Z</time></trkpt><trkpt lat="43.3515983" lon="11.8109683"><ele>249.99999999999997</ele><time>2026-04-16T16:27:38.991Z</time></trkpt><trkpt lat="43.3516783" lon="11.8109517"><ele>250.0</ele><time>2026-04-16T16:27:40.991Z</time></trkpt><trkpt lat="43.3517567" lon="11.81092"><ele>250.0</ele><time>2026-04-16T16:27:42.995Z</time></trkpt><trkpt lat="43.3518383" lon="11.810895"><ele>250.0</ele><time>2026-04-16T16:27:44.996Z</time></trkpt><trkpt lat="43.3519117" lon="11.8108733"><ele>249.99999999999997</ele><time>2026-04-16T16:27:46.992Z</time></trkpt><trkpt lat="43.351985" lon="11.8108483"><ele>250.0</ele><time>2026-04-16T16:27:49.991Z</time></trkpt><trkpt lat="43.35205" lon="11.8108183"><ele>250.0</ele><time>2026-04-16T16:27:53.993Z</time></trkpt><trkpt lat="43.3521183" lon="11.81081"><ele>250.0</ele><time>2026-04-16T16:28:00.992Z</time></trkpt><trkpt lat="43.3521283" lon="11.8106917"><ele>250.0</ele><time>2026-04-16T16:28:22.991Z</time></trkpt><trkpt lat="43.3521117" lon="11.810605"><ele>250.0</ele><time>2026-04-16T16:28:26.987Z</time></trkpt><trkpt lat="43.3521017" lon="11.8104967"><ele>250.0</ele><time>2026-04-16T16:28:31.995Z</time></trkpt><trkpt lat="43.352075" lon="11.810405"><ele>250.0</ele><time>2026-04-16T16:28:35.992Z</time></trkpt><trkpt lat="43.3520467" lon="11.8103233"><ele>250.0</ele><time>2026-04-16T16:28:38.994Z</time></trkpt><trkpt lat="43.352" lon="11.810255"><ele>250.0</ele><time>2026-04-16T16:28:41.993Z</time></trkpt><trkpt lat="43.3519717" lon="11.8101717"><ele>250.0</ele><time>2026-04-16T16:28:45.99Z</time></trkpt><trkpt lat="43.35194" lon="11.81009"><ele>250.0</ele><time>2026-04-16T16:28:48.99Z</time></trkpt><trkpt lat="43.35192" lon="11.8099967"><ele>250.0</ele><time>2026-04-16T16:28:51.992Z</time></trkpt><trkpt lat="43.3518933" lon="11.8098917"><ele>250.0</ele><time>2026-04-16T16:28:54.995Z</time></trkpt><trkpt lat="43.3518617" lon="11.8097867"><ele>250.0</ele><time>2026-04-16T16:28:57.992Z</time></trkpt><trkpt lat="43.3518267" lon="11.8097033"><ele>250.0</ele><time>2026-04-16T16:29:00.994Z</time></trkpt><trkpt lat="43.3517967" lon="11.8096117"><ele>250.66666666666666</ele><time>2026-04-16T16:29:03.991Z</time></trkpt><trkpt lat="43.3517733" lon="11.8095133"><ele>251.33333333333331</ele><time>2026-04-16T16:29:06.992Z</time></trkpt><trkpt lat="43.3517467" lon="11.8094117"><ele>252.0</ele><time>2026-04-16T16:29:09.99Z</time></trkpt><trkpt lat="43.351725" lon="11.8093183"><ele>252.66666666666669</ele><time>2026-04-16T16:29:12.995Z</time></trkpt><trkpt lat="43.3516967" lon="11.80923"><ele>253.33333333333334</ele><time>2026-04-16T16:29:15.992Z</time></trkpt><trkpt lat="43.3516683" lon="11.80913"><ele>254.0</ele><time>2026-04-16T16:29:18.993Z</time></trkpt><trkpt lat="43.3516367" lon="11.8090267"><ele>254.57142857142858</ele><time>2026-04-16T16:29:21.992Z</time></trkpt><trkpt lat="43.351625" lon="11.8089233"><ele>255.1428571428571</ele><time>2026-04-16T16:29:24.993Z</time></trkpt><trkpt lat="43.351615" lon="11.808835"><ele>255.7142857142857</ele><time>2026-04-16T16:29:27.994Z</time></trkpt><trkpt lat="43.35163" lon="11.80872"><ele>256.2857142857143</ele><time>2026-04-16T16:29:31.99Z</time></trkpt><trkpt lat="43.3516333" lon="11.80863"><ele>256.85714285714283</ele><time>2026-04-16T16:29:34.992Z</time></trkpt><trkpt lat="43.3516267" lon="11.8085433"><ele>257.4285714285714</ele><time>2026-04-16T16:29:37.993Z</time></trkpt><trkpt lat="43.3516017" lon="11.8084317"><ele>258.0</ele><time>2026-04-16T16:29:40.991Z</time></trkpt><trkpt lat="43.351555" lon="11.80832"><ele>258.2857142857143</ele><time>2026-04-16T16:29:43.994Z</time></trkpt><trkpt lat="43.351515" lon="11.808245"><ele>258.57142857142856</ele><time>2026-04-16T16:29:45.987Z</time></trkpt><trkpt lat="43.3514733" lon="11.8081783"><ele>258.8571428571429</ele><time>2026-04-16T16:29:47.992Z</time></trkpt><trkpt lat="43.3514267" lon="11.808095"><ele>259.1428571428571</ele><time>2026-04-16T16:29:50.99Z</time></trkpt><trkpt lat="43.351395" lon="11.808015"><ele>259.42857142857144</ele><time>2026-04-16T16:29:53.993Z</time></trkpt><trkpt lat="43.3513567" lon="11.8079417"><ele>259.7142857142857</ele><time>2026-04-16T16:29:56.996Z</time></trkpt><trkpt lat="43.3513167" lon="11.80786"><ele>260.0</ele><time>2026-04-16T16:30:00.996Z</time></trkpt><trkpt lat="43.3512817" lon="11.8077633"><ele>262.0</ele><time>2026-04-16T16:30:04.991Z</time></trkpt><trkpt lat="43.3512483" lon="11.8076633"><ele>264.0</ele><time>2026-04-16T16:30:08.993Z</time></trkpt><trkpt lat="43.3512233" lon="11.80758"><ele>266.0</ele><time>2026-04-16T16:30:11.989Z</time></trkpt><trkpt lat="43.351185" lon="11.80748"><ele>268.0</ele><time>2026-04-16T16:30:15.992Z</time></trkpt><trkpt lat="43.3511583" lon="11.8073917"><ele>270.0</ele><time>2026-04-16T16:30:19.993Z</time></trkpt><trkpt lat="43.3511267" lon="11.80729"><ele>272.0</ele><time>2026-04-16T16:30:23.993Z</time></trkpt><trkpt lat="43.3510983" lon="11.80718"><ele>271.99999999999994</ele><time>2026-04-16T16:30:27.994Z</time></trkpt><trkpt lat="43.3510717" lon="11.8070833"><ele>272.0</ele><time>2026-04-16T16:30:31.993Z</time></trkpt><trkpt lat="43.3510517" lon="11.80699"><ele>272.0</ele><time>2026-04-16T16:30:35.992Z</time></trkpt><trkpt lat="43.3510283" lon="11.8069017"><ele>272.0</ele><time>2026-04-16T16:30:38.993Z</time></trkpt><trkpt lat="43.3510017" lon="11.806805"><ele>272.0</ele><time>2026-04-16T16:30:41.994Z</time></trkpt><trkpt lat="43.3509717" lon="11.8067117"><ele>271.99999999999994</ele><time>2026-04-16T16:30:44.992Z</time></trkpt><trkpt lat="43.3509317" lon="11.806615"><ele>272.0</ele><time>2026-04-16T16:30:47.99Z</time></trkpt><trkpt lat="43.3508817" lon="11.806515"><ele>272.0</ele><time>2026-04-16T16:30:50.994Z</time></trkpt><trkpt lat="43.3508417" lon="11.8064017"><ele>272.0</ele><time>2026-04-16T16:30:53.992Z</time></trkpt><trkpt lat="43.350805" lon="11.806305"><ele>272.0</ele><time>2026-04-16T16:30:56.994Z</time></trkpt><trkpt lat="43.35078" lon="11.806195"><ele>272.0</ele><time>2026-04-16T16:30:59.991Z</time></trkpt><trkpt lat="43.3507633" lon="11.8061033"><ele>272.0</ele><time>2026-04-16T16:31:02.991Z</time></trkpt><trkpt lat="43.3507333" lon="11.8059917"><ele>272.0</ele><time>2026-04-16T16:31:05.994Z</time></trkpt><trkpt lat="43.3507017" lon="11.8058817"><ele>272.33333333333337</ele><time>2026-04-16T16:31:08.991Z</time></trkpt><trkpt lat="43.3506717" lon="11.8057817"><ele>272.6666666666667</ele><time>2026-04-16T16:31:11.997Z</time></trkpt><trkpt lat="43.3506433" lon="11.8056833"><ele>273.0</ele><time>2026-04-16T16:31:14.991Z</time></trkpt><trkpt lat="43.3506167" lon="11.805585"><ele>273.3333333333333</ele><time>2026-04-16T16:31:17.993Z</time></trkpt><trkpt lat="43.3505967" lon="11.8054867"><ele>273.66666666666663</ele><time>2026-04-16T16:31:20.99Z</time></trkpt><trkpt lat="43.350575" lon="11.805385"><ele>274.0</ele><time>2026-04-16T16:31:23.99Z</time></trkpt><trkpt lat="43.35055" lon="11.8052967"><ele>274.00000000000006</ele><time>2026-04-16T16:31:26.993Z</time></trkpt><trkpt lat="43.350525" lon="11.8052033"><ele>274.0</ele><time>2026-04-16T16:31:29.993Z</time></trkpt><trkpt lat="43.350485" lon="11.8051167"><ele>274.0</ele><time>2026-04-16T16:31:32.992Z</time></trkpt><trkpt lat="43.350455" lon="11.805025"><ele>274.0</ele><time>2026-04-16T16:31:35.991Z</time></trkpt><trkpt lat="43.3504133" lon="11.804935"><ele>274.0</ele><time>2026-04-16T16:31:38.992Z</time></trkpt><trkpt lat="43.3503783" lon="11.8048483"><ele>274.00000000000006</ele><time>2026-04-16T16:31:41.992Z</time></trkpt><trkpt lat="43.350345" lon="11.8047567"><ele>274.0</ele><time>2026-04-16T16:31:44.995Z</time></trkpt><trkpt lat="43.3503133" lon="11.8046517"><ele>274.66666666666663</ele><time>2026-04-16T16:31:47.992Z</time></trkpt><trkpt lat="43.3502867" lon="11.8045433"><ele>275.3333333333333</ele><time>2026-04-16T16:31:50.997Z</time></trkpt><trkpt lat="43.3502583" lon="11.8044317"><ele>276.0</ele><time>2026-04-16T16:31:53.994Z</time></trkpt><trkpt lat="43.350225" lon="11.80433"><ele>276.6666666666667</ele><time>2026-04-16T16:31:56.989Z</time></trkpt><trkpt lat="43.3502" lon="11.8042233"><ele>277.33333333333337</ele><time>2026-04-16T16:31:59.992Z</time></trkpt><trkpt lat="43.350175" lon="11.80413"><ele>278.0</ele><time>2026-04-16T16:32:02.992Z</time></trkpt><trkpt lat="43.3501433" lon="11.8040317"><ele>278.5</ele><time>2026-04-16T16:32:05.993Z</time></trkpt><trkpt lat="43.3501083" lon="11.8039333"><ele>279.0</ele><time>2026-04-16T16:32:08.991Z</time></trkpt><trkpt lat="43.3500767" lon="11.80385"><ele>279.5</ele><time>2026-04-16T16:32:11.995Z</time></trkpt><trkpt lat="43.3500333" lon="11.8037617"><ele>280.0</ele><time>2026-04-16T16:32:15.992Z</time></trkpt><trkpt lat="43.3499967" lon="11.8036833"><ele>280.5</ele><time>2026-04-16T16:32:18.991Z</time></trkpt><trkpt lat="43.3499533" lon="11.8035717"><ele>281.0</ele><time>2026-04-16T16:32:21.993Z</time></trkpt><trkpt lat="43.3499033" lon="11.8034483"><ele>281.2</ele><time>2026-04-16T16:32:24.992Z</time></trkpt><trkpt lat="43.3498633" lon="11.803345"><ele>281.40000000000003</ele><time>2026-04-16T16:32:26.994Z</time></trkpt><trkpt lat="43.3498267" lon="11.803215"><ele>281.6</ele><time>2026-04-16T16:32:28.994Z</time></trkpt><trkpt lat="43.3497933" lon="11.8030717"><ele>281.8</ele><time>2026-04-16T16:32:30.993Z</time></trkpt><trkpt lat="43.3497533" lon="11.8029233"><ele>282.0</ele><time>2026-04-16T16:32:32.994Z</time></trkpt><trkpt lat="43.349715" lon="11.8027967"><ele>282.2</ele><time>2026-04-16T16:32:34.992Z</time></trkpt><trkpt lat="43.349675" lon="11.8026717"><ele>282.4</ele><time>2026-04-16T16:32:36.994Z</time></trkpt><trkpt lat="43.34964" lon="11.8025567"><ele>282.6</ele><time>2026-04-16T16:32:38.994Z</time></trkpt><trkpt lat="43.3496083" lon="11.8024367"><ele>282.8</ele><time>2026-04-16T16:32:40.992Z</time></trkpt><trkpt lat="43.34957" lon="11.802335"><ele>283.0</ele><time>2026-04-16T16:32:42.994Z</time></trkpt><trkpt lat="43.3495283" lon="11.8022333"><ele>283.0</ele><time>2026-04-16T16:32:44.993Z</time></trkpt><trkpt lat="43.3494917" lon="11.8021417"><ele>283.0</ele><time>2026-04-16T16:32:46.99Z</time></trkpt><trkpt lat="43.3494567" lon="11.8020567"><ele>283.0</ele><time>2026-04-16T16:32:48.994Z</time></trkpt><trkpt lat="43.3494083" lon="11.8019883"><ele>283.0</ele><time>2026-04-16T16:32:50.994Z</time></trkpt><trkpt lat="43.349375" lon="11.8019033"><ele>283.0</ele><time>2026-04-16T16:32:52.991Z</time></trkpt><trkpt lat="43.3493517" lon="11.8018"><ele>283.0</ele><time>2026-04-16T16:32:54.997Z</time></trkpt><trkpt lat="43.3493417" lon="11.801685"><ele>283.0</ele><time>2026-04-16T16:32:56.993Z</time></trkpt><trkpt lat="43.3493367" lon="11.80156"><ele>282.6</ele><time>2026-04-16T16:32:58.991Z</time></trkpt><trkpt lat="43.3493067" lon="11.8014367"><ele>282.20000000000005</ele><time>2026-04-16T16:33:00.992Z</time></trkpt><trkpt lat="43.3492733" lon="11.8013"><ele>281.8</ele><time>2026-04-16T16:33:02.993Z</time></trkpt><trkpt lat="43.34923" lon="11.8011667"><ele>281.40000000000003</ele><time>2026-04-16T16:33:04.991Z</time></trkpt><trkpt lat="43.3491767" lon="11.8010217"><ele>281.0</ele><time>2026-04-16T16:33:06.996Z</time></trkpt><trkpt lat="43.34914" lon="11.8008717"><ele>280.40000000000003</ele><time>2026-04-16T16:33:08.991Z</time></trkpt><trkpt lat="43.3491083" lon="11.8007133"><ele>279.8</ele><time>2026-04-16T16:33:10.994Z</time></trkpt><trkpt lat="43.349075" lon="11.8005467"><ele>279.20000000000005</ele><time>2026-04-16T16:33:12.991Z</time></trkpt><trkpt lat="43.3490583" lon="11.8004617"><ele>278.6</ele><time>2026-04-16T16:33:13.995Z</time></trkpt><trkpt lat="43.34902" lon="11.8002967"><ele>278.0</ele><time>2026-04-16T16:33:15.994Z</time></trkpt><trkpt lat="43.349" lon="11.800135"><ele>277.6666666666667</ele><time>2026-04-16T16:33:17.992Z</time></trkpt><trkpt lat="43.3489717" lon="11.7999683"><ele>277.33333333333337</ele><time>2026-04-16T16:33:19.993Z</time></trkpt><trkpt lat="43.3489617" lon="11.7998767"><ele>277.0</ele><time>2026-04-16T16:33:20.991Z</time></trkpt><trkpt lat="43.348955" lon="11.7997883"><ele>276.6666666666667</ele><time>2026-04-16T16:33:21.99Z</time></trkpt><trkpt lat="43.3489433" lon="11.7997017"><ele>276.3333333333333</ele><time>2026-04-16T16:33:22.994Z</time></trkpt><trkpt lat="43.348935" lon="11.7996117"><ele>276.0</ele><time>2026-04-16T16:33:23.991Z</time></trkpt><trkpt lat="43.3489283" lon="11.799525"><ele>276.0</ele><time>2026-04-16T16:33:24.992Z</time></trkpt><trkpt lat="43.3489217" lon="11.7994367"><ele>276.0</ele><time>2026-04-16T16:33:25.992Z</time></trkpt><trkpt lat="43.3489167" lon="11.79935"><ele>276.0</ele><time>2026-04-16T16:33:26.993Z</time></trkpt><trkpt lat="43.3489" lon="11.7991817"><ele>276.0</ele><time>2026-04-16T16:33:28.991Z</time></trkpt><trkpt lat="43.3488883" lon="11.7990167"><ele>276.0</ele><time>2026-04-16T16:33:30.991Z</time></trkpt><trkpt lat="43.3488767" lon="11.7988667"><ele>276.0</ele><time>2026-04-16T16:33:32.993Z</time></trkpt><trkpt lat="43.3488733" lon="11.7987267"><ele>276.0</ele><time>2026-04-16T16:33:34.992Z</time></trkpt><trkpt lat="43.3488783" lon="11.7985967"><ele>276.0</ele><time>2026-04-16T16:33:36.992Z</time></trkpt><trkpt lat="43.3488833" lon="11.7984667"><ele>276.0</ele><time>2026-04-16T16:33:38.993Z</time></trkpt><trkpt lat="43.34889" lon="11.7983417"><ele>276.0</ele><time>2026-04-16T16:33:40.99Z</time></trkpt><trkpt lat="43.3488933" lon="11.7982183"><ele>276.1666666666667</ele><time>2026-04-16T16:33:42.99Z</time></trkpt><trkpt lat="43.3489" lon="11.7980967"><ele>276.3333333333333</ele><time>2026-04-16T16:33:44.994Z</time></trkpt><trkpt lat="43.3489117" lon="11.7979717"><ele>276.5</ele><time>2026-04-16T16:33:46.992Z</time></trkpt><trkpt lat="43.348925" lon="11.79785"><ele>276.66666666666663</ele><time>2026-04-16T16:33:48.996Z</time></trkpt><trkpt lat="43.3489383" lon="11.79773"><ele>276.8333333333333</ele><time>2026-04-16T16:33:50.992Z</time></trkpt><trkpt lat="43.348955" lon="11.7976117"><ele>277.0</ele><time>2026-04-16T16:33:52.991Z</time></trkpt><trkpt lat="43.34897" lon="11.797505"><ele>277.1428571428571</ele><time>2026-04-16T16:33:54.991Z</time></trkpt><trkpt lat="43.34899" lon="11.7974017"><ele>277.2857142857143</ele><time>2026-04-16T16:33:56.996Z</time></trkpt><trkpt lat="43.349005" lon="11.7972967"><ele>277.42857142857144</ele><time>2026-04-16T16:33:58.992Z</time></trkpt><trkpt lat="43.3490183" lon="11.7971917"><ele>277.57142857142856</ele><time>2026-04-16T16:34:00.99Z</time></trkpt><trkpt lat="43.3490367" lon="11.7970867"><ele>277.7142857142857</ele><time>2026-04-16T16:34:02.99Z</time></trkpt><trkpt lat="43.3490517" lon="11.796995"><ele>277.85714285714283</ele><time>2026-04-16T16:34:04.99Z</time></trkpt><trkpt lat="43.3490683" lon="11.796905"><ele>278.0</ele><time>2026-04-16T16:34:06.994Z</time></trkpt><trkpt lat="43.3490767" lon="11.7968067"><ele>278.1666666666667</ele><time>2026-04-16T16:34:08.991Z</time></trkpt><trkpt lat="43.3490883" lon="11.796705"><ele>278.33333333333337</ele><time>2026-04-16T16:34:10.992Z</time></trkpt><trkpt lat="43.3491033" lon="11.7966117"><ele>278.5</ele><time>2026-04-16T16:34:12.995Z</time></trkpt><trkpt lat="43.3491117" lon="11.7965183"><ele>278.6666666666667</ele><time>2026-04-16T16:34:14.994Z</time></trkpt><trkpt lat="43.3491267" lon="11.7964133"><ele>278.8333333333333</ele><time>2026-04-16T16:34:16.99Z</time></trkpt><trkpt lat="43.3491433" lon="11.796305"><ele>279.0</ele><time>2026-04-16T16:34:18.991Z</time></trkpt><trkpt lat="43.3491617" lon="11.796195"><ele>278.99999999999994</ele><time>2026-04-16T16:34:20.993Z</time></trkpt><trkpt lat="43.3491783" lon="11.7960867"><ele>279.0</ele><time>2026-04-16T16:34:22.989Z</time></trkpt><trkpt lat="43.3491933" lon="11.79598"><ele>279.0</ele><time>2026-04-16T16:34:24.993Z</time></trkpt><trkpt lat="43.349205" lon="11.795875"><ele>279.0</ele><time>2026-04-16T16:34:26.991Z</time></trkpt><trkpt lat="43.3492183" lon="11.7957817"><ele>279.0</ele><time>2026-04-16T16:34:28.996Z</time></trkpt><trkpt lat="43.3492333" lon="11.7956883"><ele>278.99999999999994</ele><time>2026-04-16T16:34:30.992Z</time></trkpt><trkpt lat="43.349245" lon="11.7955917"><ele>279.0</ele><time>2026-04-16T16:34:32.996Z</time></trkpt><trkpt lat="43.3492617" lon="11.7954967"><ele>279.3333333333333</ele><time>2026-04-16T16:34:34.991Z</time></trkpt><trkpt lat="43.3492733" lon="11.795405"><ele>279.6666666666667</ele><time>2026-04-16T16:34:36.992Z</time></trkpt><trkpt lat="43.3492883" lon="11.7953083"><ele>280.0</ele><time>2026-04-16T16:34:38.993Z</time></trkpt><trkpt lat="43.3493067" lon="11.7951833"><ele>280.33333333333337</ele><time>2026-04-16T16:34:41.991Z</time></trkpt><trkpt lat="43.3493167" lon="11.7950917"><ele>280.6666666666667</ele><time>2026-04-16T16:34:43.994Z</time></trkpt><trkpt lat="43.349325" lon="11.79496"><ele>281.0</ele><time>2026-04-16T16:34:46.992Z</time></trkpt><trkpt lat="43.3493283" lon="11.7948733"><ele>281.6666666666667</ele><time>2026-04-16T16:34:48.992Z</time></trkpt><trkpt lat="43.3493283" lon="11.7947467"><ele>282.33333333333337</ele><time>2026-04-16T16:34:51.992Z</time></trkpt><trkpt lat="43.349325" lon="11.7946533"><ele>283.0</ele><time>2026-04-16T16:34:53.992Z</time></trkpt><trkpt lat="43.3493167" lon="11.7945283"><ele>283.6666666666667</ele><time>2026-04-16T16:34:56.99Z</time></trkpt><trkpt lat="43.3493083" lon="11.79444"><ele>284.3333333333333</ele><time>2026-04-16T16:34:58.991Z</time></trkpt><trkpt lat="43.349305" lon="11.794345"><ele>285.0</ele><time>2026-04-16T16:35:00.996Z</time></trkpt><trkpt lat="43.3493017" lon="11.7942183"><ele>285.2857142857143</ele><time>2026-04-16T16:35:03.989Z</time></trkpt><trkpt lat="43.349295" lon="11.79413"><ele>285.57142857142856</ele><time>2026-04-16T16:35:05.992Z</time></trkpt><trkpt lat="43.34929" lon="11.7940417"><ele>285.8571428571429</ele><time>2026-04-16T16:35:07.992Z</time></trkpt><trkpt lat="43.34928" lon="11.7939533"><ele>286.1428571428571</ele><time>2026-04-16T16:35:09.991Z</time></trkpt><trkpt lat="43.3492717" lon="11.7938667"><ele>286.42857142857144</ele><time>2026-04-16T16:35:11.99Z</time></trkpt><trkpt lat="43.349265" lon="11.7937717"><ele>286.7142857142857</ele><time>2026-04-16T16:35:13.99Z</time></trkpt><trkpt lat="43.34926" lon="11.7936783"><ele>287.0</ele><time>2026-04-16T16:35:15.989Z</time></trkpt><trkpt lat="43.349255" lon="11.7935883"><ele>287.2857142857143</ele><time>2026-04-16T16:35:17.993Z</time></trkpt><trkpt lat="43.3492483" lon="11.7934933"><ele>287.57142857142856</ele><time>2026-04-16T16:35:19.992Z</time></trkpt><trkpt lat="43.3492433" lon="11.79339"><ele>287.8571428571429</ele><time>2026-04-16T16:35:21.992Z</time></trkpt><trkpt lat="43.3492383" lon="11.7932883"><ele>288.1428571428571</ele><time>2026-04-16T16:35:23.992Z</time></trkpt><trkpt lat="43.3492333" lon="11.7932017"><ele>288.42857142857144</ele><time>2026-04-16T16:35:25.99Z</time></trkpt><trkpt lat="43.3492283" lon="11.7931017"><ele>288.7142857142857</ele><time>2026-04-16T16:35:27.99Z</time></trkpt><trkpt lat="43.3492267" lon="11.7929983"><ele>289.0</ele><time>2026-04-16T16:35:29.992Z</time></trkpt><trkpt lat="43.3492233" lon="11.7928917"><ele>289.0</ele><time>2026-04-16T16:35:31.989Z</time></trkpt><trkpt lat="43.3492217" lon="11.79278"><ele>289.0</ele><time>2026-04-16T16:35:33.994Z</time></trkpt><trkpt lat="43.349215" lon="11.7926717"><ele>289.0</ele><time>2026-04-16T16:35:35.994Z</time></trkpt><trkpt lat="43.3492133" lon="11.7925633"><ele>289.0</ele><time>2026-04-16T16:35:37.99Z</time></trkpt><trkpt lat="43.34921" lon="11.7924633"><ele>289.0</ele><time>2026-04-16T16:35:39.99Z</time></trkpt><trkpt lat="43.3492117" lon="11.7923617"><ele>289.0</ele><time>2026-04-16T16:35:41.99Z</time></trkpt><trkpt lat="43.3492117" lon="11.792265"><ele>289.16666666666663</ele><time>2026-04-16T16:35:43.992Z</time></trkpt><trkpt lat="43.3492117" lon="11.792165"><ele>289.3333333333333</ele><time>2026-04-16T16:35:45.991Z</time></trkpt><trkpt lat="43.349205" lon="11.79204"><ele>289.5</ele><time>2026-04-16T16:35:48.99Z</time></trkpt><trkpt lat="43.3492017" lon="11.791935"><ele>289.6666666666667</ele><time>2026-04-16T16:35:50.994Z</time></trkpt><trkpt lat="43.3492" lon="11.7918283"><ele>289.83333333333337</ele><time>2026-04-16T16:35:52.992Z</time></trkpt><trkpt lat="43.3491933" lon="11.7917317"><ele>290.0</ele><time>2026-04-16T16:35:54.99Z</time></trkpt><trkpt lat="43.34919" lon="11.7916433"><ele>290.33333333333337</ele><time>2026-04-16T16:35:56.991Z</time></trkpt><trkpt lat="43.34918" lon="11.7915183"><ele>290.6666666666667</ele><time>2026-04-16T16:35:59.994Z</time></trkpt><trkpt lat="43.34917" lon="11.7914"><ele>291.0</ele><time>2026-04-16T16:36:02.991Z</time></trkpt><trkpt lat="43.34916" lon="11.791275"><ele>291.3333333333333</ele><time>2026-04-16T16:36:05.992Z</time></trkpt><trkpt lat="43.3491533" lon="11.7911867"><ele>291.66666666666663</ele><time>2026-04-16T16:36:07.993Z</time></trkpt><trkpt lat="43.349175" lon="11.7910717"><ele>292.0</ele><time>2026-04-16T16:36:10.994Z</time></trkpt><trkpt lat="43.3492383" lon="11.7910283"><ele>292.0</ele><time>2026-04-16T16:36:12.993Z</time></trkpt><trkpt lat="43.3493083" lon="11.791025"><ele>292.0</ele><time>2026-04-16T16:36:14.992Z</time></trkpt><trkpt lat="43.3493767" lon="11.791025"><ele>292.0</ele><time>2026-04-16T16:36:16.993Z</time></trkpt><trkpt lat="43.349445" lon="11.7910283"><ele>292.0</ele><time>2026-04-16T16:36:18.993Z</time></trkpt><trkpt lat="43.3495117" lon="11.79103"><ele>292.0</ele><time>2026-04-16T16:36:20.993Z</time></trkpt><trkpt lat="43.3495817" lon="11.791025"><ele>292.0</ele><time>2026-04-16T16:36:22.989Z</time></trkpt><trkpt lat="43.3496717" lon="11.791035"><ele>292.0</ele><time>2026-04-16T16:36:25.991Z</time></trkpt><trkpt lat="43.349735" lon="11.7910367"><ele>292.0</ele><time>2026-04-16T16:36:27.992Z</time></trkpt><trkpt lat="43.3498383" lon="11.7910333"><ele>292.0</ele><time>2026-04-16T16:36:30.995Z</time></trkpt><trkpt lat="43.34992" lon="11.7910233"><ele>292.0</ele><time>2026-04-16T16:36:32.993Z</time></trkpt><trkpt lat="43.3500083" lon="11.7910083"><ele>292.0</ele><time>2026-04-16T16:36:34.992Z</time></trkpt><trkpt lat="43.350105" lon="11.7909883"><ele>292.0</ele><time>2026-04-16T16:36:36.99Z</time></trkpt><trkpt lat="43.3502" lon="11.7909783"><ele>292.0</ele><time>2026-04-16T16:36:38.995Z</time></trkpt><trkpt lat="43.350295" lon="11.79096"><ele>292.0</ele><time>2026-04-16T16:36:40.996Z</time></trkpt><trkpt lat="43.3503883" lon="11.7909383"><ele>292.0</ele><time>2026-04-16T16:36:42.993Z</time></trkpt><trkpt lat="43.35048" lon="11.7909233"><ele>292.0</ele><time>2026-04-16T16:36:44.996Z</time></trkpt><trkpt lat="43.3505767" lon="11.7909117"><ele>292.0</ele><time>2026-04-16T16:36:46.99Z</time></trkpt><trkpt lat="43.35068" lon="11.7908933"><ele>291.6</ele><time>2026-04-16T16:36:48.993Z</time></trkpt><trkpt lat="43.3507883" lon="11.79088"><ele>291.2</ele><time>2026-04-16T16:36:50.99Z</time></trkpt><trkpt lat="43.350895" lon="11.790855"><ele>290.8</ele><time>2026-04-16T16:36:52.992Z</time></trkpt><trkpt lat="43.351" lon="11.79084"><ele>290.4</ele><time>2026-04-16T16:36:54.99Z</time></trkpt><trkpt lat="43.3511017" lon="11.7908233"><ele>290.0</ele><time>2026-04-16T16:36:56.99Z</time></trkpt><trkpt lat="43.3511967" lon="11.7907983"><ele>290.0</ele><time>2026-04-16T16:36:58.99Z</time></trkpt><trkpt lat="43.3512783" lon="11.790745"><ele>290.0</ele><time>2026-04-16T16:37:00.99Z</time></trkpt><trkpt lat="43.3513483" lon="11.790675"><ele>290.0</ele><time>2026-04-16T16:37:02.991Z</time></trkpt><trkpt lat="43.3514233" lon="11.7905967"><ele>290.0</ele><time>2026-04-16T16:37:04.988Z</time></trkpt><trkpt lat="43.35151" lon="11.7905367"><ele>290.0</ele><time>2026-04-16T16:37:06.993Z</time></trkpt><trkpt lat="43.3516133" lon="11.7904967"><ele>289.8</ele><time>2026-04-16T16:37:08.992Z</time></trkpt><trkpt lat="43.351715" lon="11.790495"><ele>289.6</ele><time>2026-04-16T16:37:10.991Z</time></trkpt><trkpt lat="43.35182" lon="11.7905317"><ele>289.4</ele><time>2026-04-16T16:37:12.989Z</time></trkpt><trkpt lat="43.3519133" lon="11.79058"><ele>289.2</ele><time>2026-04-16T16:37:14.994Z</time></trkpt><trkpt lat="43.351995" lon="11.7906383"><ele>289.0</ele><time>2026-04-16T16:37:16.992Z</time></trkpt><trkpt lat="43.3520767" lon="11.7906917"><ele>289.0</ele><time>2026-04-16T16:37:18.992Z</time></trkpt><trkpt lat="43.3521617" lon="11.7907433"><ele>289.0</ele><time>2026-04-16T16:37:20.993Z</time></trkpt><trkpt lat="43.3522417" lon="11.790795"><ele>289.0</ele><time>2026-04-16T16:37:22.99Z</time></trkpt><trkpt lat="43.3523283" lon="11.79084"><ele>289.0</ele><time>2026-04-16T16:37:24.994Z</time></trkpt><trkpt lat="43.35241" lon="11.79087"><ele>289.0</ele><time>2026-04-16T16:37:26.995Z</time></trkpt><trkpt lat="43.3524967" lon="11.7909017"><ele>289.0</ele><time>2026-04-16T16:37:28.993Z</time></trkpt><trkpt lat="43.3525933" lon="11.7909483"><ele>288.8</ele><time>2026-04-16T16:37:30.995Z</time></trkpt><trkpt lat="43.3526967" lon="11.7910167"><ele>288.59999999999997</ele><time>2026-04-16T16:37:32.992Z</time></trkpt><trkpt lat="43.3528017" lon="11.7910667"><ele>288.4</ele><time>2026-04-16T16:37:34.989Z</time></trkpt><trkpt lat="43.3529067" lon="11.7911017"><ele>288.2</ele><time>2026-04-16T16:37:36.996Z</time></trkpt><trkpt lat="43.3530083" lon="11.79112"><ele>288.0</ele><time>2026-04-16T16:37:38.994Z</time></trkpt><trkpt lat="43.3531117" lon="11.7911333"><ele>287.6</ele><time>2026-04-16T16:37:40.99Z</time></trkpt><trkpt lat="43.3532217" lon="11.7911333"><ele>287.20000000000005</ele><time>2026-04-16T16:37:42.994Z</time></trkpt><trkpt lat="43.3533333" lon="11.791135"><ele>286.8</ele><time>2026-04-16T16:37:44.994Z</time></trkpt><trkpt lat="43.35344" lon="11.79114"><ele>286.40000000000003</ele><time>2026-04-16T16:37:46.992Z</time></trkpt><trkpt lat="43.3535533" lon="11.7911433"><ele>286.0</ele><time>2026-04-16T16:37:48.991Z</time></trkpt><trkpt lat="43.35366" lon="11.7911367"><ele>286.0</ele><time>2026-04-16T16:37:50.992Z</time></trkpt><trkpt lat="43.3537683" lon="11.7911283"><ele>286.0</ele><time>2026-04-16T16:37:52.993Z</time></trkpt><trkpt lat="43.3538817" lon="11.7911333"><ele>286.0</ele><time>2026-04-16T16:37:54.994Z</time></trkpt><trkpt lat="43.3539883" lon="11.791135"><ele>286.0</ele><time>2026-04-16T16:37:56.993Z</time></trkpt><trkpt lat="43.3540983" lon="11.79113"><ele>286.0</ele><time>2026-04-16T16:37:59.001Z</time></trkpt><trkpt lat="43.3542117" lon="11.7911267"><ele>285.8</ele><time>2026-04-16T16:38:00.989Z</time></trkpt><trkpt lat="43.35432" lon="11.7911333"><ele>285.6</ele><time>2026-04-16T16:38:02.992Z</time></trkpt><trkpt lat="43.354425" lon="11.7911383"><ele>285.4</ele><time>2026-04-16T16:38:04.992Z</time></trkpt><trkpt lat="43.3545283" lon="11.79115"><ele>285.2</ele><time>2026-04-16T16:38:06.996Z</time></trkpt><trkpt lat="43.3546233" lon="11.79115"><ele>285.0</ele><time>2026-04-16T16:38:08.994Z</time></trkpt><trkpt lat="43.3547167" lon="11.791145"><ele>285.0</ele><time>2026-04-16T16:38:10.991Z</time></trkpt><trkpt lat="43.3548083" lon="11.79113"><ele>285.0</ele><time>2026-04-16T16:38:12.989Z</time></trkpt><trkpt lat="43.3549033" lon="11.7911283"><ele>285.0</ele><time>2026-04-16T16:38:14.994Z</time></trkpt><trkpt lat="43.355" lon="11.7911283"><ele>285.0</ele><time>2026-04-16T16:38:16.993Z</time></trkpt><trkpt lat="43.355095" lon="11.7911367"><ele>285.0</ele><time>2026-04-16T16:38:18.992Z</time></trkpt><trkpt lat="43.3551967" lon="11.7911317"><ele>285.0</ele><time>2026-04-16T16:38:20.996Z</time></trkpt><trkpt lat="43.3552917" lon="11.7911283"><ele>285.0</ele><time>2026-04-16T16:38:22.989Z</time></trkpt><trkpt lat="43.3553833" lon="11.7911333"><ele>285.0</ele><time>2026-04-16T16:38:24.992Z</time></trkpt><trkpt lat="43.355475" lon="11.791135"><ele>285.0</ele><time>2026-04-16T16:38:26.992Z</time></trkpt><trkpt lat="43.355565" lon="11.7911333"><ele>285.0</ele><time>2026-04-16T16:38:29Z</time></trkpt><trkpt lat="43.3556533" lon="11.7911333"><ele>285.2</ele><time>2026-04-16T16:38:30.994Z</time></trkpt><trkpt lat="43.3557417" lon="11.7911317"><ele>285.4</ele><time>2026-04-16T16:38:32.992Z</time></trkpt><trkpt lat="43.3558333" lon="11.7911333"><ele>285.6</ele><time>2026-04-16T16:38:34.992Z</time></trkpt><trkpt lat="43.35593" lon="11.7911267"><ele>285.8</ele><time>2026-04-16T16:38:36.991Z</time></trkpt><trkpt lat="43.35603" lon="11.791135"><ele>286.0</ele><time>2026-04-16T16:38:38.997Z</time></trkpt><trkpt lat="43.356125" lon="11.79114"><ele>286.0</ele><time>2026-04-16T16:38:40.994Z</time></trkpt><trkpt lat="43.3562167" lon="11.7911417"><ele>286.0</ele><time>2026-04-16T16:38:42.992Z</time></trkpt><trkpt lat="43.356315" lon="11.791135"><ele>286.0</ele><time>2026-04-16T16:38:44.995Z</time></trkpt><trkpt lat="43.35639" lon="11.791125"><ele>286.0</ele><time>2026-04-16T16:38:46.993Z</time></trkpt><trkpt lat="43.3564417" lon="11.791075"><ele>286.0</ele><time>2026-04-16T16:38:48.992Z</time></trkpt><trkpt lat="43.3564683" lon="11.7909867"><ele>286.0</ele><time>2026-04-16T16:38:50.995Z</time></trkpt><trkpt lat="43.3564617" lon="11.7908833"><ele>286.2</ele><time>2026-04-16T16:38:52.991Z</time></trkpt><trkpt lat="43.3564417" lon="11.790765"><ele>286.40000000000003</ele><time>2026-04-16T16:38:54.993Z</time></trkpt><trkpt lat="43.3564167" lon="11.7906433"><ele>286.6</ele><time>2026-04-16T16:38:56.99Z</time></trkpt><trkpt lat="43.356385" lon="11.7905083"><ele>286.8</ele><time>2026-04-16T16:38:58.993Z</time></trkpt><trkpt lat="43.356355" lon="11.790365"><ele>287.0</ele><time>2026-04-16T16:39:00.993Z</time></trkpt><trkpt lat="43.3563217" lon="11.7902083"><ele>286.8</ele><time>2026-04-16T16:39:02.994Z</time></trkpt><trkpt lat="43.3563017" lon="11.79011"><ele>286.6</ele><time>2026-04-16T16:39:03.992Z</time></trkpt><trkpt lat="43.35627" lon="11.7899567"><ele>286.40000000000003</ele><time>2026-04-16T16:39:05.991Z</time></trkpt><trkpt lat="43.3562433" lon="11.7897833"><ele>286.2</ele><time>2026-04-16T16:39:07.997Z</time></trkpt><trkpt lat="43.3562283" lon="11.7896167"><ele>286.0</ele><time>2026-04-16T16:39:09.99Z</time></trkpt><trkpt lat="43.3562067" lon="11.789465"><ele>285.5</ele><time>2026-04-16T16:39:11.992Z</time></trkpt><trkpt lat="43.35618" lon="11.7893033"><ele>285.0</ele><time>2026-04-16T16:39:13.995Z</time></trkpt><trkpt lat="43.3561533" lon="11.7891417"><ele>284.5</ele><time>2026-04-16T16:39:16Z</time></trkpt><trkpt lat="43.3561267" lon="11.788995"><ele>284.0</ele><time>2026-04-16T16:39:17.994Z</time></trkpt><trkpt lat="43.3561017" lon="11.7888417"><ele>284.0</ele><time>2026-04-16T16:39:19.995Z</time></trkpt><trkpt lat="43.3560783" lon="11.7886917"><ele>284.0</ele><time>2026-04-16T16:39:21.992Z</time></trkpt><trkpt lat="43.3560533" lon="11.7885367"><ele>284.0</ele><time>2026-04-16T16:39:23.992Z</time></trkpt><trkpt lat="43.3560317" lon="11.788395"><ele>284.0</ele><time>2026-04-16T16:39:25.992Z</time></trkpt><trkpt lat="43.3560117" lon="11.7882483"><ele>284.0</ele><time>2026-04-16T16:39:27.99Z</time></trkpt><trkpt lat="43.3560017" lon="11.7880917"><ele>284.0</ele><time>2026-04-16T16:39:29.998Z</time></trkpt><trkpt lat="43.3559917" lon="11.78792"><ele>284.0</ele><time>2026-04-16T16:39:31.995Z</time></trkpt><trkpt lat="43.3559933" lon="11.7877683"><ele>284.0</ele><time>2026-04-16T16:39:33.993Z</time></trkpt><trkpt lat="43.355995" lon="11.78763"><ele>284.0</ele><time>2026-04-16T16:39:35.99Z</time></trkpt><trkpt lat="43.3559917" lon="11.7874867"><ele>284.0</ele><time>2026-04-16T16:39:37.99Z</time></trkpt><trkpt lat="43.3559783" lon="11.7873433"><ele>284.0</ele><time>2026-04-16T16:39:39.992Z</time></trkpt><trkpt lat="43.355975" lon="11.7872017"><ele>284.0</ele><time>2026-04-16T16:39:41.99Z</time></trkpt><trkpt lat="43.3559733" lon="11.7870683"><ele>284.0</ele><time>2026-04-16T16:39:43.994Z</time></trkpt><trkpt lat="43.355965" lon="11.7869417"><ele>284.0</ele><time>2026-04-16T16:39:45.991Z</time></trkpt><trkpt lat="43.3559583" lon="11.7868117"><ele>284.0</ele><time>2026-04-16T16:39:47.993Z</time></trkpt><trkpt lat="43.35595" lon="11.78669"><ele>284.0</ele><time>2026-04-16T16:39:49.995Z</time></trkpt><trkpt lat="43.3559383" lon="11.7865733"><ele>284.0</ele><time>2026-04-16T16:39:51.992Z</time></trkpt><trkpt lat="43.355935" lon="11.7864583"><ele>284.0</ele><time>2026-04-16T16:39:53.99Z</time></trkpt><trkpt lat="43.3559383" lon="11.7863083"><ele>284.0</ele><time>2026-04-16T16:39:55.99Z</time></trkpt><trkpt lat="43.3559283" lon="11.786165"><ele>284.0</ele><time>2026-04-16T16:39:57.99Z</time></trkpt><trkpt lat="43.35593" lon="11.78603"><ele>284.0</ele><time>2026-04-16T16:39:59.993Z</time></trkpt><trkpt lat="43.3559267" lon="11.7858967"><ele>284.0</ele><time>2026-04-16T16:40:01.994Z</time></trkpt><trkpt lat="43.3559217" lon="11.785755"><ele>284.0</ele><time>2026-04-16T16:40:03.991Z</time></trkpt><trkpt lat="43.3559233" lon="11.7856133"><ele>284.0</ele><time>2026-04-16T16:40:05.993Z</time></trkpt><trkpt lat="43.35593" lon="11.7854633"><ele>284.0</ele><time>2026-04-16T16:40:07.995Z</time></trkpt><trkpt lat="43.35594" lon="11.7853117"><ele>283.8</ele><time>2026-04-16T16:40:09.992Z</time></trkpt><trkpt lat="43.3559467" lon="11.7851733"><ele>283.59999999999997</ele><time>2026-04-16T16:40:11.992Z</time></trkpt><trkpt lat="43.355955" lon="11.7850283"><ele>283.4</ele><time>2026-04-16T16:40:13.991Z</time></trkpt><trkpt lat="43.355965" lon="11.78488"><ele>283.2</ele><time>2026-04-16T16:40:15.992Z</time></trkpt><trkpt lat="43.3559767" lon="11.7847367"><ele>283.0</ele><time>2026-04-16T16:40:17.992Z</time></trkpt><trkpt lat="43.3559717" lon="11.784605"><ele>283.0</ele><time>2026-04-16T16:40:19.994Z</time></trkpt><trkpt lat="43.3559783" lon="11.78447"><ele>283.0</ele><time>2026-04-16T16:40:21.99Z</time></trkpt><trkpt lat="43.355995" lon="11.7843133"><ele>283.0</ele><time>2026-04-16T16:40:23.993Z</time></trkpt><trkpt lat="43.356005" lon="11.784145"><ele>283.0</ele><time>2026-04-16T16:40:25.992Z</time></trkpt><trkpt lat="43.356005" lon="11.7840017"><ele>283.0</ele><time>2026-04-16T16:40:27.996Z</time></trkpt><trkpt lat="43.355995" lon="11.783865"><ele>283.0</ele><time>2026-04-16T16:40:29.991Z</time></trkpt><trkpt lat="43.3559817" lon="11.78372"><ele>283.0</ele><time>2026-04-16T16:40:31.993Z</time></trkpt><trkpt lat="43.3559617" lon="11.7835667"><ele>283.0</ele><time>2026-04-16T16:40:33.99Z</time></trkpt><trkpt lat="43.355945" lon="11.7834083"><ele>283.0</ele><time>2026-04-16T16:40:35.994Z</time></trkpt><trkpt lat="43.35593" lon="11.7832467"><ele>283.0</ele><time>2026-04-16T16:40:37.99Z</time></trkpt><trkpt lat="43.3559083" lon="11.7831117"><ele>283.0</ele><time>2026-04-16T16:40:39.992Z</time></trkpt><trkpt lat="43.35588" lon="11.78298"><ele>283.0</ele><time>2026-04-16T16:40:41.993Z</time></trkpt><trkpt lat="43.3558533" lon="11.7828417"><ele>283.0</ele><time>2026-04-16T16:40:43.997Z</time></trkpt><trkpt lat="43.3558317" lon="11.782695"><ele>283.0</ele><time>2026-04-16T16:40:45.989Z</time></trkpt><trkpt lat="43.35581" lon="11.7825633"><ele>283.3333333333333</ele><time>2026-04-16T16:40:47.992Z</time></trkpt><trkpt lat="43.355785" lon="11.7824383"><ele>283.66666666666663</ele><time>2026-04-16T16:40:49.993Z</time></trkpt><trkpt lat="43.3557683" lon="11.78232"><ele>284.0</ele><time>2026-04-16T16:40:51.993Z</time></trkpt><trkpt lat="43.3557467" lon="11.7822033"><ele>284.3333333333333</ele><time>2026-04-16T16:40:53.989Z</time></trkpt><trkpt lat="43.355725" lon="11.7820917"><ele>284.6666666666667</ele><time>2026-04-16T16:40:55.994Z</time></trkpt><trkpt lat="43.3557017" lon="11.7819883"><ele>285.0</ele><time>2026-04-16T16:40:57.992Z</time></trkpt><trkpt lat="43.35568" lon="11.78189"><ele>285.3333333333333</ele><time>2026-04-16T16:40:59.995Z</time></trkpt><trkpt lat="43.3556633" lon="11.7817967"><ele>285.6666666666667</ele><time>2026-04-16T16:41:01.99Z</time></trkpt><trkpt lat="43.3556433" lon="11.7816717"><ele>286.0</ele><time>2026-04-16T16:41:04.992Z</time></trkpt><trkpt lat="43.35563" lon="11.7815867"><ele>286.33333333333337</ele><time>2026-04-16T16:41:06.994Z</time></trkpt><trkpt lat="43.3556183" lon="11.7814867"><ele>286.6666666666667</ele><time>2026-04-16T16:41:08.992Z</time></trkpt><trkpt lat="43.355605" lon="11.7813933"><ele>287.0</ele><time>2026-04-16T16:41:10.992Z</time></trkpt><trkpt lat="43.35558" lon="11.7812767"><ele>287.0</ele><time>2026-04-16T16:41:13.991Z</time></trkpt><trkpt lat="43.3555667" lon="11.781165"><ele>287.0</ele><time>2026-04-16T16:41:16.99Z</time></trkpt><trkpt lat="43.3555617" lon="11.7810667"><ele>287.0</ele><time>2026-04-16T16:41:19.996Z</time></trkpt><trkpt lat="43.3556067" lon="11.780975"><ele>287.0</ele><time>2026-04-16T16:41:23.995Z</time></trkpt><trkpt lat="43.3556767" lon="11.7809733"><ele>287.0</ele><time>2026-04-16T16:41:27.992Z</time></trkpt><trkpt lat="43.3557467" lon="11.780995"><ele>287.0</ele><time>2026-04-16T16:41:30.991Z</time></trkpt><trkpt lat="43.3558333" lon="11.7810217"><ele>287.0</ele><time>2026-04-16T16:41:33.989Z</time></trkpt><trkpt lat="43.35591" lon="11.78104"><ele>287.0</ele><time>2026-04-16T16:41:35.989Z</time></trkpt><trkpt lat="43.355995" lon="11.7810633"><ele>287.0</ele><time>2026-04-16T16:41:37.993Z</time></trkpt><trkpt lat="43.3560833" lon="11.78109"><ele>287.0</ele><time>2026-04-16T16:41:39.995Z</time></trkpt><trkpt lat="43.3561833" lon="11.7811233"><ele>287.0</ele><time>2026-04-16T16:41:41.989Z</time></trkpt><trkpt lat="43.3562933" lon="11.7811367"><ele>287.2</ele><time>2026-04-16T16:41:43.991Z</time></trkpt><trkpt lat="43.3564017" lon="11.78115"><ele>287.4</ele><time>2026-04-16T16:41:45.993Z</time></trkpt><trkpt lat="43.3565017" lon="11.7811583"><ele>287.6</ele><time>2026-04-16T16:41:47.993Z</time></trkpt><trkpt lat="43.356605" lon="11.78118"><ele>287.8</ele><time>2026-04-16T16:41:49.991Z</time></trkpt><trkpt lat="43.35672" lon="11.78121"><ele>288.0</ele><time>2026-04-16T16:41:51.995Z</time></trkpt><trkpt lat="43.3568333" lon="11.7812433"><ele>288.0</ele><time>2026-04-16T16:41:53.992Z</time></trkpt><trkpt lat="43.3569383" lon="11.781285"><ele>288.0</ele><time>2026-04-16T16:41:55.991Z</time></trkpt><trkpt lat="43.35704" lon="11.78132"><ele>288.0</ele><time>2026-04-16T16:41:57.992Z</time></trkpt><trkpt lat="43.357145" lon="11.781355"><ele>288.0</ele><time>2026-04-16T16:41:59.993Z</time></trkpt><trkpt lat="43.3572483" lon="11.781395"><ele>288.0</ele><time>2026-04-16T16:42:01.99Z</time></trkpt><trkpt lat="43.3573567" lon="11.781445"><ele>288.0</ele><time>2026-04-16T16:42:03.994Z</time></trkpt><trkpt lat="43.3574517" lon="11.78149"><ele>288.0</ele><time>2026-04-16T16:42:05.994Z</time></trkpt><trkpt lat="43.35756" lon="11.7815317"><ele>288.0</ele><time>2026-04-16T16:42:07.994Z</time></trkpt><trkpt lat="43.3576617" lon="11.7815767"><ele>288.0</ele><time>2026-04-16T16:42:10Z</time></trkpt><trkpt lat="43.3577667" lon="11.78162"><ele>288.0</ele><time>2026-04-16T16:42:11.995Z</time></trkpt><trkpt lat="43.3578767" lon="11.7816717"><ele>288.0</ele><time>2026-04-16T16:42:13.993Z</time></trkpt><trkpt lat="43.3579867" lon="11.7817017"><ele>288.0</ele><time>2026-04-16T16:42:15.992Z</time></trkpt><trkpt lat="43.3580467" lon="11.7817283"><ele>288.0</ele><time>2026-04-16T16:42:16.992Z</time></trkpt><trkpt lat="43.3581067" lon="11.7817667"><ele>288.0</ele><time>2026-04-16T16:42:17.988Z</time></trkpt><trkpt lat="43.3581983" lon="11.7818133"><ele>288.0</ele><time>2026-04-16T16:42:19.991Z</time></trkpt><trkpt lat="43.3582933" lon="11.7818567"><ele>288.0</ele><time>2026-04-16T16:42:21.986Z</time></trkpt><trkpt lat="43.358375" lon="11.7819083"><ele>288.2</ele><time>2026-04-16T16:42:23.99Z</time></trkpt><trkpt lat="43.358455" lon="11.7819633"><ele>288.4</ele><time>2026-04-16T16:42:25.993Z</time></trkpt><trkpt lat="43.3585483" lon="11.782015"><ele>288.59999999999997</ele><time>2026-04-16T16:42:27.992Z</time></trkpt><trkpt lat="43.358645" lon="11.7820683"><ele>288.8</ele><time>2026-04-16T16:42:29.994Z</time></trkpt><trkpt lat="43.3587433" lon="11.7821283"><ele>289.0</ele><time>2026-04-16T16:42:31.99Z</time></trkpt><trkpt lat="43.3588433" lon="11.782185"><ele>288.0</ele><time>2026-04-16T16:42:33.992Z</time></trkpt><trkpt lat="43.35895" lon="11.7822433"><ele>287.0</ele><time>2026-04-16T16:42:35.995Z</time></trkpt><trkpt lat="43.359055" lon="11.782305"><ele>286.0</ele><time>2026-04-16T16:42:37.994Z</time></trkpt><trkpt lat="43.3591567" lon="11.78236"><ele>285.0</ele><time>2026-04-16T16:42:39.991Z</time></trkpt><trkpt lat="43.3592633" lon="11.7824117"><ele>285.0</ele><time>2026-04-16T16:42:41.994Z</time></trkpt><trkpt lat="43.3593717" lon="11.78247"><ele>285.0</ele><time>2026-04-16T16:42:43.991Z</time></trkpt><trkpt lat="43.3594783" lon="11.78252"><ele>285.0</ele><time>2026-04-16T16:42:45.994Z</time></trkpt><trkpt lat="43.3595833" lon="11.7825667"><ele>285.0</ele><time>2026-04-16T16:42:47.997Z</time></trkpt><trkpt lat="43.3596817" lon="11.78262"><ele>285.0</ele><time>2026-04-16T16:42:49.993Z</time></trkpt><trkpt lat="43.3597783" lon="11.782675"><ele>285.0</ele><time>2026-04-16T16:42:51.991Z</time></trkpt><trkpt lat="43.3598733" lon="11.7827367"><ele>285.0</ele><time>2026-04-16T16:42:53.99Z</time></trkpt><trkpt lat="43.35997" lon="11.7828083"><ele>285.0</ele><time>2026-04-16T16:42:55.987Z</time></trkpt><trkpt lat="43.360065" lon="11.7828933"><ele>285.0</ele><time>2026-04-16T16:42:57.987Z</time></trkpt><trkpt lat="43.3601483" lon="11.78298"><ele>285.0</ele><time>2026-04-16T16:42:59.988Z</time></trkpt><trkpt lat="43.36023" lon="11.783075"><ele>285.0</ele><time>2026-04-16T16:43:01.991Z</time></trkpt><trkpt lat="43.3603083" lon="11.7831733"><ele>285.0</ele><time>2026-04-16T16:43:03.986Z</time></trkpt><trkpt lat="43.3603683" lon="11.783275"><ele>285.0</ele><time>2026-04-16T16:43:05.991Z</time></trkpt><trkpt lat="43.36043" lon="11.7833783"><ele>285.0</ele><time>2026-04-16T16:43:07.995Z</time></trkpt><trkpt lat="43.3604933" lon="11.7834817"><ele>285.0</ele><time>2026-04-16T16:43:09.992Z</time></trkpt><trkpt lat="43.3605567" lon="11.7835833"><ele>285.0</ele><time>2026-04-16T16:43:11.987Z</time></trkpt><trkpt lat="43.360625" lon="11.78369"><ele>285.0</ele><time>2026-04-16T16:43:13.99Z</time></trkpt><trkpt lat="43.3606917" lon="11.7838033"><ele>285.0</ele><time>2026-04-16T16:43:15.996Z</time></trkpt><trkpt lat="43.3607583" lon="11.7839217"><ele>285.0</ele><time>2026-04-16T16:43:17.992Z</time></trkpt><trkpt lat="43.36082" lon="11.7840417"><ele>285.0</ele><time>2026-04-16T16:43:19.991Z</time></trkpt><trkpt lat="43.360885" lon="11.784155"><ele>285.0</ele><time>2026-04-16T16:43:21.99Z</time></trkpt><trkpt lat="43.36096" lon="11.78426"><ele>285.0</ele><time>2026-04-16T16:43:23.993Z</time></trkpt><trkpt lat="43.3610533" lon="11.7843083"><ele>285.0</ele><time>2026-04-16T16:43:25.99Z</time></trkpt><trkpt lat="43.3611533" lon="11.7842933"><ele>285.0</ele><time>2026-04-16T16:43:27.992Z</time></trkpt><trkpt lat="43.3612617" lon="11.7842583"><ele>285.0</ele><time>2026-04-16T16:43:29.993Z</time></trkpt><trkpt lat="43.3613717" lon="11.78423"><ele>284.6</ele><time>2026-04-16T16:43:31.988Z</time></trkpt><trkpt lat="43.3614833" lon="11.7842"><ele>284.2</ele><time>2026-04-16T16:43:33.988Z</time></trkpt><trkpt lat="43.3615917" lon="11.7841733"><ele>283.8</ele><time>2026-04-16T16:43:35.991Z</time></trkpt><trkpt lat="43.361695" lon="11.7841567"><ele>283.4</ele><time>2026-04-16T16:43:37.989Z</time></trkpt><trkpt lat="43.3618017" lon="11.784155"><ele>283.0</ele><time>2026-04-16T16:43:39.991Z</time></trkpt><trkpt lat="43.3619033" lon="11.7841667"><ele>283.0</ele><time>2026-04-16T16:43:41.991Z</time></trkpt><trkpt lat="43.3620067" lon="11.7842"><ele>283.0</ele><time>2026-04-16T16:43:43.989Z</time></trkpt><trkpt lat="43.36211" lon="11.784235"><ele>283.0</ele><time>2026-04-16T16:43:45.997Z</time></trkpt><trkpt lat="43.3622133" lon="11.7842783"><ele>283.0</ele><time>2026-04-16T16:43:47.991Z</time></trkpt><trkpt lat="43.36232" lon="11.784325"><ele>283.0</ele><time>2026-04-16T16:43:49.993Z</time></trkpt><trkpt lat="43.3624283" lon="11.7843683"><ele>283.0</ele><time>2026-04-16T16:43:51.991Z</time></trkpt><trkpt lat="43.3625317" lon="11.7844167"><ele>283.0</ele><time>2026-04-16T16:43:53.991Z</time></trkpt><trkpt lat="43.3626383" lon="11.784455"><ele>283.0</ele><time>2026-04-16T16:43:55.993Z</time></trkpt><trkpt lat="43.3627383" lon="11.7844917"><ele>283.0</ele><time>2026-04-16T16:43:57.99Z</time></trkpt><trkpt lat="43.36284" lon="11.7845283"><ele>283.0</ele><time>2026-04-16T16:43:59.991Z</time></trkpt><trkpt lat="43.362935" lon="11.7845733"><ele>282.6</ele><time>2026-04-16T16:44:01.99Z</time></trkpt><trkpt lat="43.3630333" lon="11.7846117"><ele>282.20000000000005</ele><time>2026-04-16T16:44:03.993Z</time></trkpt><trkpt lat="43.36314" lon="11.7846483"><ele>281.8</ele><time>2026-04-16T16:44:05.993Z</time></trkpt><trkpt lat="43.3632467" lon="11.7846817"><ele>281.40000000000003</ele><time>2026-04-16T16:44:07.991Z</time></trkpt><trkpt lat="43.3633533" lon="11.7847217"><ele>281.0</ele><time>2026-04-16T16:44:09.992Z</time></trkpt><trkpt lat="43.363455" lon="11.784775"><ele>281.0</ele><time>2026-04-16T16:44:11.991Z</time></trkpt><trkpt lat="43.3635567" lon="11.784825"><ele>281.0</ele><time>2026-04-16T16:44:13.99Z</time></trkpt><trkpt lat="43.3636533" lon="11.78487"><ele>281.0</ele><time>2026-04-16T16:44:15.992Z</time></trkpt><trkpt lat="43.3637567" lon="11.7849283"><ele>281.0</ele><time>2026-04-16T16:44:17.991Z</time></trkpt><trkpt lat="43.3638617" lon="11.784985"><ele>281.0</ele><time>2026-04-16T16:44:19.991Z</time></trkpt><trkpt lat="43.36397" lon="11.78504"><ele>280.8</ele><time>2026-04-16T16:44:21.991Z</time></trkpt><trkpt lat="43.3640817" lon="11.7851067"><ele>280.6</ele><time>2026-04-16T16:44:23.996Z</time></trkpt><trkpt lat="43.3641967" lon="11.785175"><ele>280.4</ele><time>2026-04-16T16:44:25.992Z</time></trkpt><trkpt lat="43.36431" lon="11.7852433"><ele>280.2</ele><time>2026-04-16T16:44:27.993Z</time></trkpt><trkpt lat="43.36437" lon="11.78528"><ele>280.0</ele><time>2026-04-16T16:44:28.991Z</time></trkpt><trkpt lat="43.3644333" lon="11.785315"><ele>279.8333333333333</ele><time>2026-04-16T16:44:29.995Z</time></trkpt><trkpt lat="43.3644967" lon="11.7853467"><ele>279.66666666666663</ele><time>2026-04-16T16:44:30.994Z</time></trkpt><trkpt lat="43.3645617" lon="11.7853733"><ele>279.5</ele><time>2026-04-16T16:44:31.991Z</time></trkpt><trkpt lat="43.364625" lon="11.785395"><ele>279.3333333333333</ele><time>2026-04-16T16:44:32.994Z</time></trkpt><trkpt lat="43.3647433" lon="11.78541"><ele>279.1666666666667</ele><time>2026-04-16T16:44:34.996Z</time></trkpt><trkpt lat="43.3648667" lon="11.7854033"><ele>279.0</ele><time>2026-04-16T16:44:36.991Z</time></trkpt><trkpt lat="43.3649717" lon="11.7854067"><ele>278.59999999999997</ele><time>2026-04-16T16:44:38.993Z</time></trkpt><trkpt lat="43.365075" lon="11.7854067"><ele>278.2</ele><time>2026-04-16T16:44:40.994Z</time></trkpt><trkpt lat="43.365175" lon="11.7854083"><ele>277.79999999999995</ele><time>2026-04-16T16:44:42.989Z</time></trkpt><trkpt lat="43.365275" lon="11.7854"><ele>277.4</ele><time>2026-04-16T16:44:44.99Z</time></trkpt><trkpt lat="43.3653783" lon="11.78539"><ele>277.0</ele><time>2026-04-16T16:44:46.989Z</time></trkpt><trkpt lat="43.3654667" lon="11.78538"><ele>277.3333333333333</ele><time>2026-04-16T16:44:48.99Z</time></trkpt><trkpt lat="43.3655533" lon="11.7853583"><ele>277.66666666666663</ele><time>2026-04-16T16:44:50.99Z</time></trkpt><trkpt lat="43.3656433" lon="11.785355"><ele>278.0</ele><time>2026-04-16T16:44:52.991Z</time></trkpt><trkpt lat="43.3657283" lon="11.785355"><ele>278.3333333333333</ele><time>2026-04-16T16:44:54.991Z</time></trkpt><trkpt lat="43.3658167" lon="11.78536"><ele>278.6666666666667</ele><time>2026-04-16T16:44:56.993Z</time></trkpt><trkpt lat="43.3659033" lon="11.785365"><ele>279.0</ele><time>2026-04-16T16:44:58.991Z</time></trkpt><trkpt lat="43.36599" lon="11.785365"><ele>279.0</ele><time>2026-04-16T16:45:00.993Z</time></trkpt><trkpt lat="43.36608" lon="11.78537"><ele>279.0</ele><time>2026-04-16T16:45:02.992Z</time></trkpt><trkpt lat="43.366165" lon="11.785385"><ele>279.0</ele><time>2026-04-16T16:45:04.992Z</time></trkpt><trkpt lat="43.3662533" lon="11.7853967"><ele>279.0</ele><time>2026-04-16T16:45:06.993Z</time></trkpt><trkpt lat="43.3663383" lon="11.7854117"><ele>279.0</ele><time>2026-04-16T16:45:08.991Z</time></trkpt><trkpt lat="43.366425" lon="11.7854333"><ele>279.0</ele><time>2026-04-16T16:45:10.995Z</time></trkpt><trkpt lat="43.36651" lon="11.785465"><ele>279.2</ele><time>2026-04-16T16:45:12.993Z</time></trkpt><trkpt lat="43.3665933" lon="11.7855067"><ele>279.4</ele><time>2026-04-16T16:45:14.997Z</time></trkpt><trkpt lat="43.3666833" lon="11.7855517"><ele>279.6</ele><time>2026-04-16T16:45:16.99Z</time></trkpt><trkpt lat="43.3667733" lon="11.7855917"><ele>279.8</ele><time>2026-04-16T16:45:18.995Z</time></trkpt><trkpt lat="43.3668683" lon="11.7856317"><ele>280.0</ele><time>2026-04-16T16:45:20.996Z</time></trkpt><trkpt lat="43.366965" lon="11.7856767"><ele>280.0</ele><time>2026-04-16T16:45:22.997Z</time></trkpt><trkpt lat="43.3670583" lon="11.7857233"><ele>280.0</ele><time>2026-04-16T16:45:24.993Z</time></trkpt><trkpt lat="43.3671583" lon="11.7857617"><ele>280.0</ele><time>2026-04-16T16:45:26.994Z</time></trkpt><trkpt lat="43.3672617" lon="11.785805"><ele>280.0</ele><time>2026-04-16T16:45:28.994Z</time></trkpt><trkpt lat="43.3673617" lon="11.7858467"><ele>280.0</ele><time>2026-04-16T16:45:30.997Z</time></trkpt><trkpt lat="43.3674683" lon="11.7858867"><ele>279.6</ele><time>2026-04-16T16:45:32.995Z</time></trkpt><trkpt lat="43.3675733" lon="11.7859217"><ele>279.2</ele><time>2026-04-16T16:45:34.995Z</time></trkpt><trkpt lat="43.3676767" lon="11.7859533"><ele>278.8</ele><time>2026-04-16T16:45:36.995Z</time></trkpt><trkpt lat="43.36779" lon="11.7859783"><ele>278.4</ele><time>2026-04-16T16:45:38.995Z</time></trkpt><trkpt lat="43.3678967" lon="11.7860017"><ele>278.0</ele><time>2026-04-16T16:45:40.993Z</time></trkpt><trkpt lat="43.3680017" lon="11.786025"><ele>278.0</ele><time>2026-04-16T16:45:42.994Z</time></trkpt><trkpt lat="43.3681133" lon="11.7860483"><ele>278.0</ele><time>2026-04-16T16:45:44.996Z</time></trkpt><trkpt lat="43.3682267" lon="11.7860733"><ele>278.0</ele><time>2026-04-16T16:45:46.991Z</time></trkpt><trkpt lat="43.3683317" lon="11.786095"><ele>278.0</ele><time>2026-04-16T16:45:48.991Z</time></trkpt><trkpt lat="43.368435" lon="11.78612"><ele>278.0</ele><time>2026-04-16T16:45:50.997Z</time></trkpt><trkpt lat="43.368545" lon="11.7861383"><ele>278.0</ele><time>2026-04-16T16:45:52.992Z</time></trkpt><trkpt lat="43.368655" lon="11.7861583"><ele>278.0</ele><time>2026-04-16T16:45:54.994Z</time></trkpt><trkpt lat="43.3687633" lon="11.7861817"><ele>278.0</ele><time>2026-04-16T16:45:56.994Z</time></trkpt><trkpt lat="43.3688733" lon="11.786205"><ele>278.0</ele><time>2026-04-16T16:45:58.993Z</time></trkpt><trkpt lat="43.3689933" lon="11.786225"><ele>277.8</ele><time>2026-04-16T16:46:00.991Z</time></trkpt><trkpt lat="43.3691083" lon="11.7862483"><ele>277.6</ele><time>2026-04-16T16:46:02.992Z</time></trkpt><trkpt lat="43.3692233" lon="11.7862617"><ele>277.4</ele><time>2026-04-16T16:46:04.991Z</time></trkpt><trkpt lat="43.3693267" lon="11.78628"><ele>277.2</ele><time>2026-04-16T16:46:06.989Z</time></trkpt><trkpt lat="43.369435" lon="11.7863017"><ele>277.0</ele><time>2026-04-16T16:46:08.993Z</time></trkpt><trkpt lat="43.3695417" lon="11.7863217"><ele>277.0</ele><time>2026-04-16T16:46:10.995Z</time></trkpt><trkpt lat="43.3696417" lon="11.7863567"><ele>277.0</ele><time>2026-04-16T16:46:12.994Z</time></trkpt><trkpt lat="43.3697467" lon="11.7863967"><ele>277.0</ele><time>2026-04-16T16:46:14.999Z</time></trkpt><trkpt lat="43.3698517" lon="11.7864333"><ele>277.0</ele><time>2026-04-16T16:46:16.993Z</time></trkpt><trkpt lat="43.369955" lon="11.7864733"><ele>277.0</ele><time>2026-04-16T16:46:18.993Z</time></trkpt><trkpt lat="43.370055" lon="11.78652"><ele>277.2</ele><time>2026-04-16T16:46:20.994Z</time></trkpt><trkpt lat="43.3701533" lon="11.7865567"><ele>277.4</ele><time>2026-04-16T16:46:22.992Z</time></trkpt><trkpt lat="43.3702483" lon="11.7866"><ele>277.6</ele><time>2026-04-16T16:46:24.992Z</time></trkpt><trkpt lat="43.3703383" lon="11.7866433"><ele>277.8</ele><time>2026-04-16T16:46:26.992Z</time></trkpt><trkpt lat="43.3704233" lon="11.786685"><ele>278.0</ele><time>2026-04-16T16:46:28.992Z</time></trkpt><trkpt lat="43.3705083" lon="11.7867267"><ele>277.83333333333337</ele><time>2026-04-16T16:46:30.992Z</time></trkpt><trkpt lat="43.3705867" lon="11.7867733"><ele>277.6666666666667</ele><time>2026-04-16T16:46:32.993Z</time></trkpt><trkpt lat="43.3706633" lon="11.7868133"><ele>277.5</ele><time>2026-04-16T16:46:34.991Z</time></trkpt><trkpt lat="43.37075" lon="11.786845"><ele>277.3333333333333</ele><time>2026-04-16T16:46:36.996Z</time></trkpt><trkpt lat="43.3708467" lon="11.78686"><ele>277.16666666666663</ele><time>2026-04-16T16:46:38.991Z</time></trkpt><trkpt lat="43.3709417" lon="11.786865"><ele>277.0</ele><time>2026-04-16T16:46:40.991Z</time></trkpt><trkpt lat="43.37104" lon="11.7868767"><ele>276.8</ele><time>2026-04-16T16:46:42.99Z</time></trkpt><trkpt lat="43.371135" lon="11.7868783"><ele>276.6</ele><time>2026-04-16T16:46:44.992Z</time></trkpt><trkpt lat="43.3712333" lon="11.786895"><ele>276.40000000000003</ele><time>2026-04-16T16:46:46.993Z</time></trkpt><trkpt lat="43.3713317" lon="11.7869133"><ele>276.2</ele><time>2026-04-16T16:46:48.993Z</time></trkpt><trkpt lat="43.3714317" lon="11.78693"><ele>276.0</ele><time>2026-04-16T16:46:50.995Z</time></trkpt><trkpt lat="43.3715317" lon="11.786935"><ele>276.40000000000003</ele><time>2026-04-16T16:46:52.992Z</time></trkpt><trkpt lat="43.37162" lon="11.7869517"><ele>276.8</ele><time>2026-04-16T16:46:54.994Z</time></trkpt><trkpt lat="43.371705" lon="11.7869717"><ele>277.20000000000005</ele><time>2026-04-16T16:46:56.994Z</time></trkpt><trkpt lat="43.3718" lon="11.7869867"><ele>277.6</ele><time>2026-04-16T16:46:58.993Z</time></trkpt><trkpt lat="43.3718933" lon="11.7870067"><ele>278.0</ele><time>2026-04-16T16:47:00.995Z</time></trkpt><trkpt lat="43.3719917" lon="11.7870267"><ele>278.0</ele><time>2026-04-16T16:47:02.992Z</time></trkpt><trkpt lat="43.3720967" lon="11.7870467"><ele>278.0</ele><time>2026-04-16T16:47:04.993Z</time></trkpt><trkpt lat="43.3722017" lon="11.7870583"><ele>278.0</ele><time>2026-04-16T16:47:06.991Z</time></trkpt><trkpt lat="43.37231" lon="11.787065"><ele>278.0</ele><time>2026-04-16T16:47:08.99Z</time></trkpt><trkpt lat="43.3724117" lon="11.787075"><ele>278.0</ele><time>2026-04-16T16:47:10.992Z</time></trkpt><trkpt lat="43.3725133" lon="11.7871033"><ele>277.6666666666667</ele><time>2026-04-16T16:47:12.993Z</time></trkpt><trkpt lat="43.3725967" lon="11.78713"><ele>277.33333333333337</ele><time>2026-04-16T16:47:14.993Z</time></trkpt><trkpt lat="43.37266" lon="11.7871483"><ele>277.0</ele><time>2026-04-16T16:47:16.993Z</time></trkpt><trkpt lat="43.372745" lon="11.7871617"><ele>276.6666666666667</ele><time>2026-04-16T16:47:18.995Z</time></trkpt><trkpt lat="43.3728433" lon="11.7871683"><ele>276.3333333333333</ele><time>2026-04-16T16:47:20.993Z</time></trkpt><trkpt lat="43.37295" lon="11.7871867"><ele>276.0</ele><time>2026-04-16T16:47:22.992Z</time></trkpt><trkpt lat="43.3730567" lon="11.7871983"><ele>275.75</ele><time>2026-04-16T16:47:24.993Z</time></trkpt><trkpt lat="43.373175" lon="11.787205"><ele>275.5</ele><time>2026-04-16T16:47:26.992Z</time></trkpt><trkpt lat="43.3732933" lon="11.787215"><ele>275.25</ele><time>2026-04-16T16:47:28.99Z</time></trkpt><trkpt lat="43.37341" lon="11.7872283"><ele>275.0</ele><time>2026-04-16T16:47:30.99Z</time></trkpt><trkpt lat="43.3735233" lon="11.7872317"><ele>275.0</ele><time>2026-04-16T16:47:32.993Z</time></trkpt><trkpt lat="43.3736383" lon="11.78724"><ele>275.0</ele><time>2026-04-16T16:47:34.99Z</time></trkpt><trkpt lat="43.3737567" lon="11.7872517"><ele>275.0</ele><time>2026-04-16T16:47:36.994Z</time></trkpt><trkpt lat="43.3738717" lon="11.787265"><ele>275.0</ele><time>2026-04-16T16:47:38.995Z</time></trkpt><trkpt lat="43.3739817" lon="11.78728"><ele>275.2</ele><time>2026-04-16T16:47:40.993Z</time></trkpt><trkpt lat="43.37409" lon="11.78729"><ele>275.4</ele><time>2026-04-16T16:47:42.992Z</time></trkpt><trkpt lat="43.3742" lon="11.7873017"><ele>275.6</ele><time>2026-04-16T16:47:44.997Z</time></trkpt><trkpt lat="43.3743083" lon="11.78732"><ele>275.8</ele><time>2026-04-16T16:47:46.993Z</time></trkpt><trkpt lat="43.374415" lon="11.7873283"><ele>276.0</ele><time>2026-04-16T16:47:48.994Z</time></trkpt><trkpt lat="43.3745133" lon="11.7873267"><ele>276.0</ele><time>2026-04-16T16:47:50.995Z</time></trkpt><trkpt lat="43.3746133" lon="11.787315"><ele>276.0</ele><time>2026-04-16T16:47:52.996Z</time></trkpt><trkpt lat="43.37471" lon="11.7872883"><ele>276.0</ele><time>2026-04-16T16:47:54.991Z</time></trkpt><trkpt lat="43.3748067" lon="11.7872517"><ele>276.0</ele><time>2026-04-16T16:47:56.995Z</time></trkpt><trkpt lat="43.3748967" lon="11.7871917"><ele>276.0</ele><time>2026-04-16T16:47:58.99Z</time></trkpt><trkpt lat="43.37498" lon="11.7871167"><ele>276.0</ele><time>2026-04-16T16:48:00.991Z</time></trkpt><trkpt lat="43.37506" lon="11.7870333"><ele>276.0</ele><time>2026-04-16T16:48:02.991Z</time></trkpt><trkpt lat="43.37514" lon="11.7869483"><ele>276.0</ele><time>2026-04-16T16:48:04.993Z</time></trkpt><trkpt lat="43.375215" lon="11.7868583"><ele>276.0</ele><time>2026-04-16T16:48:06.993Z</time></trkpt><trkpt lat="43.3752883" lon="11.78677"><ele>276.0</ele><time>2026-04-16T16:48:08.992Z</time></trkpt><trkpt lat="43.3753483" lon="11.786705"><ele>276.0</ele><time>2026-04-16T16:48:10.992Z</time></trkpt><trkpt lat="43.3754183" lon="11.7867183"><ele>276.0</ele><time>2026-04-16T16:48:13.99Z</time></trkpt><trkpt lat="43.3754317" lon="11.7868033"><ele>276.0</ele><time>2026-04-16T16:48:15.992Z</time></trkpt><trkpt lat="43.375425" lon="11.7869533"><ele>276.0</ele><time>2026-04-16T16:48:18.992Z</time></trkpt><trkpt lat="43.3754233" lon="11.7870517"><ele>276.0</ele><time>2026-04-16T16:48:20.993Z</time></trkpt><trkpt lat="43.3754183" lon="11.7871433"><ele>276.0</ele><time>2026-04-16T16:48:22.991Z</time></trkpt><trkpt lat="43.375425" lon="11.7872417"><ele>275.8571428571429</ele><time>2026-04-16T16:48:24.994Z</time></trkpt><trkpt lat="43.3754333" lon="11.7873383"><ele>275.7142857142857</ele><time>2026-04-16T16:48:26.995Z</time></trkpt><trkpt lat="43.3754483" lon="11.7874483"><ele>275.57142857142856</ele><time>2026-04-16T16:48:29.993Z</time></trkpt><trkpt lat="43.3754783" lon="11.7875367"><ele>275.42857142857144</ele><time>2026-04-16T16:48:32.994Z</time></trkpt><trkpt lat="43.3755217" lon="11.7876067"><ele>275.2857142857143</ele><time>2026-04-16T16:48:35.993Z</time></trkpt><trkpt lat="43.375585" lon="11.7876417"><ele>275.14285714285717</ele><time>2026-04-16T16:48:52.991Z</time></trkpt><trkpt lat="43.3756517" lon="11.7876917"><ele>275.0</ele><time>2026-04-16T16:48:55.99Z</time></trkpt><trkpt lat="43.3757217" lon="11.787715"><ele>272.0</ele><time>2026-04-16T16:48:58.992Z</time></trkpt><trkpt lat="43.3758017" lon="11.7877217"><ele>272.0</ele><time>2026-04-16T16:49:01.993Z</time></trkpt><trkpt lat="43.3758817" lon="11.7877317"><ele>272.0</ele><time>2026-04-16T16:49:04.994Z</time></trkpt><trkpt lat="43.375955" lon="11.7877783"><ele>272.0</ele><time>2026-04-16T16:49:07.996Z</time></trkpt><trkpt lat="43.3760233" lon="11.7878267"><ele>272.0</ele><time>2026-04-16T16:49:10.993Z</time></trkpt></trkseg></trk></gpx>